[[{"header":{"parameterUnit":"m.s-1","parameterCategory":1,"la1":30.6,"la2":29.2853,"lo1":-89.7004,"lo2":-87.6739,"dy":0.0162,"dx":0.0183,"nx":112,"ny":82,"refTime":"2024-07-28T06:00:00:Z","depth":0,"parameterNumber":2,"parameterNumberName":"U-component_of_WINDS"},"data":[0.0,0.0,0.0,0.0,0.0,0.0,0.0,0.0,0.0,0.0,0.0,0.0,0.0,0.0,0.0,0.0,0.0,0.0,0.0,0.0,0.0,0.0,0.0,0.0,0.0,0.0,0.0,0.0,0.0,0.0,0.0,0.0,0.0,0.0,0.0,0.0,0.0,0.0,0.0,0.0,0.0,0.0,0.0,0.0,0.0,0.0,0.0,0.0,0.0,0.0,0.0,0.0,0.0,0.0,0.0,0.0,0.0,0.0,0.0,0.0,0.0,0.0,0.0,0.0,0.0,0.0,0.0,0.0,0.0,0.0,0.0,0.0,0.0,0.0,0.0,0.0,0.0,0.0,0.0,0.0,0.0,0.0,0.0,0.0,0.0,0.0,0.0,0.0,0.0,0.0,0.0,-2.5044,-2.6733,-2.7291,-2.6484,-2.5797,-2.4365,-2.1941,0.0,0.0,0.0,0.0,0.0,0.0,0.0,0.0,0.0,0.0,0.0,0.0,0.0,0.0,0.0,0.0,0.0,0.0,0.0,0.0,0.0,0.0,0.0,0.0,0.0,0.0,0.0,0.0,0.0,0.0,0.0,0.0,0.0,0.0,0.0,0.0,0.0,0.0,0.0,0.0,0.0,0.0,0.0,0.0,0.0,0.0,0.0,0.0,0.0,0.0,0.0,0.0,0.0,0.0,0.0,0.0,0.0,0.0,0.0,0.0,0.0,0.0,0.0,0.0,0.0,0.0,0.0,0.0,0.0,0.0,0.0,0.0,0.0,0.0,0.0,0.0,0.0,0.0,0.0,0.0,0.0,0.0,0.0,0.0,0.0,0.0,0.0,0.0,0.0,0.0,0.0,0.0,0.0,0.0,0.0,0.0,0.0,0.0,0.0,0.0,0.0,0.0,0.0,0.0,-2.1005,-2.497,-2.6227,-2.6465,-2.565,-2.5466,-2.4365,-2.1941,0.0,0.0,0.0,0.0,0.0,0.0,0.0,0.0,0.0,0.0,0.0,0.0,0.0,0.0,0.0,0.0,0.0,0.0,0.0,0.0,0.0,0.0,0.0,0.0,0.0,0.0,0.0,0.0,0.0,0.0,0.0,0.0,0.0,0.0,0.0,0.0,0.0,0.0,0.0,0.0,0.0,0.0,0.0,0.0,0.0,0.0,0.0,0.0,0.0,0.0,0.0,0.0,0.0,0.0,0.0,0.0,0.0,0.0,0.0,0.0,0.0,0.0,0.0,0.0,0.0,0.0,0.0,0.0,0.0,0.0,0.0,0.0,0.0,0.0,0.0,0.0,0.0,0.0,0.0,0.0,0.0,0.0,0.0,0.0,0.0,0.0,0.0,0.0,0.0,0.0,0.0,0.0,0.0,0.0,0.0,0.0,0.0,0.0,0.0,0.0,0.0,0.0,0.0,-2.1455,-2.2841,-2.5154,-2.5723,-2.5797,-2.5429,-2.5007,-2.3906,-2.1923,-2.0233,0.0,0.0,0.0,0.0,0.0,0.0,0.0,0.0,0.0,0.0,0.0,0.0,0.0,0.0,0.0,0.0,0.0,0.0,0.0,0.0,0.0,0.0,0.0,0.0,0.0,0.0,0.0,0.0,0.0,0.0,0.0,0.0,0.0,0.0,0.0,0.0,0.0,0.0,0.0,0.0,0.0,0.0,0.0,0.0,0.0,0.0,0.0,0.0,0.0,0.0,0.0,0.0,0.0,0.0,0.0,0.0,0.0,0.0,0.0,0.0,0.0,0.0,0.0,0.0,0.0,0.0,0.0,0.0,0.0,0.0,0.0,0.0,0.0,0.0,0.0,0.0,0.0,0.0,0.0,0.0,0.0,0.0,0.0,0.0,0.0,0.0,0.0,0.0,0.0,0.0,0.0,0.0,0.0,0.0,0.0,0.0,0.0,0.0,0.0,0.0,0.0,0.0,-2.3345,-2.4438,-2.5044,-2.5117,-2.5117,-2.5117,-2.4218,-2.3024,-2.1592,-1.9748,0.0,0.0,0.0,0.0,0.0,0.0,0.0,0.0,0.0,0.0,0.0,0.0,0.0,0.0,0.0,0.0,0.0,0.0,0.0,0.0,0.0,0.0,0.0,0.0,0.0,0.0,0.0,0.0,0.0,0.0,0.0,0.0,0.0,0.0,0.0,0.0,0.0,0.0,0.0,0.0,0.0,0.0,0.0,0.0,0.0,0.0,0.0,0.0,0.0,0.0,0.0,0.0,0.0,0.0,0.0,0.0,0.0,0.0,0.0,0.0,0.0,0.0,0.0,0.0,0.0,0.0,0.0,0.0,0.0,0.0,0.0,0.0,0.0,0.0,0.0,0.0,0.0,0.0,0.0,0.0,0.0,0.0,0.0,0.0,0.0,0.0,0.0,0.0,0.0,0.0,0.0,0.0,0.0,0.0,0.0,0.0,0.0,0.0,0.0,0.0,0.0,0.0,-2.229,-2.4226,-2.4281,-2.4281,-2.4281,-2.4281,-2.2859,-2.1565,-2.0658,-1.8375,0.0,0.0,0.0,0.0,0.0,0.0,0.0,0.0,0.0,0.0,0.0,0.0,0.0,0.0,0.0,0.0,0.0,0.0,0.0,0.0,0.0,0.0,0.0,0.0,0.0,0.0,0.0,0.0,0.0,0.0,0.0,0.0,0.0,0.0,0.0,0.0,0.0,0.0,0.0,0.0,0.0,0.0,0.0,0.0,0.0,0.0,0.0,0.0,0.0,0.0,0.0,0.0,0.0,0.0,0.0,0.0,0.0,0.0,0.0,0.0,0.0,0.0,0.0,0.0,0.0,0.0,0.0,0.0,0.0,0.0,0.0,0.0,0.0,0.0,0.0,0.0,0.0,0.0,0.0,0.0,0.0,0.0,0.0,0.0,0.0,0.0,0.0,0.0,0.0,0.0,0.0,0.0,0.0,0.0,0.0,0.0,0.0,0.0,0.0,0.0,0.0,0.0,-2.2034,-2.3639,0.0,-2.419,-2.419,-2.419,-2.3639,-2.2501,-2.0621,0.0,0.0,0.0,0.0,0.0,0.0,0.0,0.0,0.0,0.0,0.0,0.0,0.0,0.0,0.0,0.0,0.0,0.0,0.0,0.0,0.0,0.0,0.0,0.0,0.0,0.0,0.0,0.0,0.0,0.0,0.0,0.0,0.0,0.0,0.0,0.0,0.0,0.0,0.0,0.0,0.0,0.0,0.0,0.0,0.0,0.0,0.0,0.0,0.0,0.0,0.0,0.0,0.0,0.0,0.0,0.0,0.0,0.0,0.0,0.0,0.0,0.0,0.0,0.0,0.0,0.0,0.0,0.0,0.0,0.0,0.0,0.0,0.0,0.0,0.0,0.0,0.0,0.0,0.0,0.0,0.0,0.0,0.0,0.0,0.0,0.0,0.0,0.0,0.0,0.0,0.0,0.0,0.0,0.0,0.0,0.0,0.0,0.0,0.0,0.0,0.0,0.0,-1.9942,-2.2034,-2.3602,0.0,-2.4103,-2.4084,-2.419,-2.3398,-2.21,-2.0236,0.0,0.0,0.0,0.0,0.0,0.0,0.0,0.0,0.0,0.0,0.0,0.0,0.0,0.0,0.0,0.0,0.0,0.0,0.0,0.0,0.0,0.0,0.0,0.0,0.0,0.0,0.0,0.0,0.0,0.0,0.0,0.0,0.0,0.0,0.0,0.0,0.0,0.0,0.0,0.0,0.0,0.0,0.0,0.0,0.0,0.0,0.0,0.0,0.0,0.0,0.0,0.0,0.0,0.0,0.0,0.0,0.0,0.0,0.0,0.0,0.0,0.0,0.0,0.0,0.0,0.0,0.0,0.0,0.0,0.0,0.0,0.0,0.0,0.0,0.0,0.0,0.0,0.0,0.0,0.0,0.0,0.0,0.0,0.0,0.0,0.0,0.0,0.0,0.0,0.0,0.0,0.0,0.0,0.0,0.0,0.0,0.0,0.0,0.0,0.0,0.0,0.0,-1.9172,-2.2152,-2.4208,-2.419,-2.3896,-2.3827,-2.417,-2.1688,-1.9884,0.0,0.0,0.0,0.0,0.0,0.0,0.0,0.0,0.0,0.0,0.0,0.0,0.0,0.0,0.0,0.0,0.0,0.0,0.0,0.0,0.0,0.0,0.0,0.0,0.0,0.0,0.0,0.0,0.0,0.0,0.0,0.0,0.0,0.0,0.0,0.0,0.0,0.0,0.0,0.0,0.0,0.0,0.0,0.0,0.0,0.0,0.0,0.0,0.0,0.0,0.0,0.0,0.0,0.0,0.0,0.0,0.0,0.0,0.0,0.0,0.0,0.0,0.0,0.0,0.0,0.0,0.0,0.0,0.0,0.0,0.0,0.0,0.0,0.0,0.0,0.0,0.0,0.0,0.0,0.0,0.0,0.0,0.0,0.0,0.0,0.0,0.0,0.0,0.0,0.0,0.0,0.0,0.0,0.0,0.0,0.0,0.0,0.0,0.0,0.0,0.0,0.0,0.0,0.0,-2.1888,-2.3937,-2.417,-2.3896,-2.3735,-2.3837,-2.2586,-2.0937,-1.8932,0.0,0.0,0.0,0.0,0.0,0.0,0.0,0.0,0.0,0.0,0.0,0.0,0.0,0.0,0.0,0.0,0.0,0.0,0.0,0.0,0.0,0.0,0.0,0.0,0.0,0.0,0.0,0.0,0.0,0.0,0.0,0.0,0.0,0.0,0.0,0.0,0.0,0.0,0.0,0.0,0.0,0.0,0.0,0.0,0.0,0.0,0.0,0.0,0.0,0.0,0.0,0.0,0.0,0.0,0.0,0.0,0.0,0.0,0.0,0.0,0.0,0.0,0.0,0.0,0.0,0.0,0.0,0.0,0.0,0.0,0.0,0.0,0.0,0.0,0.0,0.0,0.0,0.0,0.0,0.0,0.0,0.0,0.0,0.0,0.0,0.0,0.0,0.0,0.0,0.0,0.0,0.0,0.0,0.0,0.0,0.0,0.0,0.0,0.0,0.0,0.0,0.0,-1.8752,-2.1596,-2.3577,-2.3785,-2.3511,-2.3357,-2.35,-2.2634,-2.127,-1.9331,0.0,0.0,0.0,0.0,0.0,0.0,0.0,0.0,0.0,0.0,0.0,0.0,0.0,0.0,0.0,0.0,0.0,0.0,0.0,0.0,0.0,0.0,0.0,0.0,0.0,0.0,0.0,0.0,0.0,0.0,0.0,0.0,0.0,0.0,0.0,0.0,0.0,0.0,0.0,0.0,0.0,0.0,0.0,0.0,0.0,0.0,0.0,0.0,0.0,0.0,0.0,0.0,0.0,0.0,0.0,0.0,0.0,0.0,0.0,0.0,0.0,0.0,0.0,0.0,0.0,0.0,0.0,0.0,0.0,0.0,0.0,0.0,0.0,0.0,0.0,0.0,0.0,0.0,0.0,0.0,0.0,0.0,0.0,0.0,0.0,0.0,0.0,0.0,0.0,0.0,0.0,0.0,0.0,0.0,0.0,0.0,0.0,0.0,0.0,0.0,0.0,0.0,-1.8459,-2.1297,-2.3165,-2.3189,-2.291,-2.2822,-2.3129,-2.2138,-2.1069,-2.0049,0.0,0.0,0.0,0.0,0.0,0.0,0.0,0.0,0.0,0.0,0.0,0.0,0.0,0.0,0.0,0.0,0.0,0.0,0.0,0.0,0.0,0.0,0.0,0.0,0.0,0.0,0.0,0.0,0.0,0.0,0.0,0.0,0.0,0.0,0.0,0.0,0.0,0.0,0.0,0.0,0.0,0.0,0.0,0.0,0.0,0.0,0.0,0.0,0.0,0.0,0.0,0.0,0.0,0.0,0.0,0.0,0.0,0.0,0.0,0.0,-2.2408,0.0,0.0,0.0,0.0,0.0,0.0,0.0,0.0,0.0,0.0,0.0,0.0,0.0,0.0,0.0,0.0,0.0,0.0,0.0,0.0,0.0,0.0,0.0,0.0,0.0,0.0,0.0,0.0,0.0,0.0,0.0,0.0,0.0,0.0,0.0,0.0,0.0,0.0,0.0,0.0,0.0,-1.9011,-2.1319,-2.291,-2.3165,-2.291,-2.2733,-2.281,-2.1989,-2.0837,-1.9253,0.0,0.0,0.0,0.0,0.0,0.0,0.0,0.0,0.0,0.0,0.0,0.0,0.0,0.0,0.0,0.0,0.0,0.0,0.0,0.0,0.0,0.0,0.0,0.0,0.0,0.0,0.0,0.0,0.0,0.0,0.0,0.0,0.0,0.0,0.0,0.0,0.0,0.0,0.0,0.0,0.0,0.0,0.0,0.0,0.0,0.0,0.0,0.0,0.0,0.0,0.0,0.0,0.0,0.0,0.0,0.0,0.0,0.0,0.0,0.0,0.0,-2.3966,0.0,0.0,0.0,0.0,0.0,0.0,0.0,0.0,0.0,0.0,0.0,0.0,0.0,0.0,0.0,0.0,0.0,0.0,0.0,0.0,0.0,0.0,0.0,0.0,0.0,0.0,0.0,0.0,0.0,0.0,0.0,0.0,0.0,0.0,0.0,0.0,0.0,0.0,0.0,0.0,-1.8967,-2.1121,-2.2581,-2.2747,-2.2603,-2.2514,-2.2514,-2.2114,-2.14,-2.0221,-1.8912,0.0,0.0,0.0,0.0,0.0,0.0,0.0,0.0,0.0,0.0,0.0,0.0,0.0,0.0,0.0,0.0,0.0,0.0,0.0,0.0,0.0,0.0,0.0,0.0,0.0,0.0,0.0,0.0,0.0,0.0,0.0,0.0,0.0,0.0,0.0,0.0,0.0,0.0,0.0,0.0,0.0,0.0,0.0,0.0,0.0,0.0,0.0,0.0,0.0,0.0,0.0,0.0,0.0,0.0,0.0,-3.0846,-3.0846,-3.0371,-2.9473,-2.8082,-2.6827,-2.5731,0.0,0.0,0.0,0.0,0.0,0.0,0.0,0.0,0.0,0.0,0.0,0.0,0.0,0.0,0.0,0.0,0.0,0.0,0.0,0.0,0.0,0.0,0.0,0.0,0.0,-2.2216,-2.1831,0.0,0.0,0.0,0.0,0.0,0.0,0.0,0.0,0.0,0.0,0.0,0.0,-1.9109,-2.1059,-2.2296,-2.2296,-2.2296,-2.2296,-2.2296,-2.2296,-2.2051,-2.1481,-2.0128,-1.8779,0.0,0.0,0.0,0.0,0.0,0.0,0.0,0.0,0.0,0.0,0.0,0.0,0.0,0.0,0.0,0.0,0.0,0.0,0.0,0.0,0.0,0.0,0.0,0.0,0.0,0.0,0.0,0.0,0.0,0.0,0.0,0.0,-2.0703,-2.2402,0.0,0.0,0.0,0.0,0.0,0.0,0.0,0.0,0.0,0.0,0.0,0.0,0.0,0.0,-2.9885,-3.1468,-3.1948,-3.1371,-3.2949,-3.3295,-3.2564,-3.2564,-3.2122,-3.1333,-3.1121,0.0,-2.7448,-2.5923,0.0,0.0,0.0,0.0,0.0,0.0,0.0,0.0,0.0,0.0,0.0,0.0,0.0,0.0,0.0,0.0,0.0,0.0,0.0,0.0,0.0,0.0,-2.3878,-2.3878,-2.3878,-2.3823,0.0,-2.1317,-1.9205,-1.8893,0.0,0.0,0.0,0.0,0.0,0.0,0.0,0.0,-2.0699,-2.1718,-2.2296,-2.2296,-2.2296,-2.2296,-2.2296,-2.2296,-2.2003,-2.1277,-2.1182,-2.0413,-1.8727,-1.7456,0.0,0.0,0.0,0.0,0.0,0.0,0.0,0.0,0.0,0.0,0.0,0.0,0.0,0.0,0.0,0.0,0.0,0.0,0.0,0.0,0.0,0.0,0.0,0.0,0.0,0.0,0.0,0.0,0.0,-2.0566,-2.3008,-2.373,-2.4021,-2.3954,0.0,0.0,0.0,0.0,0.0,0.0,0.0,0.0,0.0,-2.9967,-3.0371,-3.1198,-3.2526,-3.3256,-3.3699,-3.3846,-3.4584,-3.4737,-3.4365,-3.4365,-3.391,-3.3103,-3.3103,-3.1929,-2.989,-2.8159,-2.689,-2.5932,0.0,0.0,0.0,0.0,0.0,0.0,-2.3393,0.0,0.0,0.0,0.0,0.0,0.0,0.0,0.0,0.0,0.0,0.0,0.0,0.0,0.0,-2.419,-2.419,-2.419,-2.419,-2.307,-2.1794,0.0,-2.0506,-1.9732,-1.7826,0.0,0.0,0.0,0.0,0.0,-2.1055,-2.1837,-2.2296,-2.2296,-2.2296,-2.2296,-2.2296,-2.2296,-2.2175,-2.1837,-2.15,-2.0982,-2.0226,-1.8847,-1.7358,0.0,0.0,0.0,0.0,0.0,0.0,0.0,0.0,0.0,0.0,0.0,0.0,0.0,0.0,0.0,0.0,0.0,0.0,0.0,0.0,0.0,0.0,0.0,0.0,0.0,0.0,0.0,0.0,-2.2383,-2.4473,-2.4707,-2.5523,-2.5783,0.0,0.0,0.0,0.0,0.0,0.0,-2.8756,-2.9063,-3.014,-3.2275,-3.2756,-3.3583,-3.4834,-3.5071,-3.5391,-3.5808,-3.5808,-3.5692,-3.55,-3.55,-3.5026,-3.4205,-3.4205,-3.3256,-3.1583,-3.0063,-2.8563,-2.7206,-2.6852,-2.5943,0.0,-2.585,-2.5772,-2.5261,-2.5699,-2.5659,-2.5099,-2.33,0.0,-2.1867,-2.0611,0.0,0.0,0.0,0.0,-2.3299,-2.3299,0.0,-2.419,-2.419,-2.419,-2.419,-2.419,-2.419,-2.3841,0.0,-2.2134,-2.1215,-1.9053,0.0,0.0,0.0,0.0,-2.0589,-2.138,-2.1955,-2.2296,-2.2296,-2.2296,-2.2296,-2.2296,-2.2296,-2.2296,-2.2296,-2.1786,-2.1478,-2.1478,-1.9993,-1.8572,0.0,0.0,0.0,0.0,0.0,0.0,0.0,0.0,0.0,0.0,0.0,0.0,0.0,0.0,0.0,0.0,0.0,0.0,0.0,0.0,0.0,0.0,0.0,0.0,0.0,0.0,0.0,0.0,0.0,0.0,-2.5547,-2.6621,0.0,0.0,0.0,0.0,-3.0085,-3.0073,-3.05,-3.1468,-3.2237,-3.3083,-3.4032,-3.5622,-3.6481,-3.6577,-3.7392,-3.743,-3.6635,-3.6635,-3.6231,-3.55,-3.55,-3.5026,-3.4205,-3.4205,-3.3256,-3.1641,-3.0712,-2.9794,-2.8885,-2.7911,-2.7592,-2.7676,-2.7561,-2.7314,-2.7075,-2.7097,-2.6356,-2.5374,-2.5264,-2.419,-2.2914,-2.2841,-2.2841,0.0,0.0,-2.3492,-2.4135,-2.4135,-2.4171,-2.419,-2.419,-2.419,-2.419,-2.419,-2.419,-2.4171,0.0,-2.3818,-2.3221,-2.2074,0.0,0.0,-2.1074,-2.1089,-2.141,-2.2158,-2.2279,-2.2296,-2.2296,-2.2296,-2.2296,-2.2296,-2.2296,-2.2296,-2.2296,-2.2262,-2.2229,-2.2229,-2.0758,-1.9575,-1.8804,-1.5957,0.0,0.0,0.0,0.0,0.0,0.0,0.0,0.0,0.0,0.0,0.0,0.0,0.0,0.0,0.0,0.0,0.0,0.0,0.0,0.0,0.0,0.0,0.0,0.0,0.0,0.0,0.0,0.0,-2.7266,-2.8614,0.0,0.0,-2.9714,-3.0679,-3.1195,-3.1243,-3.1833,-3.3237,-3.3583,-3.4372,-3.5757,-3.6385,-3.6962,-3.7526,-3.7834,-3.7565,-3.6692,-3.6692,-3.6269,-3.55,-3.55,-3.5327,-3.5045,-3.5045,-3.4064,-3.2487,-3.2737,-3.1698,-2.9904,-2.9543,-2.91,-2.8689,-2.8874,-2.8545,-2.7939,-2.768,-2.7294,-2.677,-2.5742,-2.5007,-2.4456,-2.3933,-2.3768,-2.3768,-2.3768,-2.3988,-2.419,-2.419,-2.419,-2.419,-2.419,-2.419,-2.419,-2.419,-2.4026,-2.3886,-2.3886,-2.3599,-2.304,-2.1961,-2.1918,-2.185,-2.1302,-2.16,-2.2006,-2.2262,-2.2296,-2.2296,-2.2296,-2.2296,-2.2296,-2.2296,-2.2296,-2.2107,-2.1617,-2.1583,-2.1363,-2.0842,-2.0289,-1.9659,-1.891,-1.7394,-1.5653,0.0,0.0,0.0,0.0,0.0,0.0,0.0,0.0,0.0,0.0,0.0,0.0,0.0,0.0,0.0,0.0,0.0,0.0,0.0,0.0,0.0,0.0,0.0,0.0,0.0,0.0,-2.7754,-2.8633,-3.0125,-3.0842,-3.0247,-3.11,-3.1944,-3.2493,-3.2814,-3.3583,-3.4968,-3.4795,-3.5276,-3.6654,-3.6981,-3.743,-3.7988,-3.8565,-3.8411,-3.7565,-3.7276,-3.6712,-3.5904,-3.5615,-3.55,-3.55,-3.55,-3.45,-3.2968,-3.384,-3.2872,-3.0846,-3.0846,-3.0314,-2.9554,-2.9741,-2.9387,-2.8741,-2.8046,-2.7798,-2.7578,-2.6237,-2.5613,-2.5356,-2.5089,-2.463,-2.4263,-2.453,-2.441,-2.419,-2.419,-2.419,-2.419,-2.419,-2.419,-2.419,-2.419,-2.3927,-2.3671,-2.3555,-2.3247,-2.2814,-2.2086,-2.2152,-2.2141,-2.1634,-2.1989,-2.2296,-2.2296,-2.2296,-2.2296,-2.2296,-2.2296,-2.2296,-2.2296,-2.2073,-2.1837,-2.1583,-2.1075,-2.0686,-2.042,-1.9913,-1.9389,-1.891,-1.7929,-1.6712,-1.524,0.0,0.0,0.0,0.0,0.0,0.0,0.0,0.0,0.0,0.0,0.0,0.0,0.0,0.0,0.0,0.0,0.0,0.0,0.0,0.0,0.0,0.0,0.0,-2.4551,-2.6777,-2.8711,-2.9609,-3.1117,-3.2047,-3.1984,-3.343,-3.4351,-3.427,-3.5084,-3.5923,-3.6692,-3.5981,-3.5923,-3.675,-3.7565,-3.8027,-3.8084,-3.9688,-4.0092,-3.9284,-3.8411,-3.7546,-3.6673,-3.5865,-3.55,-3.55,-3.55,-3.45,-3.2968,-3.384,-3.3199,-3.1698,-3.1698,-3.1173,-3.0405,-3.0115,-2.9869,-2.9512,-2.8278,-2.7835,-2.7695,-2.6906,-2.6098,-2.5613,-2.6374,-2.5511,-2.4428,-2.5191,-2.4842,-2.4226,-2.4208,-2.419,-2.419,-2.419,-2.419,-2.419,-2.419,-2.3927,-2.3588,-2.3259,-2.2923,-2.2682,-2.2682,-2.2477,-2.2296,-2.2296,-2.2296,0.0,-2.2296,-2.2296,-2.2296,-2.2296,-2.2296,-2.2296,-2.2296,-2.1647,-2.1529,-2.2178,-2.0842,-2.0335,-2.1089,-1.9701,-1.891,-1.8927,-1.7501,-1.6766,-1.6733,0.0,0.0,0.0,0.0,0.0,0.0,0.0,0.0,0.0,0.0,0.0,0.0,0.0,0.0,0.0,0.0,0.0,0.0,0.0,0.0,0.0,0.0,-2.7441,-2.8086,-2.9336,-3.0723,-3.2187,-3.3223,-3.3812,-3.379,-3.5159,-3.6028,-3.6007,-3.6815,-3.7411,-3.7623,-3.6827,-3.7046,-3.8546,-3.82,-3.8584,-3.9804,-4.0265,-4.0092,-3.9284,-3.8411,-3.7546,-3.6673,-3.5865,-3.55,-3.55,-3.55,-3.45,-3.2968,-3.384,-3.3199,-3.1698,-3.1698,-3.1545,-3.1232,-3.0326,-2.9771,-2.9436,-2.9091,-2.8827,-2.8528,-2.7732,-2.731,-2.7082,-2.6704,-2.63,-2.586,-2.5503,-2.5246,-2.4934,-2.4355,-2.419,-2.419,-2.419,-2.419,-2.419,-2.419,-2.3753,-2.3311,-2.3212,-2.2768,-2.2398,-2.2398,-2.2349,-2.2296,-2.2296,0.0,0.0,-2.2296,-2.2296,-2.2296,-2.2296,-2.2296,-2.2296,-2.2296,-2.2124,-2.1617,0.0,-2.0221,-1.9862,-1.9549,-1.9142,-1.9147,-1.9693,-1.8775,-1.8031,0.0,0.0,0.0,0.0,0.0,0.0,0.0,0.0,0.0,0.0,0.0,0.0,0.0,0.0,0.0,0.0,0.0,0.0,0.0,0.0,0.0,0.0,-2.7617,-2.9394,-3.0976,-3.1348,-3.207,-3.375,-3.4267,-3.4782,-3.5479,-3.6248,-3.6846,-3.7219,-3.7719,-3.8161,-3.8527,-3.7719,-3.7873,-3.9265,-3.8815,-3.9008,-3.9996,-4.0323,-4.0092,-3.9284,-3.8411,-3.7546,-3.6673,-3.5865,-3.55,0.0,-3.55,-3.4712,-3.3506,-3.4391,-3.3737,0.0,0.0,0.0,0.0,0.0,-2.9796,-2.9532,-2.9532,-2.9373,-2.9086,-2.8616,-2.8172,-2.7769,-2.7629,-2.6906,-2.6062,-2.5944,-2.5429,-2.4787,-2.4318,-2.419,-2.419,-2.419,-2.419,-2.419,-2.419,-2.3785,-2.3369,-2.3242,0.0,0.0,-2.2324,-2.2296,-2.2296,-2.2296,-2.2296,-2.2296,0.0,-2.2296,-2.2296,-2.2296,-2.2296,-2.2296,-2.2296,-2.2023,0.0,0.0,0.0,-1.9811,-1.9384,0.0,0.0,0.0,0.0,0.0,0.0,0.0,0.0,0.0,-1.8944,-1.9012,0.0,0.0,0.0,0.0,0.0,0.0,0.0,0.0,0.0,0.0,0.0,0.0,0.0,0.0,0.0,0.0,-2.9336,-3.0781,-3.2969,-3.2812,-3.3066,-3.4668,-3.4718,-3.523,-3.6704,-3.6853,-3.718,-3.795,-3.818,-3.8623,0.0,0.0,0.0,0.0,0.0,-3.9342,-3.9438,-4.015,-4.015,-3.9419,-3.845,-3.7584,-3.6808,-3.5904,-3.55,-3.55,-3.55,-3.5007,-3.4263,-3.5026,-3.4385,-3.2891,-3.2795,-3.2275,-3.143,-3.0423,-2.9908,0.0,0.0,0.0,0.0,-2.9402,-2.8743,-2.8062,-2.8785,-2.7438,-2.5815,-2.6539,-2.5585,-2.4337,-2.4337,-2.4263,-2.419,-2.419,-2.419,-2.419,-2.419,-2.3927,-2.361,-2.3305,-2.296,-2.2621,-2.2388,-2.2307,-2.2296,-2.2296,-2.2296,0.0,-2.2296,-2.2296,-2.2296,-2.2296,0.0,0.0,-2.2296,-2.1701,-2.158,-2.2127,-2.0893,-2.0149,-2.0149,-2.0221,-2.0589,-2.1309,-2.1326,-2.1647,-2.2296,-2.2296,-2.2296,-2.2245,-2.023,-2.0022,0.0,0.0,0.0,0.0,0.0,0.0,0.0,0.0,0.0,0.0,0.0,0.0,0.0,0.0,0.0,-2.9277,-3.1211,-3.2617,-3.2441,-3.3457,-3.4609,-3.5625,-3.5578,-3.5606,-3.5917,-3.7046,-3.7815,-3.7988,-3.9238,-4.0092,-4.0265,-3.9496,0.0,-4.0246,-3.965,-3.9611,-4.0265,-4.0419,-4.0419,-4.0246,0.0,0.0,-3.77,-3.6192,-3.55,-3.55,-3.55,-3.5007,-3.4205,-3.4379,-3.3833,-3.2833,-3.2199,-3.1404,-3.0609,-3.0406,-3.0169,-2.9947,-2.9947,-2.9705,-2.9402,-2.9402,-2.9103,-2.8803,-2.895,-2.8227,0.0,-2.7512,-2.6421,-2.5172,-2.5172,-2.4695,-2.419,-2.419,-2.419,-2.419,-2.419,-2.3927,-2.3682,-2.3628,-2.3117,-2.2682,-2.2621,-2.2436,-2.2296,-2.2296,-2.2296,-2.2296,-2.2296,-2.2296,-2.2296,-2.2296,-2.2296,-2.2296,-2.2296,-2.2161,-2.1887,-2.1444,-2.114,-2.097,-2.097,-2.1549,-2.1924,-2.209,-2.209,-2.2175,-2.2296,-2.2296,-2.2296,-2.2279,-2.1854,-2.1803,0.0,0.0,0.0,0.0,0.0,0.0,0.0,0.0,0.0,0.0,0.0,-2.6367,0.0,0.0,-3.0527,-3.1367,-3.2578,-3.3418,-3.3457,-3.418,-3.4863,-3.5293,-3.5617,-3.5942,-3.631,-3.7383,-3.8221,-3.8611,-3.9804,-4.0496,-4.0496,-4.0112,-4.0073,-4.0496,-4.0112,-4.0092,-4.0496,-4.0496,-4.0073,-3.9238,-3.8392,-3.7565,-3.6719,-3.5885,-3.55,-3.55,-3.55,-3.525,-3.4776,-3.391,-3.3295,-3.2776,-3.1519,-3.1058,-3.1,-3.0558,-3.0311,-3.0202,-3.0202,-2.9912,-2.9542,-2.9542,-2.9312,-2.9005,-2.9005,-2.8436,-2.7798,-2.7798,-2.6641,-2.5393,-2.5393,-2.4805,-2.419,-2.419,-2.419,-2.419,-2.419,-2.4074,-2.3907,-2.3724,-2.3426,-2.3141,-2.2984,-2.2704,-2.245,-2.2307,-2.2296,-2.2296,-2.2296,-2.2296,-2.2296,-2.2296,-2.2296,-2.2296,-2.2296,-2.2296,-2.2127,-2.1769,-2.1752,-2.1752,-2.1752,-2.2093,-2.2296,-2.2296,-2.2296,-2.2296,-2.2296,-2.2296,-2.2296,-2.2296,-2.2296,-2.2296,0.0,0.0,0.0,0.0,0.0,0.0,0.0,0.0,-2.6113,-2.7695,-2.8125,-2.8887,-3.0996,-3.1523,-3.2012,-3.3203,-3.3672,-3.4023,-3.4394,-3.4746,-3.4883,-3.4726,-3.5416,-3.6114,-3.668,-3.7583,-3.839,-3.9042,-3.9991,-4.053,-4.053,-4.0519,-4.0496,-4.0496,-4.0496,-4.0496,-4.0496,-4.0496,-3.9823,-3.8469,-3.8161,-3.7296,-3.5962,-3.5654,-3.55,-3.55,-3.55,-3.55,-3.5385,-3.3795,-3.3045,-3.2756,-3.1231,-3.0981,-3.1365,-3.0654,-3.0404,-3.0404,-3.0404,-3.0099,-2.9705,-2.9705,-2.9377,-2.9005,-2.9005,-2.8436,-2.7835,-2.7989,-2.677,-2.5429,-2.5595,-2.4915,-2.419,-2.419,-2.419,-2.419,-2.419,-2.419,-2.4113,-2.3837,-2.3735,-2.361,-2.3346,-2.3021,-2.2699,-2.2412,-2.2335,-2.2296,-2.2296,-2.2296,-2.2296,-2.2296,-2.2296,-2.2296,-2.2296,-2.2296,-2.2296,-2.2296,-2.2296,-2.2296,-2.2296,-2.2296,-2.2296,-2.2296,-2.2296,-2.2296,-2.2296,-2.2296,-2.2296,-2.2296,-2.2296,-2.2296,-2.2528,-2.244,-2.3049,-2.4662,-2.5143,-2.5871,0.0,0.0,-3.0449,-3.1426,-3.2187,-3.2773,-3.3066,-3.375,-3.4082,-3.3496,-3.4707,-3.5195,-3.375,-3.4883,-3.5566,-3.4785,-3.5416,-3.5882,-3.585,-3.7327,-3.8285,-3.8322,-3.9789,-4.0674,-4.0674,-4.0566,-4.0496,-4.0496,-4.0496,-4.0496,-4.0496,-4.0496,-4.0419,-4.0208,-3.87,-3.7892,-3.7661,-3.6173,-3.55,-3.55,-3.55,-3.55,-3.5423,-3.4449,-3.3603,-3.2814,-3.191,-3.1135,-3.0538,-3.0442,-3.0404,-3.0404,-3.0404,-3.0099,-2.9705,-2.9705,-2.9377,-2.9005,-2.9005,-2.8436,-2.7952,-2.8656,-2.7181,-2.5558,-2.6282,-2.5346,-2.419,-2.419,-2.419,-2.419,-2.419,-2.419,-2.418,-2.4151,-2.3907,-2.3692,-2.366,-2.3369,-2.3033,-2.2695,-2.245,-2.2296,-2.2296,-2.2296,-2.2296,-2.2296,-2.2296,-2.2296,-2.2296,-2.2296,-2.2296,-2.2296,-2.2296,-2.2296,-2.2296,-2.2296,-2.2296,-2.2296,-2.2296,-2.2296,-2.2296,-2.2296,-2.2296,-2.2296,-2.2296,-2.2296,-2.4145,-2.4334,0.0,0.0,-2.6732,-2.7569,-2.9218,-2.9883,-3.0391,-3.1269,-3.1719,-3.2109,-3.2617,-3.3379,-3.3984,0.0,-3.5195,-3.5742,-3.5019,-3.5547,-3.5684,-3.4805,-3.5447,-3.5921,-3.5836,-3.6896,-3.778,-3.822,-3.9383,-4.0257,-4.0684,-4.0655,-4.0568,-4.0496,-4.0496,-4.0496,-4.0496,-4.0496,-4.0265,-3.9785,-3.9092,-3.8488,-3.7969,-3.675,-3.5942,-3.55,-3.55,-3.55,-3.5385,-3.4007,-3.3237,-3.2776,-3.1462,-3.0712,-3.0404,-3.0404,-3.0404,-3.0404,-3.0404,-3.0169,-2.9853,-2.9748,-2.9485,-2.9192,-2.9051,-2.8767,-2.8565,-2.8913,-2.7603,-2.6172,-2.6521,-2.5419,-2.419,-2.419,-2.419,-2.419,-2.419,-2.419,-2.419,-2.419,-2.4084,-2.3996,-2.3996,-2.3714,-2.3437,-2.3294,-2.2853,-2.249,-2.2307,-2.2296,-2.2296,-2.2296,-2.2296,-2.2296,-2.2296,-2.2296,-2.2296,-2.2296,-2.2296,-2.2296,-2.2296,-2.2296,-2.2296,-2.2296,-2.2296,-2.2296,-2.2296,-2.2296,-2.2296,-2.2296,-2.2296,-2.2296,-2.5316,0.0,0.0,-2.7291,-2.8104,-2.8842,-2.9746,-3.0137,-3.0508,-3.1133,-3.1445,-3.1777,-3.2402,-3.3008,0.0,-3.4551,-3.5234,-3.5723,-3.5976,-3.5781,-3.5508,-3.5117,-3.5391,-3.5721,-3.5901,-3.6678,-3.748,-3.826,-3.9143,-3.9953,-4.0687,-4.0701,-4.0643,-4.0504,-4.0496,-4.0496,-4.0496,-4.0496,-4.0208,-3.9631,-3.9419,-3.8977,-3.8315,-3.7219,-3.6385,-3.5827,-3.5596,-3.55,-3.5404,-3.4141,-3.3333,-3.2776,-3.1558,-3.0808,-3.0404,-3.0404,-3.0404,-3.0404,-3.0404,-3.0215,-2.9977,-2.9829,-2.9616,-2.9361,-2.9178,-2.9055,-2.9005,-2.9005,-2.7849,-2.6602,-2.6602,-2.5419,-2.419,-2.419,-2.419,-2.419,-2.419,-2.419,-2.419,-2.419,-2.419,-2.419,-2.419,-2.3996,-2.3806,-2.3714,-2.3288,-2.2878,-2.2584,-2.2467,-2.2398,-2.2398,-2.2349,-2.2296,-2.2296,-2.2296,-2.2296,-2.2296,-2.2296,-2.2296,-2.2296,-2.2296,-2.2296,-2.2296,-2.2296,-2.2296,-2.2296,-2.2296,-2.2296,-2.2296,-2.2296,-2.2296,0.0,0.0,-2.7007,-2.8867,-2.9352,-2.9639,-3.0623,-3.1504,-3.2129,-3.2168,-3.2773,-3.332,-3.3359,-3.3379,-3.3691,-3.4551,-3.4726,-3.5039,-3.5879,-3.5273,-3.5039,-3.5859,-3.5234,-3.5078,0.0,-3.6777,-3.7594,-3.8346,-3.9197,-4.0028,-4.0758,-4.0736,-4.0643,-4.0504,-4.0496,-4.0496,-4.0496,-4.0496,-4.0496,-4.0458,-3.9669,-3.9284,-3.9207,-3.7488,-3.6692,-3.6615,-3.5846,-3.55,-3.55,-3.5442,-3.4423,-3.2891,-3.2833,-3.1833,-3.0404,-3.0404,-3.0404,-3.0404,-3.0404,-3.0215,-2.9999,-2.9999,-2.9731,-2.9402,-2.9392,-2.9222,-2.9005,-2.9005,-2.7849,-2.6602,-2.6602,-2.5419,-2.419,-2.419,-2.419,-2.419,-2.419,-2.419,-2.419,-2.419,-2.419,-2.419,-2.419,-2.419,-2.4074,-2.3753,-2.3682,-2.3555,-2.323,-2.2885,-2.2682,-2.2682,-2.245,-2.2296,-2.2296,-2.2296,-2.2296,-2.2296,-2.2296,-2.2296,-2.2296,-2.2296,-2.2296,-2.2296,-2.2296,-2.2296,-2.2296,-2.2296,-2.2296,-2.2296,-2.2296,-2.2296,0.0,0.0,-2.7821,-2.9087,-2.9438,-2.9713,-3.0682,-3.1133,-3.1172,-3.0586,-3.0684,-3.0703,-3.0117,-3.0957,-3.2031,-3.2891,-3.3965,-3.5,-3.5879,-3.5742,-3.5469,-3.5176,-3.5391,0.0,0.0,0.0,0.0,-3.8434,-3.8804,-3.9535,-4.0852,-4.0902,-4.0827,-4.0649,-4.0636,-4.0582,-4.0496,-4.0496,-4.0496,-4.0496,-4.0227,-3.9823,-3.9265,-3.8084,-3.7257,-3.6654,-3.5846,-3.55,-3.5462,-3.4872,-3.4295,-3.3641,-3.2545,-3.1756,-3.1192,-3.0615,-3.0404,-3.0404,-3.0404,-3.0349,-3.0241,-3.0061,-2.9908,-2.9756,-2.9474,-2.9341,-2.9225,-2.9044,-2.7849,-2.6602,-2.6602,-2.5419,-2.419,-2.419,-2.419,-2.419,-2.419,-2.419,-2.419,-2.419,-2.419,-2.419,-2.419,-2.419,-2.4161,-2.4054,-2.366,-2.3335,-2.3212,-2.3105,-2.3033,-2.3033,-2.2751,-2.2577,-2.2577,-2.2398,-2.2296,-2.2296,-2.2296,-2.2296,-2.2296,-2.2296,-2.2296,-2.2296,-2.2296,-2.2296,-2.2296,-2.2296,-2.2296,-2.2296,-2.2296,-2.2296,-2.7332,-2.7933,-2.8629,-2.959,-2.9861,-3.0061,-3.0741,-3.0898,-3.0644,-2.9785,-2.9609,-2.9336,-2.8457,-2.9219,-3.0469,-3.1953,-3.3105,-3.4316,-3.5781,-3.5723,-3.5566,-3.5625,-3.5859,-3.6016,0.0,0.0,0.0,-3.8516,-3.8887,-3.9625,-4.0939,-4.0996,-4.0912,-4.0709,-4.0697,-4.0643,-4.0496,-4.0496,-4.0496,-4.0496,-4.0496,-4.0073,-3.9265,-3.8392,-3.7526,-3.6654,-3.5846,-3.55,-3.5462,-3.4911,-3.4468,-3.4071,-3.266,-3.1948,-3.1583,-3.0712,-3.0404,-3.0404,-3.0404,-3.0404,-3.0367,-3.0202,-3.0075,-2.9939,-2.9616,-2.9464,-2.9341,-2.9078,-2.7849,-2.6602,-2.6602,-2.5419,-2.419,-2.419,-2.419,-2.419,-2.419,-2.419,-2.419,-2.419,-2.419,-2.419,-2.419,-2.419,-2.419,-2.419,-2.3827,-2.3522,-2.3392,-2.3271,-2.3153,-2.3033,-2.2738,-2.2563,-2.2563,-2.2402,-2.2296,-2.2296,-2.2402,-2.2436,-2.2436,-2.2558,-2.2571,-2.2453,-2.2436,-2.2402,-2.2296,-2.2296,-2.2296,-2.2296,-2.2296,-2.2296,-2.8665,-2.9127,-2.9408,-3.037,-3.0603,-3.0643,-3.0857,-3.0879,-3.0586,-2.9707,-2.9492,-2.9199,0.0,0.0,-2.9141,-3.1719,-3.2207,-3.3144,-3.5703,-3.5351,-3.5469,0.0,0.0,0.0,0.0,0.0,0.0,-3.8672,0.0,-4.0212,-4.0963,-4.1019,-4.0922,-4.0713,-4.0721,-4.0649,-4.0527,-4.0519,-4.0504,-4.0496,-4.0458,-4.0035,-3.9265,-3.8354,-3.7488,-3.6654,-3.5846,-3.55,-3.55,-3.55,-3.4988,-3.4109,-3.3237,-3.241,-3.1583,-3.0712,-3.0404,-3.0404,-3.0404,-3.0404,-3.0404,-3.0404,-3.0241,-2.9977,-2.9773,-2.9561,-2.9343,-2.9023,-2.7813,-2.6583,-2.6557,-2.5383,-2.419,-2.419,-2.419,-2.419,-2.419,-2.419,-2.419,-2.419,-2.419,-2.419,-2.419,-2.419,-2.419,-2.419,-2.419,-2.4084,-2.3774,-2.3448,-2.3129,-2.281,-2.2527,-2.2363,-2.2363,-2.2349,-2.2349,-2.2349,-2.259,-2.2733,-2.2733,-2.3021,-2.3021,-2.2708,-2.2682,-2.255,-2.2296,-2.2296,-2.2296,-2.2296,-2.2296,-2.2296,-2.8819,-2.9563,-3.015,-3.0503,-3.0603,-3.0643,-3.0857,-3.0391,-2.9687,-2.8809,-2.8105,-2.7402,-2.6523,0.0,0.0,-3.0918,-3.2285,0.0,-3.6601,-3.6777,0.0,-3.8144,0.0,-3.8105,-3.8555,-3.9199,0.0,0.0,-3.9766,-4.0273,-4.1091,-4.115,-4.1077,-4.0928,-4.0925,-4.0863,-4.0714,-4.0659,-4.0596,-4.0496,-3.99,-3.9496,-3.9246,-3.7738,-3.6904,-3.6654,-3.5846,-3.55,-3.55,-3.55,-3.4988,-3.4109,-3.3237,-3.241,-3.1583,-3.0712,-3.0404,-3.0404,-3.0404,-3.0404,-3.0404,-3.0404,-3.0355,-3.0228,-2.9823,-2.9661,-2.9411,-2.8389,-2.7383,-2.6465,-2.587,-2.497,-2.419,-2.419,-2.419,-2.419,-2.419,-2.419,-2.419,-2.419,-2.419,-2.419,-2.419,-2.419,-2.419,-2.419,-2.419,-2.417,-2.4084,-2.3996,-2.3907,-2.3827,-2.354,-2.3341,-2.3341,-2.3117,-2.2982,-2.2982,-2.3021,-2.3081,-2.3081,-2.2923,-2.2784,-2.2708,-2.25,-2.236,-2.2296,-2.2296,-2.2296,-2.2296,-2.2296,-2.2296,-2.9448,-3.0019,-3.0439,-3.0561,-3.0603,-3.0543,-3.0368,-2.9941,-2.9238,-2.7988,-2.7344,0.0,-2.5859,0.0,0.0,0.0,0.0,0.0,-3.6309,-3.7051,-3.7773,0.0,-3.918,0.0,-3.9707,-4.0176,-4.0469,0.0,-4.0469,-4.0684,-4.1172,-4.1191,-4.1149,-4.0998,-4.0996,-4.0947,-4.0801,-4.0736,-4.0655,-4.0582,-3.9706,-3.9111,-3.8681,-3.7315,-3.65,-3.6154,0.0,-3.55,-3.55,-3.55,-3.4988,-3.4109,-3.3237,-3.241,-3.1583,-3.0712,-3.0404,-3.0404,-3.0404,-3.0404,-3.0404,-3.0404,-3.0404,-3.0305,-2.984,-2.9705,-2.9513,-2.8595,-2.775,-2.6943,-2.6135,-2.5338,-2.464,-2.4281,-2.419,-2.419,-2.419,-2.419,-2.419,-2.419,-2.419,-2.419,-2.419,-2.419,-2.419,-2.419,-2.419,-2.419,-2.419,-2.4074,-2.3917,-2.3785,-2.3588,-2.3488,-2.3488,-2.3311,-2.32,-2.32,-2.3346,-2.3357,-2.32,-2.3153,-2.3009,-2.2708,-2.255,-2.2412,-2.2296,-2.2296,-2.2296,-2.2296,-2.2296,-2.2296,-3.0154,-3.0404,-3.0439,-3.0561,-3.0505,-3.029,-2.9724,-2.9414,-2.8828,-2.7305,0.0,-2.6602,-2.584,-2.5781,-2.6699,-2.9199,0.0,-3.2129,-3.5684,-3.6816,-3.7988,-3.9844,-4.0078,-4.0371,-4.1133,-4.1191,-4.1191,-4.1191,-4.1191,-4.1191,-4.1191,-4.1191,-4.1149,-4.1026,-4.1025,-4.0959,-4.0839,-4.0742,-4.0721,-4.0697,-3.9622,-3.8719,-3.7969,-3.6988,-3.6154,-3.55,0.0,0.0,-3.55,-3.55,-3.493,-3.3955,-3.3199,-3.2333,-3.1448,-3.0673,-3.0404,-3.0404,-3.0404,-3.0404,-3.0404,-3.0404,-3.0404,-3.0305,-2.984,-2.9705,-2.9588,-2.9008,-2.8264,-2.7457,-2.6649,-2.5841,-2.5062,-2.4373,-2.419,-2.419,-2.419,-2.419,-2.419,-2.419,-2.419,-2.419,-2.419,-2.419,-2.419,-2.419,-2.419,-2.419,-2.419,-2.3955,-2.3642,-2.3369,-2.3335,-2.3335,-2.3335,-2.3335,-2.3335,-2.3335,-2.3617,-2.3649,-2.3346,-2.3566,-2.3426,-2.2848,-2.2746,-2.2586,-2.2346,-2.2324,-2.2296,-2.2296,-2.2296,-2.2296,-3.0154,-3.0404,-3.0439,-3.0561,-3.0055,-2.9545,-2.9587,-2.8496,0.0,0.0,0.0,-2.5879,-2.5723,-2.6289,0.0,-2.9297,0.0,0.0,0.0,0.0,-3.8203,0.0,0.0,0.0,0.0,0.0,0.0,0.0,0.0,0.0,-4.1191,-4.1191,-4.1191,-4.1171,-4.1171,-4.1103,-4.0962,-4.0843,-4.0757,-4.0678,-3.9024,-3.8142,-3.795,-3.6404,-3.5635,-3.55,0.0,0.0,-3.55,-3.55,-3.4558,-3.3103,-3.2968,-3.1968,-3.0615,-3.0462,-3.0404,-3.0404,-3.0404,-3.0404,-3.0404,-3.0404,-3.0404,-3.0305,-2.984,-2.9705,-2.9456,-2.8318,-2.7438,-2.6631,-2.5815,-2.5007,-2.4373,-2.4226,-2.419,-2.419,-2.419,-2.419,-2.419,-2.419,-2.419,-2.419,-2.419,-2.419,-2.419,-2.419,-2.419,-2.419,-2.419,-2.4151,-2.4094,-2.4026,-2.4026,-2.4026,-2.4026,-2.4026,-2.4026,-2.4026,-2.4084,-2.4084,-2.4026,-2.3816,-2.3649,-2.3533,-2.2984,-2.2669,-2.2621,-2.2398,-2.2296,-2.2296,-2.2296,-2.2296,-3.0154,-3.0422,-3.0472,-3.0571,-3.0007,-2.931,-2.9002,0.0,0.0,0.0,0.0,-2.5703,-2.5703,0.0,0.0,0.0,0.0,0.0,0.0,0.0,0.0,0.0,0.0,0.0,0.0,0.0,0.0,0.0,0.0,0.0,0.0,-4.1191,-4.1191,-4.1191,-4.1191,-4.1148,-4.0996,-4.0867,-4.0781,-4.0678,-3.887,-3.8007,-3.795,-3.625,-3.55,-3.55,0.0,0.0,-3.5462,-3.5007,-3.4064,-3.2852,-3.2449,-3.15,-3.0404,-3.0404,-3.0404,-3.0404,-3.0404,-3.0404,-3.0404,-3.0404,-3.0404,-3.0336,-2.9973,-2.9861,-2.972,-2.8998,-2.8439,-2.7771,-2.6514,-2.5815,-2.5236,-2.4392,-2.419,-2.419,-2.419,-2.419,-2.419,-2.419,-2.419,-2.419,-2.419,-2.419,-2.419,-2.419,-2.419,-2.419,-2.419,-2.419,-2.419,-2.419,-2.419,-2.419,-2.419,-2.419,-2.419,-2.419,-2.419,-2.4113,-2.3955,-2.3785,-2.3628,-2.3437,-2.3129,-2.2855,-2.2708,-2.2577,-2.244,-2.2296,-2.2296,-2.2296,-2.9948,-3.0307,-3.0528,-3.0584,-2.9914,-2.9062,-2.8437,-2.748,0.0,0.0,-2.5703,-2.5703,-2.5703,0.0,0.0,0.0,0.0,0.0,0.0,0.0,0.0,0.0,0.0,0.0,0.0,0.0,0.0,0.0,0.0,0.0,0.0,-4.1191,-4.1191,-4.1191,-4.1191,-4.1148,-4.0996,-4.0867,-4.0664,-4.0407,-3.8773,-3.7892,-3.768,-3.6173,-3.55,-3.55,0.0,0.0,0.0,-3.4564,-3.3686,-3.2814,-3.2006,-3.1173,-3.0404,-3.0404,-3.0404,-3.0404,-3.0404,-3.0404,-3.0404,-3.0404,-3.0404,-3.0355,-3.0082,-3.0006,-2.9962,-2.9765,-2.9326,-2.8633,-2.7306,-2.6553,-2.5811,-2.4521,-2.419,-2.419,-2.419,-2.419,-2.419,-2.419,-2.419,-2.419,-2.419,-2.419,-2.419,-2.419,-2.419,-2.419,-2.419,-2.419,-2.419,-2.419,-2.419,-2.419,-2.419,-2.419,-2.419,-2.419,-2.419,-2.4084,-2.3816,-2.3806,-2.3682,-2.3414,-2.3271,-2.3069,-2.281,-2.2673,-2.2514,-2.2296,-2.2296,-2.2296,-2.9204,-2.9849,-3.0528,-3.0584,-2.9444,-2.8319,-2.83,0.0,0.0,-2.5723,-2.5703,-2.5703,-2.5703,-2.5703,0.0,0.0,0.0,0.0,0.0,0.0,0.0,0.0,0.0,0.0,0.0,0.0,0.0,0.0,0.0,0.0,0.0,-4.1191,-4.1191,-4.1191,-4.1191,-4.1148,-4.0996,-4.0867,-4.0377,-3.9508,-3.8491,-3.7584,-3.6788,-3.5904,-3.55,-3.55,0.0,0.0,0.0,-3.4564,-3.3686,-3.2814,-3.2006,-3.1173,-3.0404,-3.0404,-3.0404,-3.0404,-3.0404,-3.0404,-3.0404,-3.0404,-3.0404,-3.0355,-3.0082,-3.0006,-2.9962,-2.9765,-2.8594,-2.738,-2.721,-2.5945,-2.4622,-2.4284,-2.419,-2.419,-2.419,-2.419,-2.419,-2.419,-2.419,-2.419,-2.419,-2.419,-2.419,-2.419,-2.419,-2.419,-2.419,-2.419,-2.419,-2.419,-2.419,-2.419,-2.419,-2.419,-2.419,-2.419,-2.419,-2.418,-2.4161,-2.4161,-2.4141,-2.4103,-2.3511,-2.3177,-2.3153,-2.2594,-2.2321,-2.2296,-2.2296,-2.2296,-2.8883,-2.9493,-2.9978,-3.0516,-2.9449,-2.8278,-2.8281,0.0,-2.5703,-2.5703,-2.5703,-2.5703,-2.5703,-2.5703,-2.5801,0.0,-2.6504,-2.7578,0.0,0.0,0.0,0.0,0.0,0.0,0.0,0.0,0.0,0.0,0.0,0.0,0.0,0.0,-4.0957,-4.043,-4.0937,-4.0875,-4.0214,-4.015,-3.9894,-3.9378,-3.8007,-3.7109,-3.6673,-3.5865,-3.55,0.0,0.0,0.0,0.0,-3.3987,-3.3218,-3.2776,-3.1442,-3.0712,-3.0404,-3.0404,-3.0404,-3.0404,-3.0404,-3.0404,-3.0308,-2.9794,-2.9967,-3.0373,-3.0267,-3.0248,-3.0215,-3.0142,-2.9184,-2.8051,-2.7571,-2.6068,-2.4623,-2.4436,-2.4384,-2.4339,-2.4228,-2.419,-2.419,-2.419,-2.419,-2.419,-2.419,-2.419,-2.419,-2.419,-2.419,-2.419,-2.419,-2.419,-2.419,-2.419,-2.419,-2.419,-2.419,-2.419,-2.419,-2.419,-2.419,-2.419,-2.419,-2.419,-2.419,-2.419,-2.3937,-2.3703,-2.3511,-2.3259,-2.295,-2.2537,-2.2537,-2.245,-2.8175,-2.8948,-2.9522,-2.9868,-2.9114,-2.8223,0.0,0.0,-2.5703,-2.5703,-2.5703,-2.5703,-2.5703,-2.5703,-2.5703,0.0,-2.5918,-2.6699,-2.8437,0.0,0.0,0.0,0.0,0.0,0.0,0.0,0.0,0.0,0.0,0.0,0.0,0.0,-4.0527,-3.9922,-4.0254,-4.0074,-3.9314,-3.9314,-3.9104,-3.8675,-3.7487,-3.6732,-3.637,-3.5791,-3.5515,0.0,0.0,0.0,0.0,-3.3506,-3.2756,-3.241,-3.0962,-3.0404,-3.0404,-3.0404,-3.0404,-3.0404,-3.0404,-3.0404,-3.0308,-2.9679,-2.991,-3.0404,-3.0404,-3.0404,-3.0404,-3.0404,-2.95,-2.8268,-2.7128,-2.5822,-2.4753,-2.4553,-2.4452,-2.4375,-2.4228,-2.419,-2.419,-2.419,-2.419,-2.419,-2.419,-2.419,-2.419,-2.419,-2.419,-2.419,-2.419,-2.419,-2.419,-2.419,-2.419,-2.419,-2.419,-2.419,-2.419,-2.419,-2.419,-2.419,-2.419,-2.419,-2.419,-2.419,-2.4103,-2.3927,-2.3703,-2.3599,-2.3247,-2.2708,-2.2708,-2.2563,-2.6815,-2.8136,-2.9287,-2.8447,-2.8254,-2.8066,0.0,-2.6328,-2.5703,-2.5703,-2.5703,-2.5703,-2.5703,-2.5703,-2.5703,-2.5703,-2.6426,-2.7598,-2.9336,0.0,0.0,0.0,0.0,0.0,0.0,0.0,0.0,0.0,0.0,0.0,0.0,0.0,-3.9902,-3.9902,-3.9062,-3.855,-3.8415,-3.8415,-3.7956,-3.7019,-3.7012,-3.6513,-3.5605,-3.5605,0.0,0.0,0.0,0.0,0.0,-3.3256,-3.2429,-3.1641,-3.0731,-3.0404,-3.0404,-3.0404,-3.0404,-3.0404,-3.0404,-3.0404,-3.0404,-3.0385,-3.0385,-3.0404,-3.0404,-3.0404,-3.0404,-3.0404,-2.9192,-2.7459,-2.5529,-2.4904,-2.4753,-2.4553,-2.4339,-2.4199,-2.419,-2.419,-2.419,-2.419,-2.419,-2.419,-2.419,-2.419,-2.419,-2.419,-2.419,-2.419,-2.419,-2.419,-2.419,-2.419,-2.419,-2.419,-2.419,-2.419,-2.419,-2.419,-2.419,-2.419,-2.419,-2.419,-2.419,-2.419,-2.3858,-2.3703,-2.3692,-2.3369,-2.3033,-2.2708,-2.2708,-2.2563,-2.6421,-2.7171,-2.7735,-2.8115,-2.7806,-2.7344,-2.7051,-2.6328,-2.5703,-2.5703,-2.5703,-2.5703,-2.5703,-2.5703,-2.5898,-2.6484,-2.6816,0.0,0.0,0.0,0.0,0.0,0.0,0.0,0.0,0.0,0.0,0.0,0.0,0.0,0.0,0.0,0.0,-3.8125,-3.8437,-3.8281,-3.7652,-3.7652,-3.7484,-3.7125,-3.6538,-3.6033,-3.5679,0.0,0.0,0.0,0.0,0.0,0.0,-3.266,-3.1929,-3.1621,-3.0731,-3.0404,-3.0404,-3.0404,-3.0404,-3.0404,-3.0404,-3.0404,-3.0308,-2.9717,-2.9506,-2.941,-2.8852,-2.9083,-2.9275,-2.814,-2.7428,-2.6726,-2.5526,-2.5176,-2.5084,-2.4885,-2.4715,-2.4567,-2.4426,-2.4294,-2.419,-2.419,-2.419,-2.419,-2.419,-2.419,-2.419,-2.419,-2.419,-2.419,-2.419,-2.419,-2.419,-2.419,-2.419,-2.419,-2.419,-2.419,-2.419,-2.419,-2.419,-2.419,-2.419,-2.419,-2.419,-2.419,-2.4094,-2.4036,-2.4036,-2.3703,-2.3247,-2.2695,-2.2514,-2.2374,0.0,-2.6069,-2.6457,-2.7094,-2.7103,-2.6873,-2.6582,-2.6094,-2.5703,-2.5703,-2.5703,-2.5703,-2.5703,-2.5703,-2.5879,-2.6426,-2.6504,0.0,0.0,0.0,0.0,0.0,0.0,0.0,0.0,0.0,0.0,0.0,0.0,0.0,0.0,0.0,0.0,-3.6816,-3.7344,-3.7363,-3.6816,-3.6816,-3.6795,-3.6744,-3.6197,-3.5885,-3.5789,0.0,0.0,0.0,0.0,0.0,0.0,-3.2146,-3.1506,-3.1154,-3.0615,-3.0404,-3.0404,-3.0404,-3.0404,-3.0404,-3.0404,-3.0404,-3.0308,-2.9775,-2.9377,-2.8896,-2.7755,-2.7992,-2.8357,-2.6986,-2.6601,-2.6409,-2.5538,-2.5234,-2.5157,-2.5028,-2.4897,-2.4768,-2.4639,-2.452,-2.441,-2.4339,-2.4375,-2.4375,-2.4228,-2.4257,-2.4284,-2.4209,-2.419,-2.419,-2.419,-2.419,-2.419,-2.419,-2.419,-2.419,-2.419,-2.419,-2.419,-2.419,-2.419,-2.419,-2.419,-2.419,-2.419,-2.419,-2.419,-2.419,-2.419,-2.3858,-2.3488,-2.3069,-2.2643,-2.245,0.0,-2.4766,-2.5373,-2.5622,-2.6205,-2.6547,-2.5859,-2.5703,0.0,-2.5703,-2.5703,-2.5703,-2.5703,-2.5703,-2.5723,-2.5781,0.0,0.0,0.0,0.0,0.0,0.0,0.0,0.0,0.0,0.0,0.0,0.0,0.0,0.0,0.0,0.0,0.0,0.0,-3.5996,-3.5996,-3.5996,-3.5996,-3.5996,-3.5996,-3.5996,-3.5934,-3.5809,0.0,0.0,0.0,0.0,0.0,0.0,-3.167,-3.1145,-3.0402,-3.0402,-3.0396,-3.0404,-3.0404,-3.0404,-3.0404,-3.0404,-3.0404,-3.0385,-3.0269,-2.9679,-2.8703,-2.7024,-2.7121,-2.7621,-2.6755,-2.6505,-2.6327,-2.5519,-2.5157,-2.5022,-2.5022,-2.4917,-2.4799,-2.4799,-2.4811,-2.4746,-2.4569,-2.467,-2.4678,-2.4284,-2.4375,-2.4426,-2.4228,-2.419,-2.419,-2.419,-2.419,-2.419,-2.419,-2.419,-2.419,-2.419,-2.419,-2.419,-2.419,-2.419,-2.419,-2.419,-2.419,-2.419,-2.419,-2.419,-2.418,-2.4161,-2.3847,-2.3692,-2.366,-2.3033,-2.2733,-2.2187,0.0,-2.3916,-2.5271,-2.5297,-2.5105,0.0,-2.5703,-2.5703,-2.5703,0.0,-2.5703,-2.5703,-2.5703,-2.5918,0.0,0.0,0.0,0.0,0.0,0.0,0.0,0.0,0.0,0.0,0.0,0.0,0.0,0.0,0.0,0.0,0.0,0.0,0.0,-3.5996,-3.5996,-3.5996,-3.5996,-3.5996,-3.5996,-3.5996,-3.5644,0.0,0.0,0.0,0.0,0.0,0.0,0.0,-3.113,-3.0707,-3.0477,-3.0477,-3.0451,-3.0404,-3.0404,-3.0404,-3.0404,-3.0404,-3.0404,-3.0192,-2.8909,-2.8352,-2.7852,-2.6135,-2.6212,-2.6717,-2.5846,-2.5615,-2.5558,-2.5346,-2.5264,-2.5224,-2.5224,-2.5101,-2.4949,-2.4949,-2.4864,-2.479,-2.4738,-2.4768,-2.4723,-2.4469,-2.4469,-2.4426,-2.4228,-2.419,-2.419,-2.419,-2.419,-2.419,-2.419,-2.419,-2.419,-2.419,-2.419,-2.419,-2.419,-2.419,-2.419,-2.419,-2.419,-2.419,-2.419,-2.419,-2.4074,-2.3816,-2.3735,-2.3566,-2.3305,-2.3153,-2.3081,-2.1617,-2.2395,-2.3295,-2.4709,-2.4977,-2.5048,-2.5585,-2.5703,0.0,0.0,0.0,-2.5703,-2.5703,-2.5703,0.0,0.0,0.0,0.0,0.0,0.0,0.0,0.0,0.0,0.0,0.0,0.0,0.0,0.0,0.0,0.0,0.0,0.0,0.0,0.0,0.0,-3.5195,-3.5996,-3.5996,-3.5801,-3.5391,-3.5391,-3.4941,0.0,0.0,0.0,0.0,0.0,0.0,-3.131,-3.0812,-3.0578,-3.0548,-3.0501,-3.0477,-3.0441,-3.0414,-3.0404,-3.0404,-3.0404,-3.0404,-3.0115,-2.8448,-2.7895,-2.7563,-2.5827,-2.5635,-2.5904,-2.5423,-2.5308,-2.5308,-2.5308,-2.5308,-2.5308,-2.5308,-2.5214,-2.5146,-2.5146,-2.5078,-2.5,-2.4904,-2.4968,-2.4942,-2.4685,-2.4697,-2.467,-2.4512,-2.4401,-2.4348,-2.4348,-2.4266,-2.419,-2.419,-2.419,-2.419,-2.419,-2.419,-2.419,-2.419,-2.419,-2.419,-2.419,-2.419,-2.419,-2.419,-2.419,-2.4103,-2.3927,-2.3927,-2.3764,-2.3426,-2.3259,-2.3117,-2.1588,-2.2358,-2.3146,-2.4152,-2.4855,-2.5385,-2.5642,0.0,0.0,0.0,0.0,0.0,0.0,0.0,0.0,0.0,0.0,0.0,0.0,0.0,0.0,0.0,0.0,0.0,0.0,0.0,0.0,0.0,0.0,0.0,0.0,0.0,0.0,0.0,0.0,0.0,-3.5586,-3.5605,-3.5234,-3.4492,-3.4492,-3.4043,-3.3223,0.0,0.0,0.0,0.0,0.0,-3.0739,-3.0678,-3.063,-3.0617,-3.0544,-3.0521,-3.0511,-3.0436,-3.0323,-3.0227,-3.0204,-3.0192,-2.9942,-2.839,-2.7818,-2.739,-2.5788,-2.5308,-2.5308,-2.5308,-2.5308,-2.5308,-2.5308,-2.5308,-2.5308,-2.5308,-2.5308,-2.5308,-2.5308,-2.5308,-2.5253,-2.5082,-2.5173,-2.5212,-2.4883,-2.491,-2.4911,-2.4782,-2.4575,-2.4452,-2.4452,-2.4312,-2.419,-2.419,-2.419,-2.419,-2.419,-2.419,-2.419,-2.419,-2.419,-2.419,-2.419,-2.419,-2.419,-2.419,-2.419,-2.419,-2.419,-2.419,-2.4046,-2.3774,-2.3471,-2.32,-2.1584,-2.2378,-2.3208,-2.4158,-2.4433,-2.4709,-2.5506,0.0,0.0,0.0,0.0,0.0,0.0,0.0,0.0,0.0,0.0,0.0,0.0,0.0,0.0,0.0,0.0,0.0,0.0,0.0,0.0,0.0,0.0,0.0,0.0,0.0,0.0,0.0,0.0,0.0,0.0,-3.3809,-3.373,-3.3594,-3.3594,-3.3164,-3.2383,-3.2383,0.0,0.0,0.0,0.0,-3.0878,-3.0857,-3.0789,-3.0684,-3.0677,-3.0624,-3.0575,-3.0516,-3.0027,-2.9375,-2.9324,-2.93,-2.9146,-2.8203,-2.739,-2.6621,-2.5596,-2.5308,-2.5308,-2.5308,-2.5308,-2.5308,-2.5308,-2.5308,-2.5308,-2.5308,-2.5308,-2.5308,-2.5308,-2.5308,-2.5284,-2.5264,-2.5274,-2.5219,-2.4998,-2.4891,-2.4775,-2.4567,-2.4375,-2.4256,-2.4256,-2.4218,-2.419,-2.419,-2.419,-2.419,-2.419,-2.419,-2.419,-2.419,-2.419,-2.419,-2.419,-2.419,-2.419,-2.419,-2.419,-2.419,-2.419,-2.419,-2.417,-2.4113,-2.4074,-2.4016,-2.0961,-2.1994,-2.3082,-2.3487,-2.4607,-2.5729,-2.6183,0.0,0.0,0.0,0.0,0.0,0.0,0.0,0.0,0.0,0.0,0.0,0.0,0.0,0.0,0.0,0.0,0.0,0.0,0.0,0.0,0.0,0.0,0.0,0.0,0.0,0.0,0.0,0.0,0.0,0.0,-3.2051,-3.2285,-3.2754,-3.2754,-3.2305,-3.1504,-3.1504,-3.1289,0.0,0.0,-3.0898,-3.0898,-3.0898,-3.0585,-3.0149,-3.0547,-3.0134,-2.9342,-2.9716,-2.9579,-2.9201,-2.9163,-2.8844,-2.8319,-2.7467,-2.6928,-2.6447,-2.5558,-2.5308,-2.5308,-2.5308,-2.5308,-2.5308,-2.5308,-2.5308,-2.5308,-2.5308,-2.5308,-2.5308,-2.5308,-2.5308,-2.5308,-2.5308,-2.5308,-2.5269,-2.5173,-2.5101,-2.5031,-2.4949,-2.4766,-2.4629,-2.4629,-2.4476,-2.4357,-2.4357,-2.4257,-2.419,-2.419,-2.419,-2.419,-2.419,-2.419,-2.419,-2.419,-2.419,-2.419,-2.419,-2.419,-2.419,-2.419,-2.419,-2.4103,-2.3927,-2.3927,-2.3827,-2.0683,-2.1675,-2.2716,-2.2846,0.0,-2.6237,-2.6704,-2.6684,0.0,0.0,0.0,0.0,0.0,0.0,0.0,0.0,0.0,0.0,0.0,0.0,0.0,0.0,0.0,0.0,0.0,0.0,0.0,0.0,0.0,0.0,0.0,0.0,0.0,0.0,0.0,0.0,0.0,-3.0898,-3.123,-3.1894,-3.1894,-3.1543,-3.0898,-3.0898,-3.0898,-3.0898,-3.0898,-3.0781,-3.0605,-3.0605,-3.0078,-2.9375,-3.0147,-2.9646,-2.8522,-2.8675,-2.8825,-2.8904,-2.8714,-2.8195,-2.7513,-2.6839,-2.6468,-2.6173,-2.55,-2.5308,-2.5308,-2.5308,-2.5308,-2.5308,-2.5308,-2.5308,-2.5308,-2.5308,-2.5308,-2.5308,-2.5308,-2.5308,-2.5308,-2.5308,-2.5308,-2.5308,-2.5308,-2.5264,-2.5224,-2.5224,-2.5065,-2.4949,-2.4949,-2.4723,-2.4559,-2.4559,-2.4426,-2.433,-2.4266,-2.4321,-2.4303,-2.4218,-2.419,-2.419,-2.419,-2.419,-2.419,-2.419,-2.419,-2.419,-2.419,-2.419,-2.4074,-2.3816,-2.3816,-2.3682,-2.1411,-2.1643,-2.1881,-2.2623,-2.3605,0.0,-2.6435,-2.6186,0.0,-2.7676,0.0,0.0,0.0,0.0,0.0,0.0,0.0,0.0,0.0,0.0,0.0,0.0,0.0,0.0,0.0,0.0,0.0,0.0,0.0,0.0,0.0,0.0,0.0,0.0,0.0,0.0,0.0,0.0,-3.0937,-3.0996,-3.0996,-3.0957,-3.0898,-3.0898,-3.0898,-3.0898,-3.0898,-3.0449,-2.9687,-2.9687,-2.918,-2.8476,-2.9336,-2.9565,-2.9228,-2.7648,-2.7535,-2.8067,-2.7257,-2.6896,-2.6776,-2.6699,-2.6094,-2.5385,-2.5327,-2.5308,-2.5308,-2.5308,-2.5308,-2.5308,-2.5308,-2.5308,-2.5308,-2.5308,-2.5308,-2.5308,-2.5308,-2.5308,-2.5308,-2.5308,-2.5308,-2.5308,-2.5308,-2.5152,-2.5022,-2.5022,-2.4897,-2.4799,-2.4799,-2.4797,-2.4782,-2.4782,-2.4768,-2.4678,-2.4495,-2.4647,-2.4591,-2.4218,-2.419,-2.419,-2.419,-2.419,-2.419,-2.419,-2.419,-2.419,-2.419,-2.419,-2.418,-2.4161,-2.4161,-2.4151,-2.0837,-2.167,-2.2513,-2.2739,-2.3467,0.0,0.0,-2.6862,-2.7387,-2.8539,0.0,0.0,0.0,0.0,0.0,0.0,0.0,0.0,0.0,0.0,0.0,0.0,0.0,0.0,0.0,0.0,0.0,0.0,0.0,0.0,0.0,0.0,0.0,0.0,0.0,0.0,0.0,0.0,-3.0898,-3.0898,-3.0898,-3.0898,-3.0898,-3.0898,-3.0605,-3.0098,-3.0098,-2.9609,-2.8789,-2.8789,-2.8281,-2.7461,-2.7266,-2.7812,-2.8609,-2.7418,-2.7131,-2.731,-2.6981,-2.6459,-2.5951,-2.5951,-2.5698,-2.5359,-2.5367,-2.5335,-2.5308,-2.5308,-2.5308,-2.5308,-2.5308,-2.5308,-2.5308,-2.5308,-2.5308,-2.5308,-2.5308,-2.5308,-2.5308,-2.5308,-2.5308,-2.5308,-2.5308,-2.5248,-2.5198,-2.5198,-2.5149,-2.5115,-2.5115,-2.4993,-2.4911,-2.4911,-2.4849,-2.4768,-2.4693,-2.476,-2.4678,-2.441,-2.4393,-2.4339,-2.4218,-2.419,-2.419,-2.419,-2.419,-2.419,-2.419,-2.419,-2.419,-2.419,-2.419,-2.419,-2.0839,-2.1869,-2.2932,-2.282,0.0,0.0,-2.6217,-2.7109,-2.7936,0.0,0.0,0.0,0.0,0.0,0.0,0.0,0.0,0.0,0.0,0.0,0.0,0.0,0.0,0.0,0.0,0.0,0.0,0.0,0.0,0.0,0.0,0.0,0.0,0.0,0.0,0.0,0.0,0.0,-3.0488,-3.0488,-3.0215,-3.0215,-3.0488,-3.0195,-2.9746,-2.9199,-2.9199,-2.8691,-2.7891,-2.7891,-2.7539,-2.6914,-2.6035,-2.6602,-2.7773,-2.6914,-2.6561,-2.6513,-2.6513,-2.6085,-2.5539,-2.5539,-2.5495,-2.5428,-2.5434,-2.5406,-2.5359,-2.5339,-2.533,-2.5321,-2.5317,-2.5308,-2.5308,-2.5308,-2.5308,-2.5308,-2.5308,-2.5308,-2.5308,-2.5308,-2.5308,-2.5308,-2.5308,-2.5308,-2.5308,-2.5308,-2.5308,-2.5308,-2.5308,-2.5173,-2.5094,-2.5094,-2.5018,-2.4929,-2.4876,-2.4916,-2.4849,-2.4607,-2.4636,-2.4526,-2.4209,-2.419,-2.419,-2.419,-2.419,-2.419,-2.419,-2.419,-2.419,-2.419,-2.419,-2.419,-2.1704,-2.2289,-2.2882,0.0,0.0,0.0,-2.6217,-2.6621,-2.7327,0.0,0.0,0.0,0.0,0.0,0.0,0.0,0.0,0.0,0.0,0.0,0.0,0.0,0.0,0.0,0.0,0.0,0.0,0.0,0.0,0.0,0.0,0.0,0.0,0.0,0.0,0.0,0.0,0.0,-2.959,-2.957,-2.8691,-2.873,-2.9551,-2.8691,-2.8301,-2.8281,-2.8281,-2.7793,-2.6992,-2.6992,-2.6992,-2.6894,-2.6035,-2.623,-2.6875,-2.6016,-2.5703,-2.5703,-2.5703,-2.566,-2.5602,-2.5602,-2.5556,-2.5491,-2.5491,-2.5491,-2.5498,-2.5418,-2.5394,-2.5387,-2.5327,-2.5308,-2.5308,-2.5308,-2.5308,-2.5308,-2.5308,-2.5308,-2.5308,-2.5308,-2.5308,-2.5308,-2.5308,-2.5308,-2.5308,-2.5308,-2.5308,-2.5308,-2.5308,-2.5308,-2.5308,-2.5308,-2.5308,-2.5219,-2.5022,-2.5198,-2.5154,-2.4825,-2.4911,-2.4769,-2.4228,-2.4199,-2.4199,-2.419,-2.419,-2.419,-2.419,-2.419,-2.419,-2.419,-2.419,-2.419,-2.1048,-2.1899,0.0,-2.2881,0.0,0.0,0.0,-2.7063,0.0,0.0,0.0,0.0,0.0,0.0,0.0,0.0,0.0,0.0,0.0,0.0,0.0,0.0,0.0,0.0,0.0,0.0,0.0,0.0,0.0,0.0,0.0,0.0,0.0,0.0,0.0,0.0,0.0,0.0,0.0,-2.8672,-2.7793,-2.7832,-2.8672,-2.8418,-2.7969,-2.7383,-2.7383,-2.6894,-2.6094,-2.6094,-2.6094,-2.6055,-2.5801,-2.5859,-2.6055,-2.5801,-2.5703,-2.5703,-2.5703,-2.5683,-2.5662,-2.5662,-2.5611,-2.5566,-2.5566,-2.5543,-2.5506,-2.5488,-2.546,-2.5474,-2.545,-2.5417,-2.5363,-2.5308,-2.5308,-2.5308,-2.5308,-2.5308,-2.5308,-2.5308,-2.5308,-2.5308,-2.5308,-2.5308,-2.5308,-2.5308,-2.5308,-2.5308,-2.5308,-2.5308,-2.5308,-2.5308,-2.5308,-2.5274,-2.5214,-2.5264,-2.5154,-2.4825,-2.4835,-2.4727,-2.4418,-2.4419,-2.4339,-2.4199,-2.419,-2.419,-2.419,-2.419,-2.419,-2.419,-2.419,-2.419,-2.1962,-2.2956,0.0,0.0,0.0,0.0,0.0,0.0,0.0,0.0,0.0,0.0,0.0,0.0,0.0,0.0,0.0,0.0,0.0,0.0,0.0,0.0,0.0,0.0,0.0,0.0,0.0,0.0,0.0,0.0,0.0,0.0,0.0,0.0,0.0,0.0,0.0,0.0,0.0,0.0,-2.6852,-2.6737,-2.7266,-2.7266,-2.6973,-2.6484,-2.6484,-2.6191,-2.5703,-2.5703,-2.5703,-2.5703,-2.5703,-2.5703,-2.5703,-2.5703,-2.5703,-2.5703,-2.5703,-2.5703,-2.5703,-2.5703,-2.5662,-2.5636,-2.5636,-2.5606,-2.5567,-2.5551,-2.5545,-2.5535,-2.5463,-2.5431,-2.5395,-2.5346,-2.5327,-2.5308,-2.5308,-2.5308,-2.5308,-2.5308,-2.5308,-2.5308,-2.5308,-2.5308,-2.5308,-2.5308,-2.5308,-2.5308,-2.5308,-2.5308,-2.5308,-2.5308,-2.5308,-2.5308,-2.5308,-2.5308,-2.5217,-2.5,-2.5006,-2.491,-2.4708,-2.4493,-2.4312,-2.4199,-2.419,-2.419,-2.419,-2.419,-2.419,-2.419,-2.419,-2.419,-2.3616,0.0,0.0,0.0,0.0,0.0,0.0,0.0,0.0,0.0,0.0,0.0,0.0,0.0,0.0,0.0,0.0,0.0,0.0,0.0,0.0,0.0,0.0,0.0,0.0,0.0,0.0,0.0,0.0,0.0,0.0,0.0,0.0,0.0,0.0,0.0,0.0,0.0,0.0,0.0,0.0,-2.5632,-2.5683,-2.5703,-2.5703,-2.5703,-2.5703,-2.5703,-2.5703,-2.5703,-2.5703,-2.5703,-2.5703,-2.5703,-2.5703,-2.5703,-2.5703,-2.5703,-2.5703,-2.5703,-2.5703,-2.5703,-2.5703,-2.5703,-2.5703,-2.5703,-2.5683,-2.5629,-2.5602,-2.5564,-2.5441,-2.5394,-2.5394,-2.5394,-2.5346,-2.5308,-2.5308,-2.5308,-2.5308,-2.5308,-2.5308,-2.5308,-2.5308,-2.5308,-2.5308,-2.5308,-2.5308,-2.5308,-2.5308,-2.5308,-2.5308,-2.5308,-2.5308,-2.5308,-2.5308,-2.5308,-2.5284,-2.5269,-2.5269,-2.5192,-2.4992,-2.4532,-2.4266,-2.4247,-2.4247,-2.4247,-2.4247,-2.4247,-2.4247,-2.4247,-2.4237,-2.4228,0.0,-2.3419,0.0,0.0,0.0,0.0,0.0,0.0,0.0,0.0,0.0,0.0,0.0,0.0,0.0,0.0,0.0,0.0,0.0,0.0,0.0,0.0,0.0,0.0,0.0,0.0,0.0,0.0,0.0,0.0,0.0,0.0,0.0,0.0,0.0,0.0,0.0,0.0,0.0,0.0,-2.5609,-2.5558,-2.5611,-2.5682,-2.5703,-2.5703,-2.5703,-2.5703,-2.5703,-2.5703,-2.5703,-2.5703,-2.5703,-2.5703,-2.5703,-2.5703,-2.5703,-2.5703,-2.5703,-2.5703,-2.5703,-2.5703,-2.5703,-2.5703,-2.5703,-2.5703,-2.5683,-2.5629,-2.5602,-2.5572,-2.5508,-2.5444,-2.5394,-2.5394,-2.5346,-2.5308,-2.5308,-2.5308,-2.5308,-2.5308,-2.5308,-2.5308,-2.5308,-2.5308,-2.5308,-2.5308,-2.5308,-2.5308,-2.5308,-2.5308,-2.5308,-2.5308,-2.5308,-2.5308,-2.5308,-2.5308,-2.5224,-2.5063,-2.5052,-2.5005,-2.4849,-2.4824,-2.4769,-2.467,-2.467,-2.467,-2.467,-2.467,-2.467,-2.467,-2.4512,-2.4445,0.0,0.0,0.0,0.0,0.0,0.0,0.0,0.0,0.0,0.0,0.0,0.0,0.0,0.0,0.0,0.0,0.0,0.0,0.0,0.0,0.0,0.0,0.0,0.0,0.0,0.0,0.0,0.0,0.0,0.0,0.0,0.0,0.0,0.0,0.0,0.0,-2.6037,-2.5573,-2.5383,-2.544,-2.544,-2.5496,-2.5603,-2.5662,-2.5703,-2.5703,-2.5703,-2.5703,-2.5703,-2.5703,-2.5703,-2.5703,-2.5703,-2.5703,-2.5703,-2.5703,-2.5703,-2.5703,-2.5703,-2.5703,-2.5703,-2.5703,-2.5703,-2.5703,-2.5703,-2.5703,-2.5683,-2.566,-2.5658,-2.5633,-2.5563,-2.5508,-2.5444,-2.5404,-2.5346,-2.5308,-2.5308,-2.5308,-2.5308,-2.5308,-2.5308,-2.5308,-2.5308,-2.5308,-2.5308,-2.5308,-2.5308,-2.5308,-2.5308,-2.5308,-2.5308,-2.5308,-2.5308,-2.5308,-2.5308,-2.5308,-2.5259,-2.5152,-2.5146,-2.5113,-2.5031,-2.5107,-2.5043,-2.4804,-2.4804,-2.4804,-2.4804,-2.4804,-2.4804,-2.4797,-2.4693,-2.4639,0.0,0.0,0.0,0.0,0.0,0.0,0.0,0.0,0.0,0.0,0.0,0.0,0.0,0.0,0.0,0.0,0.0,0.0,0.0,0.0,0.0,0.0,0.0,0.0,0.0,0.0,0.0,0.0,0.0,0.0,0.0,0.0,0.0,0.0,0.0,0.0,-2.5308,-2.5308,-2.5326,-2.5383,-2.5383,-2.5454,-2.5594,-2.5658,-2.5683,-2.5703,-2.5703,-2.5703,-2.5703,-2.5703,-2.5703,-2.5703,-2.5703,-2.5703,-2.5703,-2.5703,-2.5703,-2.5703,-2.5703,-2.5703,-2.5703,-2.5703,-2.5703,-2.5703,-2.5703,-2.5703,-2.5703,-2.5683,-2.5683,-2.5661,-2.5602,-2.5547,-2.5498,-2.5434,-2.5375,-2.5317,-2.5293,-2.5308,-2.5308,-2.5308,-2.5308,-2.5308,-2.5308,-2.5308,-2.5308,-2.5308,-2.5308,-2.5308,-2.5308,-2.5308,-2.5308,-2.5308,-2.5308,-2.5308,-2.5308,-2.5308,-2.5308,-2.5308,-2.5308,-2.5308,-2.5308,-2.5308,-2.5165,-2.4883,-2.4895,-2.4895,-2.4895,-2.4895,-2.4895,-2.4895,-2.4842,-2.4828,0.0,0.0,0.0,0.0,0.0,0.0,0.0,0.0,0.0,0.0,0.0,0.0,0.0,0.0,0.0,0.0,0.0,0.0,0.0,0.0,0.0,0.0,0.0,0.0,0.0,0.0,0.0,0.0,0.0,0.0,0.0,0.0,0.0,0.0,0.0,0.0,-2.5308,-2.5308,-2.5298,-2.5317,-2.5368,-2.5444,-2.5524,-2.5573,-2.5657,-2.5703,-2.5703,-2.5703,-2.5703,-2.5703,-2.5703,-2.5703,-2.5703,-2.5703,-2.5703,-2.5703,-2.5703,-2.5703,-2.5703,-2.5703,-2.5703,-2.5703,-2.5703,-2.5703,-2.5703,-2.5703,-2.5683,-2.5633,-2.5607,-2.5601,-2.5537,-2.5517,-2.5508,-2.5481,-2.5438,-2.5364,-2.5313,-2.5308,-2.5308,-2.5308,-2.5308,-2.5308,-2.5308,-2.5308,-2.5308,-2.5308,-2.5308,-2.5308,-2.5308,-2.5308,-2.5308,-2.5308,-2.5308,-2.5308,-2.5308,-2.5308,-2.5308,-2.5308,-2.5308,-2.5308,-2.5308,-2.5308,-2.5269,-2.5233,-2.5233,-2.5233,-2.5233,-2.5233,-2.5233,-2.5233,-2.5053,-2.4974,-2.0117,0.0,0.0,0.0,0.0,0.0,0.0,0.0,0.0,0.0,0.0,0.0,0.0,0.0,0.0,0.0,0.0,0.0,0.0,0.0,0.0,0.0,0.0,0.0,0.0,0.0,0.0,0.0,0.0,0.0,0.0,-2.5308,-2.5308,-2.5308,-2.5308,0.0,-2.5308,-2.5308,-2.5308,-2.5308,-2.5326,-2.5372,-2.5444,-2.5463,-2.5563,-2.5703,-2.5703,-2.5703,-2.5703,-2.5703,-2.5703,-2.5703,-2.5703,-2.5703,-2.5703,-2.5703,-2.5703,-2.5703,-2.5703,-2.5703,-2.5703,-2.5703,-2.5703,-2.5703,-2.5703,-2.5703,-2.5683,-2.5661,-2.566,-2.5658,-2.5629,-2.5573,-2.5556,-2.5556,-2.5496,-2.5453,-2.5415,-2.5346,-2.5308,-2.5308,-2.533,-2.5333,-2.5317,-2.5308,-2.5308,-2.5308,-2.5308,-2.5308,-2.5308,-2.5308,-2.5308,-2.5308,-2.5308,-2.5308,-2.5308,-2.5308,-2.5308,-2.5308,-2.5308,-2.5308,-2.5308,-2.5308,-2.5308,-2.5308,-2.5308,-2.5308,-2.5308,-2.5308,-2.5308,-2.5303,-2.5208,-2.5163,0.0,0.0,0.0,0.0,0.0,0.0,0.0,0.0,0.0,0.0,0.0,0.0,0.0,0.0,0.0,0.0,0.0,0.0,0.0,0.0,0.0,0.0,0.0,0.0,0.0,0.0,0.0,0.0,0.0,0.0,0.0,-2.5308,-2.5308,-2.5308,-2.5308,-2.5308,-2.5308,-2.5308,-2.5308,-2.5308,-2.5308,-2.5335,-2.5402,-2.5406,-2.5481,-2.5658,-2.5661,-2.5662,-2.5682,-2.5683,-2.5703,-2.5703,-2.5703,-2.5703,-2.5703,-2.5703,-2.5703,-2.5703,-2.5703,-2.5703,-2.5703,-2.5703,-2.5703,-2.5703,-2.5703,-2.5703,-2.5703,-2.5703,-2.5703,-2.5703,-2.5703,-2.5661,-2.5632,-2.5632,-2.5567,-2.5529,-2.5496,-2.5418,-2.5346,-2.5346,-2.5395,-2.5404,-2.5359,-2.5346,-2.5346,-2.5346,-2.5346,-2.5346,-2.5346,-2.5335,-2.5326,-2.5342,-2.5339,-2.5336,-2.5336,-2.5336,-2.5322,-2.5308,-2.5308,-2.5308,-2.5308,-2.5308,-2.5308,-2.5308,-2.5308,-2.5308,-2.5308,-2.5308,-2.5308,-2.5308,-2.5308,-2.5308,0.0,0.0,0.0,0.0,0.0,0.0,0.0,0.0,0.0,0.0,0.0,0.0,0.0,0.0,0.0,0.0,0.0,0.0,0.0,0.0,0.0,0.0,0.0,0.0,0.0,0.0,0.0,0.0,0.0,0.0,-2.5308,-2.5308,-2.5308,-2.5308,-2.5308,-2.5308,-2.5308,-2.5308,-2.5308,-2.5308,-2.5308,-2.5339,-2.539,-2.5402,-2.5438,-2.5505,-2.559,-2.5604,-2.5606,-2.5662,-2.5703,-2.5703,-2.5703,-2.5703,-2.5703,-2.5703,-2.5703,-2.5703,-2.5703,-2.5703,-2.5703,-2.5703,-2.5703,-2.5703,-2.5703,-2.5703,-2.5703,-2.5703,-2.5703,-2.5703,-2.5703,-2.5703,-2.5683,-2.5683,-2.5637,-2.559,-2.5505,-2.5486,-2.5481,-2.5481,-2.5484,-2.5486,-2.5481,-2.5481,-2.5481,-2.5481,-2.5481,-2.5481,-2.5481,-2.5431,-2.5427,-2.5473,-2.5434,-2.5379,-2.5391,-2.5391,-2.5367,-2.5293,-2.5308,-2.5308,-2.5308,-2.5308,-2.5308,-2.5308,-2.5308,-2.5308,-2.5308,-2.5308,-2.5308,-2.5308,-2.5308,-2.5308,0.0,0.0,0.0,0.0,0.0,0.0,0.0,0.0,0.0,0.0,0.0,0.0,0.0,0.0,0.0,0.0,0.0,0.0,0.0,0.0,0.0,0.0,0.0,0.0,0.0,0.0,0.0,0.0,0.0,0.0,-2.5308,-2.5308,-2.5308,-2.5308,-2.5308,-2.5308,-2.5308,-2.5308,-2.5308,-2.5308,-2.5308,-2.5313,-2.5339,-2.5335,-2.5357,-2.5387,-2.5441,-2.5526,-2.5602,-2.5632,-2.5661,-2.5703,-2.5658,-2.5635,-2.5635,-2.5635,-2.5635,-2.5636,-2.5683,-2.5703,-2.5703,-2.5703,-2.5703,-2.5703,-2.5703,-2.5703,-2.5703,-2.5703,-2.5703,-2.5703,-2.5703,-2.5703,-2.5703,-2.5703,-2.5683,-2.566,-2.5634,-2.5633,-2.5603,-2.5526,-2.5522,-2.5552,-2.5517,-2.5491,-2.5491,-2.5491,-2.5491,-2.5491,-2.5491,-2.5488,-2.5463,-2.5508,-2.549,-2.5454,-2.5451,-2.5451,-2.5459,-2.5428,-2.5391,-2.5383,-2.5425,-2.5387,-2.5383,-2.5425,-2.5425,-2.5383,-2.5308,-2.5308,-2.5308,-2.5308,-2.5308,-2.5308,-1.6738,0.0,0.0,0.0,0.0,0.0,0.0,0.0,0.0,0.0,0.0,0.0,0.0,0.0,0.0,0.0,0.0,0.0,0.0,0.0,0.0,0.0,0.0,0.0,0.0,0.0,0.0,0.0,0.0,0.0,-2.5308,-2.5308,-2.5308,-2.5308,-2.5308,-2.5308,-2.5308,-2.5308,-2.5308,-2.5308,-2.5308,-2.5308,-2.5308,-2.5308,-2.5308,-2.5293,-2.5352,-2.5425,-2.5539,-2.5556,-2.5598,-2.5633,-2.5573,-2.5563,-2.5563,-2.5563,-2.5563,-2.5588,-2.5637,-2.5661,-2.5662,-2.5683,-2.5703,-2.5703,-2.5703,-2.5703,-2.5703,-2.5703,-2.5703,-2.5703,-2.5703,-2.5703,-2.5703,-2.5703,-2.5703,-2.5703,-2.5703,-2.5703,-2.5662,-2.5573,-2.5603,-2.5629,-2.5569,-2.5564,-2.5564,-2.5564,-2.5564,-2.5564,-2.5564,-2.5551,-2.5547,-2.5563,-2.5551,-2.552,-2.552,-2.552,-2.5513,-2.5493,-2.5468,-2.5443,-2.5508,-2.5465,-2.5443,-2.5491,-2.5491,-2.5462,-2.5371,-2.5371,-2.535,-2.533,-2.533,-2.5327,0.0,0.0,0.0,0.0,0.0,0.0,0.0,0.0,0.0,0.0,0.0,0.0,0.0,0.0,0.0,0.0,0.0,0.0,0.0,0.0,0.0,0.0,0.0,0.0,0.0,0.0,0.0,0.0,0.0,0.0,-2.5308,-2.5308,-2.5308,-2.5308,-2.5308,-2.5308,-2.5308,-2.5308,-2.5308,-2.5308,-2.5308,-2.5308,-2.5308,-2.5308,-2.5308,-2.5308,-2.5308,-2.5335,-2.5402,-2.5477,-2.5508,-2.5491,-2.5508,-2.5508,-2.5508,-2.5508,-2.5508,-2.5517,-2.5567,-2.5599,-2.5605,-2.5662,-2.5703,-2.5703,-2.5703,-2.5703,-2.5703,-2.5703,-2.5703,-2.5703,-2.5703,-2.5703,-2.5703,-2.5703,-2.5703,-2.5703,-2.5703,-2.5703,-2.5703,-2.5703,-2.5703,-2.5703,-2.5703,-2.5703,-2.5703,-2.5703,-2.5703,-2.5703,-2.5703,-2.5637,-2.5633,-2.5683,-2.5636,-2.5603,-2.5603,-2.5603,-2.5588,-2.55,-2.5496,-2.5496,-2.5515,-2.5496,-2.5496,-2.5515,-2.5515,-2.5515,-2.5515,-2.5493,-2.5474,-2.5402,-2.5402,-2.5371,-1.5508,0.0,0.0,0.0,0.0,0.0,0.0,0.0,0.0,0.0,0.0,0.0,0.0,0.0,0.0,0.0,0.0,0.0,0.0,0.0,0.0,0.0,0.0,0.0,0.0,0.0,0.0,0.0,0.0,-2.5308,-2.5308,-2.5308,-2.5308,-2.5308,-2.5308,-2.5308,-2.5308,-2.5308,-2.5308,-2.5308,-2.5308,-2.5308,-2.5308,-2.5308,-2.5308,-2.5308,-2.5308,-2.5308,-2.533,-2.5409,-2.5465,-2.5506,-2.5453,-2.5425,-2.5421,-2.5428,-2.5428,-2.5441,-2.5496,-2.5535,-2.5537,-2.5552,-2.5595,-2.5633,-2.5633,-2.5661,-2.5703,-2.5703,-2.5703,-2.5703,-2.5703,-2.5703,-2.5703,-2.5703,-2.5703,-2.5703,-2.5703,-2.5703,-2.5703,-2.5703,-2.5703,-2.5703,-2.5703,-2.5703,-2.5703,-2.5703,-2.5703,-2.5703,-2.5703,-2.5683,-2.5683,-2.5703,-2.5683,-2.5662,-2.5662,-2.5662,-2.5661,-2.5657,-2.5601,-2.5598,-2.5636,-2.5601,-2.5599,-2.5637,-2.5637,-2.5637,-2.5637,-2.5551,-2.5481,-2.546,-2.546,-2.5468,0.0,0.0,0.0,0.0,0.0,0.0,0.0,0.0,0.0,0.0,0.0,0.0,0.0,0.0,0.0,0.0,0.0,0.0,0.0,0.0,0.0,0.0,0.0,0.0,0.0,0.0,0.0,0.0,-2.4981,-2.4793,-2.4793,-2.4793,-2.4947,-2.5288,-2.5308,-2.5308,-2.5308,-2.5308,-2.5308,-2.5308,-2.5308,-2.5308,-2.5308,-2.5308,-2.5308,-2.5308,-2.5308,-2.5308,-2.5293,-2.5333,-2.5379,-2.5404,-2.5368,-2.5359,-2.5354,-2.5359,-2.5363,-2.5379,-2.5438,-2.5468,-2.5451,-2.5484,-2.5535,-2.5558,-2.5558,-2.5594,-2.5628,-2.5628,-2.5635,-2.5661,-2.5683,-2.5703,-2.5703,-2.5703,-2.5703,-2.5703,-2.5703,-2.5703,-2.5703,-2.5703,-2.5703,-2.5703,-2.5703,-2.5703,-2.5703,-2.5703,-2.5703,-2.5703,-2.5703,-2.5703,-2.5703,-2.5703,-2.5703,-2.5703,-2.5703,-2.5703,-2.5703,-2.5703,-2.5661,-2.566,-2.5703,-2.5661,-2.566,-2.5703,-2.5703,-2.5703,-2.5703,-2.561,-2.5564,-2.5545,-2.5503,-2.5491,-1.7637,-1.7578,0.0,0.0,0.0,0.0,0.0,-1.9648,0.0,0.0,0.0,0.0,0.0,0.0,0.0,0.0,0.0,0.0,0.0,0.0,0.0,0.0,0.0,0.0,0.0,0.0,0.0,-2.4962,-2.4356,-2.3995,-2.4091,-2.4014,-2.4375,-2.5269,-2.5115,-2.5115,-2.5308,-2.5212,-2.5212,-2.5308,-2.5308,-2.5308,-2.5308,-2.5308,-2.5308,-2.5308,-2.5308,-2.5308,-2.5308,-2.5308,-2.5308,-2.5308,-2.5308,-2.5308,-2.5308,-2.5308,-2.5308,-2.5303,-2.5379,-2.5395,-2.5409,-2.5465,-2.5473,-2.5501,-2.5498,-2.5486,-2.5491,-2.5491,-2.5547,-2.5603,-2.5661,-2.5682,-2.5682,-2.5682,-2.5682,-2.5682,-2.5682,-2.5682,-2.5682,-2.5682,-2.5683,-2.5703,-2.5703,-2.5703,-2.5703,-2.5703,-2.5703,-2.5703,-2.5703,-2.5703,-2.5703,-2.5703,-2.5703,-2.5703,-2.5703,-2.5703,-2.5703,-2.5703,-2.5703,-2.5703,-2.5703,-2.5703,-2.5703,-2.5703,-2.5703,-2.5703,-2.5703,-2.5703,-2.5662,-2.5605,-2.5552,-2.5511,-1.8281,-1.8906,-1.957,0.0,0.0,0.0,0.0,-1.7871,0.0,0.0,0.0,0.0,0.0,0.0,0.0,0.0,0.0,0.0,0.0,0.0,0.0,0.0,0.0,0.0,0.0,0.0,0.0,-2.3274,-2.3144,-2.3355,-2.4052,-2.3432,-2.3735,-2.525,-2.3985,-2.3947,-2.5288,-2.4659,-2.4659,-2.5308,-2.5308,-2.5308,-2.5308,-2.5308,-2.5308,-2.5308,-2.5308,-2.5308,-2.5308,-2.5308,-2.5308,-2.5308,-2.5308,-2.5308,-2.5308,-2.5308,-2.5308,-2.5288,-2.5317,-2.5327,-2.5312,-2.5335,-2.5387,-2.5418,-2.5411,-2.5462,-2.5491,-2.5491,-2.552,-2.5511,-2.5541,-2.5545,-2.5545,-2.5545,-2.5545,-2.5545,-2.5545,-2.5545,-2.5545,-2.5545,-2.5632,-2.5703,-2.5703,-2.5703,-2.5703,-2.5703,-2.5703,-2.5703,-2.5703,-2.5703,-2.5703,-2.5703,-2.5703,-2.5703,-2.5703,-2.5703,-2.5703,-2.5703,-2.5703,-2.5703,-2.5703,-2.5703,-2.5703,-2.5703,-2.5703,-2.5703,-2.5703,-2.5703,-2.5683,-2.5683,-2.5661,-2.5661,0.0,0.0,-1.9941,-1.9941,0.0,0.0,0.0,0.0,0.0,0.0,0.0,0.0,0.0,0.0,0.0,0.0,0.0,0.0,0.0,0.0,0.0,0.0,0.0,0.0,0.0,0.0,-2.2158,-2.2158,-2.2158,-2.2331,-2.2778,-2.2389,-2.2735,-2.4005,-2.3235,-2.3197,-2.4043,-2.3644,-2.3875,-2.4697,-2.4697,-2.4909,-2.5308,-2.5308,-2.5308,-2.5308,-2.5308,-2.5308,-2.5308,-2.5308,-2.5308,-2.5308,-2.5308,-2.5308,-2.5308,-2.5308,-2.5308,-2.5308,-2.5308,-2.5308,-2.5308,-2.5308,-2.5312,-2.5346,-2.5342,-2.536,-2.5417,-2.5444,-2.5456,-2.5462,-2.5481,-2.5491,-2.5491,-2.5491,-2.5491,-2.5491,-2.5491,-2.5491,-2.5491,-2.5491,-2.5556,-2.5602,-2.5602,-2.5602,-2.5602,-2.5602,-2.5633,-2.5658,-2.5658,-2.5683,-2.5703,-2.5703,-2.5703,-2.5703,-2.5703,-2.5703,-2.5703,-2.5703,-2.5703,-2.5703,-2.5703,-2.5703,-2.5703,-2.5703,-2.5703,-2.5703,-2.5703,-2.5703,-2.5703,-2.5703,-2.5703,-2.5703,0.0,0.0,0.0,0.0,0.0,-2.0488,0.0,0.0,0.0,-2.0937,0.0,0.0,0.0,0.0,0.0,0.0,0.0,0.0,0.0,0.0,0.0,0.0,0.0,0.0,0.0,0.0,0.0,-2.1254,-2.1115,-2.1154,-2.1485,-2.135,-2.1727,-2.2728,-2.2476,-2.2457,-2.2766,-2.2611,-2.299,-2.386,-2.4014,-2.4432,-2.5077,-2.5231,-2.5308,-2.5308,-2.5308,-2.5308,-2.5308,-2.5308,-2.5308,-2.5308,-2.5308,-2.5308,-2.5308,-2.5308,-2.5308,-2.5308,-2.5308,-2.5308,-2.5308,-2.5308,-2.5308,-2.5308,-2.5308,-2.5308,-2.5308,-2.5375,-2.5376,-2.5391,-2.545,-2.5468,-2.5468,-2.5468,-2.5468,-2.5468,-2.5468,-2.5468,-2.5468,-2.5468,-2.5468,-2.5479,-2.5506,-2.5491,-2.5491,-2.5491,-2.5549,-2.5572,-2.5572,-2.5633,-2.5661,-2.5661,-2.5661,-2.5661,-2.5661,-2.5661,-2.5661,-2.5683,-2.5683,-2.5683,-2.5683,-2.5662,-2.5661,-2.5683,-2.5661,-2.5661,-2.5661,-2.5661,-2.5662,-2.5703,-2.5703,-2.5703,0.0,0.0,0.0,0.0,-2.2305,0.0,0.0,0.0,-2.0078,-1.8711,0.0,0.0,0.0,0.0,0.0,0.0,0.0,0.0,0.0,0.0,0.0,0.0,0.0,0.0,0.0,0.0,0.0,0.0,-1.9727,-1.9919,-2.1427,-2.0827,-2.1112,-2.2587,-2.1299,-2.1246,-2.2606,-2.1975,-2.2081,-2.2951,-2.3725,-2.4149,-2.4259,-2.4962,-2.5308,-2.5308,-2.5308,-2.5308,-2.5308,-2.5308,-2.5308,-2.5308,-2.5308,-2.5308,-2.5308,-2.5308,-2.5308,-2.5308,-2.5308,-2.5308,-2.5308,-2.5308,-2.5308,-2.5308,-2.5308,-2.5308,-2.5308,-2.5308,-2.5308,-2.5313,-2.5327,-2.5312,-2.5312,-2.5312,-2.5312,-2.5312,-2.5312,-2.5312,-2.5312,-2.5312,-2.5312,-2.5359,-2.549,-2.5491,-2.5491,-2.5491,-2.5517,-2.5503,-2.5503,-2.5526,-2.5511,-2.5511,-2.5511,-2.5511,-2.5511,-2.5511,-2.5551,-2.5605,-2.5606,-2.5606,-2.5606,-2.5556,-2.5552,-2.5606,-2.5554,-2.5511,-2.5511,-2.5511,-2.5573,-2.5703,-2.5703,-2.5703,0.0,0.0,0.0,0.0,0.0,0.0,0.0,0.0,-2.0547,0.0,0.0,0.0,0.0,0.0,0.0,0.0,0.0,0.0,0.0,0.0,0.0,0.0,0.0,0.0,0.0,0.0,0.0,0.0,0.0,-1.9523,-2.0731,-2.0481,-2.0551,-2.1066,-2.046,-2.0408,-2.0963,-2.0676,-2.0955,-2.1828,-2.2263,-2.2738,-2.326,-2.4173,-2.4601,-2.462,-2.5096,-2.5308,-2.5308,-2.5308,-2.5308,-2.5308,-2.5308,-2.5308,-2.5308,-2.5308,-2.5308,-2.5308,-2.5308,-2.5308,-2.5308,-2.5308,-2.5308,-2.5308,-2.5308,-2.5308,-2.5308,-2.5308,-2.5308,-2.5308,-2.5308,-2.5308,-2.5308,-2.5308,-2.5308,-2.5308,-2.5308,-2.5308,-2.5308,-2.5308,-2.5308,-2.5322,-2.5364,-2.5379,-2.5379,-2.5379,-2.5411,-2.5447,-2.5447,-2.5488,-2.5491,-2.5491,-2.5491,-2.5491,-2.5491,-2.5491,-2.5503,-2.5545,-2.5547,-2.5547,-2.5547,-2.5505,-2.5503,-2.5545,-2.5505,-2.5491,-2.5491,-2.5491,-2.5537,-2.5575,-2.5611,-2.5636,-2.0957,0.0,0.0,0.0,0.0,0.0,0.0,0.0,0.0,0.0,0.0,0.0,0.0,0.0,0.0,0.0,0.0,0.0,0.0,0.0,0.0,0.0,0.0,0.0,0.0,0.0,0.0,0.0,0.0,0.0,-2.0152,-2.0229,-2.0125,-1.9901,-1.9933,-1.9885,-1.9744,-1.9786,-2.0123,-2.0744,-2.1127,-2.1634,-2.2274,-2.3285,-2.3744,-2.3778,-2.437,-2.4615,-2.4615,-2.4615,-2.4615,-2.4615,-2.4615,-2.4615,-2.4673,-2.5135,-2.5308,-2.5308,-2.5308,-2.5308,-2.5308,-2.5308,-2.5308,-2.5308,-2.5308,-2.5308,-2.5308,-2.5308,-2.5308,-2.5308,-2.5308,-2.5308,-2.5308,-2.5308,-2.5308,-2.5308,-2.5308,-2.5308,-2.5308,-2.5308,-2.5308,-2.5308,-2.5308,-2.5308,-2.5308,-2.5308,-2.5329,-2.5368,-2.5368,-2.5431,-2.5447,-2.5447,-2.5447,-2.5447,-2.5447,-2.5447,-2.5459,-2.5479,-2.5463,-2.5473,-2.5491,-2.5451,-2.544,-2.5463,-2.544,-2.5447,-2.5447,-2.5447,-2.5447,-2.545,-2.5539,-2.5567,0.0,0.0,0.0,0.0,0.0,0.0,0.0,0.0,-2.1621,0.0,0.0,0.0,0.0,0.0,0.0,-1.8105,0.0,0.0,0.0,0.0,0.0,0.0,0.0,0.0,0.0,0.0,0.0,0.0,0.0,0.0,-1.9926,-2.0017,-1.989,-1.9616,-1.9738,-1.9738,-1.9603,-1.9732,-1.9809,-1.9853,-2.0836,-2.1304,-2.1386,-2.2378,-2.2836,-2.2836,-2.2874,-2.2874,-2.2874,-2.2874,-2.2874,-2.2874,-2.2874,-2.2874,-2.3086,-2.4692,-2.5308,-2.5308,-2.5308,-2.5308,-2.5308,-2.5308,-2.5308,-2.5308,-2.5308,-2.5308,-2.5308,-2.5308,-2.5308,-2.5308,-2.5308,-2.5308,-2.5308,-2.5308,-2.5308,-2.5308,-2.5308,-2.5308,-2.5308,-2.5308,-2.5308,-2.5308,-2.5308,-2.5308,-2.5308,-2.5308,-2.5288,-2.5293,-2.5293,-2.5317,-2.5317,-2.5317,-2.5317,-2.5317,-2.5317,-2.5317,-2.533,-2.5398,-2.5394,-2.5434,-2.5508,-2.5387,-2.5339,-2.5394,-2.5344,-2.5317,-2.5317,-2.5317,-2.5317,-2.5308,-2.5444,-2.5493,0.0,0.0,-2.2051,-2.0898,0.0,0.0,0.0,0.0,0.0,0.0,0.0,0.0,0.0,0.0,-1.9199,-1.8906,0.0,0.0,0.0,0.0,0.0,0.0,0.0,0.0,0.0,0.0,0.0,0.0,0.0,0.0,0.0,-1.9988,-1.988,-1.9603,-1.963,-1.9577,-1.9394,-1.9441,-1.9476,-1.9476,-1.9956,-2.0225,-2.0334,-2.1353,-2.1856,-2.1966,-2.2547,-2.2757,-2.2666,-2.2666,-2.2595,-2.2475,-2.2475,-2.255,-2.2752,-2.34,-2.4005,-2.4586,-2.5115,-2.5308,-2.5308,-2.5308,-2.5308,-2.5308,-2.5308,-2.5308,-2.5308,-2.5308,-2.5308,-2.5308,-2.5308,-2.5308,-2.5308,-2.5308,-2.5308,-2.5308,-2.5308,-2.5308,-2.5308,-2.5308,-2.5308,-2.5308,-2.5308,-2.5308,-2.5308,-2.5308,-2.5308,-2.5308,-2.5308,-2.5308,-2.5308,-2.5308,-2.5308,-2.5308,-2.5308,-2.5308,-2.5303,-2.5326,-2.5335,-2.5333,-2.5371,-2.5312,-2.5308,-2.5335,-2.5313,-2.5308,-2.5308,-2.5308,-2.5308,-2.5308,-2.5357,-2.5391,-2.0918,-2.123,0.0,0.0,-2.1016,0.0,0.0,0.0,0.0,0.0,0.0,0.0,0.0,0.0,0.0,-1.9297,-1.7832,0.0,0.0,0.0,0.0,0.0,0.0,0.0,0.0,0.0,-1.6638,-1.8068,0.0,0.0,0.0,0.0,-1.9802,-1.9506,-1.9499,-1.9423,-1.9297,-1.9297,-1.9297,-1.9297,-1.9506,-1.9649,-1.9751,-2.0497,-2.0872,-2.1007,-2.1568,-2.1756,-2.1677,-2.163,-2.1533,-2.1406,-2.1406,-2.1485,-2.17,-2.2446,-2.3304,-2.4168,-2.4697,-2.5058,-2.5308,-2.5308,-2.5308,-2.5308,-2.5308,-2.5308,-2.5308,-2.5308,-2.5308,-2.5279,-2.5214,-2.5179,-2.5187,-2.5138,-2.5121,-2.5121,-2.5121,-2.5121,-2.5121,-2.5121,-2.5121,-2.5121,-2.5121,-2.5121,-2.5154,-2.5274,-2.5308,-2.5308,-2.5308,-2.5308,-2.5269,-2.5203,-2.5259,-2.5269,-2.5203,-2.5264,-2.5269,-2.5203,-2.5179,-2.5179,-2.5179,-2.5149,-2.5149,-2.5198,-2.5179,-2.5224,-2.5308,-2.5308,-2.5308,-2.5308,-2.5308,-2.5312]},{"header":{"parameterUnit":"m.s-1","parameterCategory":1,"la1":30.6,"la2":29.2853,"lo1":-89.7004,"lo2":-87.6739,"dy":0.0162,"dx":0.0183,"nx":112,"ny":82,"refTime":"2024-07-28T06:00:00:Z","depth":0,"parameterNumber":3,"parameterNumberName":"V-component_of_WINDS"},"data":[0.0,0.0,0.0,0.0,0.0,0.0,0.0,0.0,0.0,0.0,0.0,0.0,0.0,0.0,0.0,0.0,0.0,0.0,0.0,0.0,0.0,0.0,0.0,0.0,0.0,0.0,0.0,0.0,0.0,0.0,0.0,0.0,0.0,0.0,0.0,0.0,0.0,0.0,0.0,0.0,0.0,0.0,0.0,0.0,0.0,0.0,0.0,0.0,0.0,0.0,0.0,0.0,0.0,0.0,0.0,0.0,0.0,0.0,0.0,0.0,0.0,0.0,0.0,0.0,0.0,0.0,0.0,0.0,0.0,0.0,0.0,0.0,0.0,0.0,0.0,0.0,0.0,0.0,0.0,0.0,0.0,0.0,0.0,0.0,0.0,0.0,0.0,0.0,0.0,0.0,0.0,-0.9084,-0.9697,-0.9933,-0.9639,-0.9357,-0.8838,-0.7959,0.0,0.0,0.0,0.0,0.0,0.0,0.0,0.0,0.0,0.0,0.0,0.0,0.0,0.0,0.0,0.0,0.0,0.0,0.0,0.0,0.0,0.0,0.0,0.0,0.0,0.0,0.0,0.0,0.0,0.0,0.0,0.0,0.0,0.0,0.0,0.0,0.0,0.0,0.0,0.0,0.0,0.0,0.0,0.0,0.0,0.0,0.0,0.0,0.0,0.0,0.0,0.0,0.0,0.0,0.0,0.0,0.0,0.0,0.0,0.0,0.0,0.0,0.0,0.0,0.0,0.0,0.0,0.0,0.0,0.0,0.0,0.0,0.0,0.0,0.0,0.0,0.0,0.0,0.0,0.0,0.0,0.0,0.0,0.0,0.0,0.0,0.0,0.0,0.0,0.0,0.0,0.0,0.0,0.0,0.0,0.0,0.0,0.0,0.0,0.0,0.0,0.0,0.0,0.0,-0.7619,-0.9058,-0.9546,-0.9633,-0.9304,-0.9237,-0.8838,-0.7959,0.0,0.0,0.0,0.0,0.0,0.0,0.0,0.0,0.0,0.0,0.0,0.0,0.0,0.0,0.0,0.0,0.0,0.0,0.0,0.0,0.0,0.0,0.0,0.0,0.0,0.0,0.0,0.0,0.0,0.0,0.0,0.0,0.0,0.0,0.0,0.0,0.0,0.0,0.0,0.0,0.0,0.0,0.0,0.0,0.0,0.0,0.0,0.0,0.0,0.0,0.0,0.0,0.0,0.0,0.0,0.0,0.0,0.0,0.0,0.0,0.0,0.0,0.0,0.0,0.0,0.0,0.0,0.0,0.0,0.0,0.0,0.0,0.0,0.0,0.0,0.0,0.0,0.0,0.0,0.0,0.0,0.0,0.0,0.0,0.0,0.0,0.0,0.0,0.0,0.0,0.0,0.0,0.0,0.0,0.0,0.0,0.0,0.0,0.0,0.0,0.0,0.0,0.0,-0.7809,-0.8285,-0.9124,-0.9331,-0.9357,-0.9224,-0.9071,-0.8671,-0.7952,-0.7339,0.0,0.0,0.0,0.0,0.0,0.0,0.0,0.0,0.0,0.0,0.0,0.0,0.0,0.0,0.0,0.0,0.0,0.0,0.0,0.0,0.0,0.0,0.0,0.0,0.0,0.0,0.0,0.0,0.0,0.0,0.0,0.0,0.0,0.0,0.0,0.0,0.0,0.0,0.0,0.0,0.0,0.0,0.0,0.0,0.0,0.0,0.0,0.0,0.0,0.0,0.0,0.0,0.0,0.0,0.0,0.0,0.0,0.0,0.0,0.0,0.0,0.0,0.0,0.0,0.0,0.0,0.0,0.0,0.0,0.0,0.0,0.0,0.0,0.0,0.0,0.0,0.0,0.0,0.0,0.0,0.0,0.0,0.0,0.0,0.0,0.0,0.0,0.0,0.0,0.0,0.0,0.0,0.0,0.0,0.0,0.0,0.0,0.0,0.0,0.0,0.0,0.0,-0.8497,-0.8865,-0.9084,-0.9111,-0.9111,-0.9111,-0.8785,-0.8352,-0.7832,-0.7188,0.0,0.0,0.0,0.0,0.0,0.0,0.0,0.0,0.0,0.0,0.0,0.0,0.0,0.0,0.0,0.0,0.0,0.0,0.0,0.0,0.0,0.0,0.0,0.0,0.0,0.0,0.0,0.0,0.0,0.0,0.0,0.0,0.0,0.0,0.0,0.0,0.0,0.0,0.0,0.0,0.0,0.0,0.0,0.0,0.0,0.0,0.0,0.0,0.0,0.0,0.0,0.0,0.0,0.0,0.0,0.0,0.0,0.0,0.0,0.0,0.0,0.0,0.0,0.0,0.0,0.0,0.0,0.0,0.0,0.0,0.0,0.0,0.0,0.0,0.0,0.0,0.0,0.0,0.0,0.0,0.0,0.0,0.0,0.0,0.0,0.0,0.0,0.0,0.0,0.0,0.0,0.0,0.0,0.0,0.0,0.0,0.0,0.0,0.0,0.0,0.0,0.0,-0.8085,-0.8818,-0.8838,-0.8838,-0.8838,-0.8838,-0.8292,-0.7849,-0.7544,-0.6734,0.0,0.0,0.0,0.0,0.0,0.0,0.0,0.0,0.0,0.0,0.0,0.0,0.0,0.0,0.0,0.0,0.0,0.0,0.0,0.0,0.0,0.0,0.0,0.0,0.0,0.0,0.0,0.0,0.0,0.0,0.0,0.0,0.0,0.0,0.0,0.0,0.0,0.0,0.0,0.0,0.0,0.0,0.0,0.0,0.0,0.0,0.0,0.0,0.0,0.0,0.0,0.0,0.0,0.0,0.0,0.0,0.0,0.0,0.0,0.0,0.0,0.0,0.0,0.0,0.0,0.0,0.0,0.0,0.0,0.0,0.0,0.0,0.0,0.0,0.0,0.0,0.0,0.0,0.0,0.0,0.0,0.0,0.0,0.0,0.0,0.0,0.0,0.0,0.0,0.0,0.0,0.0,0.0,0.0,0.0,0.0,0.0,0.0,0.0,0.0,0.0,0.0,-0.8047,-0.8604,0.0,-0.8804,-0.8804,-0.8804,-0.8604,-0.819,-0.7531,0.0,0.0,0.0,0.0,0.0,0.0,0.0,0.0,0.0,0.0,0.0,0.0,0.0,0.0,0.0,0.0,0.0,0.0,0.0,0.0,0.0,0.0,0.0,0.0,0.0,0.0,0.0,0.0,0.0,0.0,0.0,0.0,0.0,0.0,0.0,0.0,0.0,0.0,0.0,0.0,0.0,0.0,0.0,0.0,0.0,0.0,0.0,0.0,0.0,0.0,0.0,0.0,0.0,0.0,0.0,0.0,0.0,0.0,0.0,0.0,0.0,0.0,0.0,0.0,0.0,0.0,0.0,0.0,0.0,0.0,0.0,0.0,0.0,0.0,0.0,0.0,0.0,0.0,0.0,0.0,0.0,0.0,0.0,0.0,0.0,0.0,0.0,0.0,0.0,0.0,0.0,0.0,0.0,0.0,0.0,0.0,0.0,0.0,0.0,0.0,0.0,0.0,-0.7283,-0.8047,-0.8591,0.0,-0.8982,-0.9035,-0.8804,-0.8748,-0.8318,-0.739,0.0,0.0,0.0,0.0,0.0,0.0,0.0,0.0,0.0,0.0,0.0,0.0,0.0,0.0,0.0,0.0,0.0,0.0,0.0,0.0,0.0,0.0,0.0,0.0,0.0,0.0,0.0,0.0,0.0,0.0,0.0,0.0,0.0,0.0,0.0,0.0,0.0,0.0,0.0,0.0,0.0,0.0,0.0,0.0,0.0,0.0,0.0,0.0,0.0,0.0,0.0,0.0,0.0,0.0,0.0,0.0,0.0,0.0,0.0,0.0,0.0,0.0,0.0,0.0,0.0,0.0,0.0,0.0,0.0,0.0,0.0,0.0,0.0,0.0,0.0,0.0,0.0,0.0,0.0,0.0,0.0,0.0,0.0,0.0,0.0,0.0,0.0,0.0,0.0,0.0,0.0,0.0,0.0,0.0,0.0,0.0,0.0,0.0,0.0,0.0,0.0,0.0,-0.7002,-0.8063,-0.8811,-0.8804,-0.9413,-0.9536,-0.8857,-0.8625,-0.8084,0.0,0.0,0.0,0.0,0.0,0.0,0.0,0.0,0.0,0.0,0.0,0.0,0.0,0.0,0.0,0.0,0.0,0.0,0.0,0.0,0.0,0.0,0.0,0.0,0.0,0.0,0.0,0.0,0.0,0.0,0.0,0.0,0.0,0.0,0.0,0.0,0.0,0.0,0.0,0.0,0.0,0.0,0.0,0.0,0.0,0.0,0.0,0.0,0.0,0.0,0.0,0.0,0.0,0.0,0.0,0.0,0.0,0.0,0.0,0.0,0.0,0.0,0.0,0.0,0.0,0.0,0.0,0.0,0.0,0.0,0.0,0.0,0.0,0.0,0.0,0.0,0.0,0.0,0.0,0.0,0.0,0.0,0.0,0.0,0.0,0.0,0.0,0.0,0.0,0.0,0.0,0.0,0.0,0.0,0.0,0.0,0.0,0.0,0.0,0.0,0.0,0.0,0.0,0.0,-0.865,-0.9309,-0.8857,-0.9413,-0.971,-0.951,-0.9269,-0.886,-0.8232,0.0,0.0,0.0,0.0,0.0,0.0,0.0,0.0,0.0,0.0,0.0,0.0,0.0,0.0,0.0,0.0,0.0,0.0,0.0,0.0,0.0,0.0,0.0,0.0,0.0,0.0,0.0,0.0,0.0,0.0,0.0,0.0,0.0,0.0,0.0,0.0,0.0,0.0,0.0,0.0,0.0,0.0,0.0,0.0,0.0,0.0,0.0,0.0,0.0,0.0,0.0,0.0,0.0,0.0,0.0,0.0,0.0,0.0,0.0,0.0,0.0,0.0,0.0,0.0,0.0,0.0,0.0,0.0,0.0,0.0,0.0,0.0,0.0,0.0,0.0,0.0,0.0,0.0,0.0,0.0,0.0,0.0,0.0,0.0,0.0,0.0,0.0,0.0,0.0,0.0,0.0,0.0,0.0,0.0,0.0,0.0,0.0,0.0,0.0,0.0,0.0,0.0,-0.8008,-0.9306,-1.0038,-0.964,-1.0192,-1.0491,-1.0218,-1.0196,-0.975,-0.8683,0.0,0.0,0.0,0.0,0.0,0.0,0.0,0.0,0.0,0.0,0.0,0.0,0.0,0.0,0.0,0.0,0.0,0.0,0.0,0.0,0.0,0.0,0.0,0.0,0.0,0.0,0.0,0.0,0.0,0.0,0.0,0.0,0.0,0.0,0.0,0.0,0.0,0.0,0.0,0.0,0.0,0.0,0.0,0.0,0.0,0.0,0.0,0.0,0.0,0.0,0.0,0.0,0.0,0.0,0.0,0.0,0.0,0.0,0.0,0.0,0.0,0.0,0.0,0.0,0.0,0.0,0.0,0.0,0.0,0.0,0.0,0.0,0.0,0.0,0.0,0.0,0.0,0.0,0.0,0.0,0.0,0.0,0.0,0.0,0.0,0.0,0.0,0.0,0.0,0.0,0.0,0.0,0.0,0.0,0.0,0.0,0.0,0.0,0.0,0.0,0.0,0.0,-0.8755,-1.0016,-1.0864,-1.0813,-1.1391,-1.1566,-1.0939,-1.1189,-1.0619,-0.8848,0.0,0.0,0.0,0.0,0.0,0.0,0.0,0.0,0.0,0.0,0.0,0.0,0.0,0.0,0.0,0.0,0.0,0.0,0.0,0.0,0.0,0.0,0.0,0.0,0.0,0.0,0.0,0.0,0.0,0.0,0.0,0.0,0.0,0.0,0.0,0.0,0.0,0.0,0.0,0.0,0.0,0.0,0.0,0.0,0.0,0.0,0.0,0.0,0.0,0.0,0.0,0.0,0.0,0.0,0.0,0.0,0.0,0.0,0.0,0.0,-0.3951,0.0,0.0,0.0,0.0,0.0,0.0,0.0,0.0,0.0,0.0,0.0,0.0,0.0,0.0,0.0,0.0,0.0,0.0,0.0,0.0,0.0,0.0,0.0,0.0,0.0,0.0,0.0,0.0,0.0,0.0,0.0,0.0,0.0,0.0,0.0,0.0,0.0,0.0,0.0,0.0,0.0,-0.9582,-1.0775,-1.1391,-1.0864,-1.1391,-1.174,-1.1591,-1.1477,-1.1108,-1.0426,0.0,0.0,0.0,0.0,0.0,0.0,0.0,0.0,0.0,0.0,0.0,0.0,0.0,0.0,0.0,0.0,0.0,0.0,0.0,0.0,0.0,0.0,0.0,0.0,0.0,0.0,0.0,0.0,0.0,0.0,0.0,0.0,0.0,0.0,0.0,0.0,0.0,0.0,0.0,0.0,0.0,0.0,0.0,0.0,0.0,0.0,0.0,0.0,0.0,0.0,0.0,0.0,0.0,0.0,0.0,0.0,0.0,0.0,0.0,0.0,0.0,-0.4226,0.0,0.0,0.0,0.0,0.0,0.0,0.0,0.0,0.0,0.0,0.0,0.0,0.0,0.0,0.0,0.0,0.0,0.0,0.0,0.0,0.0,0.0,0.0,0.0,0.0,0.0,0.0,0.0,0.0,0.0,0.0,0.0,0.0,0.0,0.0,0.0,0.0,0.0,0.0,0.0,-1.0298,-1.1528,-1.2197,-1.1841,-1.2113,-1.232,-1.232,-1.2195,-1.1832,-1.118,-1.0029,0.0,0.0,0.0,0.0,0.0,0.0,0.0,0.0,0.0,0.0,0.0,0.0,0.0,0.0,0.0,0.0,0.0,0.0,0.0,0.0,0.0,0.0,0.0,0.0,0.0,0.0,0.0,0.0,0.0,0.0,0.0,0.0,0.0,0.0,0.0,0.0,0.0,0.0,0.0,0.0,0.0,0.0,0.0,0.0,0.0,0.0,0.0,0.0,0.0,0.0,0.0,0.0,0.0,0.0,0.0,-0.5474,-0.5474,-0.5355,-0.5164,-0.4952,-0.476,-0.4566,0.0,0.0,0.0,0.0,0.0,0.0,0.0,0.0,0.0,0.0,0.0,0.0,0.0,0.0,0.0,0.0,0.0,0.0,0.0,0.0,0.0,0.0,0.0,0.0,0.0,-0.8059,-0.7919,0.0,0.0,0.0,0.0,0.0,0.0,0.0,0.0,0.0,0.0,0.0,0.0,-1.1005,-1.2158,-1.2905,-1.2905,-1.2905,-1.2905,-1.2905,-1.2905,-1.2508,-1.1603,-1.1186,-1.0436,0.0,0.0,0.0,0.0,0.0,0.0,0.0,0.0,0.0,0.0,0.0,0.0,0.0,0.0,0.0,0.0,0.0,0.0,0.0,0.0,0.0,0.0,0.0,0.0,0.0,0.0,0.0,0.0,0.0,0.0,0.0,0.0,0.0,0.0,0.0,0.0,0.0,0.0,0.0,0.0,0.0,0.0,0.0,0.0,0.0,0.0,0.0,0.0,-0.5303,-0.5549,-0.5633,-0.5532,-0.581,-0.5871,-0.5742,-0.5742,-0.5664,-0.5525,-0.5488,0.0,-0.484,-0.46,0.0,0.0,0.0,0.0,0.0,0.0,0.0,0.0,0.0,0.0,0.0,0.0,0.0,0.0,0.0,0.0,0.0,0.0,0.0,0.0,0.0,0.0,-0.8691,-0.8691,-0.8691,-0.8671,0.0,-0.7732,-0.6966,-0.6853,0.0,0.0,0.0,0.0,0.0,0.0,0.0,0.0,-1.1921,-1.2539,-1.2905,-1.2905,-1.2905,-1.2905,-1.2905,-1.2905,-1.2671,-1.213,-1.1621,-1.1112,-1.0649,-0.9355,0.0,0.0,0.0,0.0,0.0,0.0,0.0,0.0,0.0,0.0,0.0,0.0,0.0,0.0,0.0,0.0,0.0,0.0,0.0,0.0,0.0,0.0,0.0,0.0,0.0,0.0,0.0,0.0,0.0,0.0,0.0,0.0,-0.0367,-0.0732,0.0,0.0,0.0,0.0,0.0,0.0,0.0,0.0,0.0,-0.5284,-0.5355,-0.5501,-0.5735,-0.5864,-0.5942,-0.6006,-0.6098,-0.6125,-0.6098,-0.6098,-0.5979,-0.5837,-0.5837,-0.563,-0.527,-0.4965,-0.4741,-0.466,0.0,0.0,0.0,0.0,0.0,0.0,-0.7827,0.0,0.0,0.0,0.0,0.0,0.0,0.0,0.0,0.0,0.0,0.0,0.0,0.0,0.0,-0.8804,-0.8804,-0.8804,-0.8804,-0.8397,-0.7905,0.0,-0.7948,-0.8249,-0.803,0.0,0.0,0.0,0.0,0.0,-1.2125,-1.2607,-1.2905,-1.2905,-1.2905,-1.2905,-1.2905,-1.2905,-1.2803,-1.2607,-1.2133,-1.178,-1.1648,-1.0555,-0.9696,0.0,0.0,0.0,0.0,0.0,0.0,0.0,0.0,0.0,0.0,0.0,0.0,0.0,0.0,0.0,0.0,0.0,0.0,0.0,0.0,0.0,0.0,0.0,0.0,0.0,0.0,0.0,0.0,0.0,0.0,0.0,-0.0473,-0.0957,0.0,0.0,0.0,0.0,0.0,0.0,-0.507,-0.5125,-0.5315,-0.5691,-0.5776,-0.5922,-0.6142,-0.6145,-0.624,-0.6354,-0.6354,-0.6334,-0.63,-0.63,-0.6176,-0.5993,-0.5993,-0.5864,-0.5569,-0.5301,-0.5036,-0.4858,-0.5463,-0.5426,0.0,-0.6836,-0.7481,-0.7693,-0.8443,-0.8929,-0.9104,-0.8452,0.0,-0.7932,-0.7502,0.0,0.0,0.0,0.0,-0.8509,-0.8509,0.0,-0.8804,-0.8804,-0.8804,-0.8804,-0.8804,-0.8804,-0.8677,0.0,-0.8663,-0.9005,-0.8633,0.0,0.0,0.0,0.0,-1.1917,-1.2344,-1.2676,-1.2905,-1.2905,-1.2905,-1.2905,-1.2905,-1.2905,-1.2905,-1.2905,-1.2578,-1.2369,-1.2369,-1.1543,-1.0723,0.0,0.0,0.0,0.0,0.0,0.0,0.0,0.0,0.0,0.0,0.0,0.0,0.0,0.0,0.0,0.0,0.0,0.0,0.0,0.0,0.0,0.0,0.0,0.0,0.0,0.0,0.0,0.0,0.0,0.0,0.0,-0.0029,0.0,0.0,0.0,0.0,-0.4698,-0.5134,-0.5412,-0.5549,-0.5684,-0.5833,-0.5963,-0.6281,-0.6474,-0.6491,-0.6593,-0.66,-0.6501,-0.6501,-0.6429,-0.63,-0.63,-0.6176,-0.5993,-0.5993,-0.5864,-0.5579,-0.545,-0.5254,-0.5126,-0.5742,-0.5551,-0.5005,-0.5796,-0.6621,-0.7318,-0.7387,-0.8184,-0.9204,-0.9164,-0.8804,-0.8368,-0.8342,-0.8342,0.0,0.0,-0.855,-0.8784,-0.8784,-0.8798,-0.8804,-0.8804,-0.8804,-0.8804,-0.8804,-0.8804,-0.8798,0.0,-0.9292,-0.9827,-1.006,0.0,0.0,-1.2014,-1.2145,-1.233,-1.2793,-1.2895,-1.2905,-1.2905,-1.2905,-1.2905,-1.2905,-1.2905,-1.2905,-1.2905,-1.2886,-1.2866,-1.2866,-1.2015,-1.133,-1.0829,-0.9236,0.0,0.0,0.0,0.0,0.0,0.0,0.0,0.0,0.0,0.0,0.0,0.0,0.0,0.0,0.0,0.0,0.0,0.0,0.0,0.0,0.0,0.0,0.0,0.0,0.0,0.0,0.0,0.0,0.0,-0.103,0.0,0.0,-0.3681,-0.4688,-0.529,-0.5474,-0.5613,-0.5861,-0.5922,-0.6061,-0.6305,-0.6457,-0.6559,-0.6617,-0.6671,-0.6624,-0.6511,-0.6511,-0.6436,-0.63,-0.63,-0.6269,-0.6179,-0.6179,-0.6006,-0.5728,-0.5772,-0.5589,-0.5306,-0.5542,-0.5361,-0.522,-0.6732,-0.7415,-0.7715,-0.8727,-0.9398,-0.971,-0.9337,-0.9071,-0.8871,-0.8711,-0.8651,-0.8651,-0.8651,-0.8731,-0.8804,-0.8804,-0.8804,-0.8804,-0.8804,-0.8804,-0.8804,-0.8804,-0.9133,-0.9439,-0.9439,-0.9987,-1.053,-1.08,-1.1654,-1.2268,-1.2206,-1.2471,-1.2705,-1.2886,-1.2905,-1.2905,-1.2905,-1.2905,-1.2905,-1.2905,-1.2905,-1.2764,-1.248,-1.2461,-1.2334,-1.2064,-1.1773,-1.1379,-1.0918,-1.0068,-0.906,0.0,0.0,0.0,0.0,0.0,0.0,0.0,0.0,0.0,0.0,0.0,0.0,0.0,0.0,0.0,0.0,0.0,0.0,0.0,0.0,0.0,0.0,0.0,0.0,0.0,0.0,0.0,0.0,-0.1381,-0.2427,-0.2746,-0.4233,-0.531,-0.5693,-0.5786,-0.5922,-0.6166,-0.6135,-0.622,-0.6504,-0.6562,-0.66,-0.6698,-0.68,-0.6773,-0.6624,-0.6573,-0.6515,-0.6371,-0.632,-0.63,-0.63,-0.63,-0.6122,-0.5813,-0.5929,-0.5796,-0.5474,-0.5474,-0.5345,-0.5377,-0.6969,-0.7668,-0.8038,-0.9554,-1.0083,-1.0003,-0.9517,-0.9291,-0.9198,-0.9132,-0.8965,-0.8831,-0.8898,-0.8884,-0.8804,-0.8804,-0.8804,-0.8804,-0.8804,-0.8804,-0.8804,-0.8804,-0.9335,-0.9865,-1.009,-1.0686,-1.1189,-1.1375,-1.2248,-1.2783,-1.249,-1.2695,-1.2905,-1.2905,-1.2905,-1.2905,-1.2905,-1.2905,-1.2905,-1.2905,-1.2744,-1.2607,-1.2461,-1.2168,-1.1943,-1.1819,-1.1526,-1.1222,-1.0918,-1.0352,-0.9648,-0.8799,0.0,0.0,0.0,0.0,0.0,0.0,0.0,0.0,0.0,0.0,0.0,0.0,0.0,0.0,0.0,0.0,0.0,0.0,0.0,0.0,0.0,0.0,0.0,0.0,0.0,0.0,0.0,-0.0985,-0.1995,-0.2833,-0.4031,-0.5095,-0.5966,-0.6186,-0.6375,-0.6511,-0.6385,-0.6375,-0.6521,-0.6624,-0.6705,-0.6715,-0.6953,-0.7024,-0.6883,-0.6773,-0.662,-0.6508,-0.6364,-0.63,-0.63,-0.63,-0.6122,-0.5813,-0.5929,-0.5854,-0.5589,-0.5589,-0.5532,-0.5498,-0.6367,-0.7274,-0.8254,-0.9599,-1.0097,-1.008,-0.9793,-0.9499,-0.9291,-0.9599,-0.9285,-0.8891,-0.9138,-0.9011,-0.8818,-0.8811,-0.8804,-0.8804,-0.8804,-0.8804,-0.8804,-0.8804,-0.9335,-1.0012,-1.0661,-1.1366,-1.1839,-1.1839,-1.2427,-1.2905,-1.2905,-1.2905,0.0,-1.2905,-1.2905,-1.2905,-1.2905,-1.2905,-1.2905,-1.2905,-1.2467,-1.2398,-1.2837,-1.2064,-1.177,-1.2145,-1.1346,-1.0918,-1.0928,-1.0079,-0.9631,-0.9612,0.0,0.0,0.0,0.0,0.0,0.0,0.0,0.0,0.0,0.0,0.0,0.0,0.0,0.0,0.0,0.0,0.0,0.0,0.0,0.0,0.0,0.0,0.0,0.0,0.0,0.0,0.0,-0.1596,-0.2772,-0.3031,-0.4824,-0.611,-0.6349,-0.6491,-0.6597,-0.6634,-0.6535,-0.6532,-0.6797,-0.6736,-0.6803,-0.6974,-0.7055,-0.7024,-0.6883,-0.6773,-0.662,-0.6508,-0.6364,-0.63,-0.63,-0.63,-0.6122,-0.5813,-0.5929,-0.5854,-0.5589,-0.5589,-0.5562,-0.5648,-0.6411,-0.7665,-0.9,-0.9382,-0.9926,-1.0419,-1.0094,-0.994,-0.9824,-0.9719,-0.9573,-0.9412,-0.9251,-0.9158,-0.9044,-0.8864,-0.8804,-0.8804,-0.8804,-0.8804,-0.8804,-0.8804,-0.9718,-1.0593,-1.0762,-1.1758,-1.2608,-1.2608,-1.2774,-1.2905,-1.2905,0.0,0.0,-1.2905,-1.2905,-1.2905,-1.2905,-1.2905,-1.2905,-1.2905,-1.2773,-1.248,0.0,-1.1734,-1.1496,-1.1258,-1.1024,-1.1055,-1.1398,-1.084,-1.041,0.0,0.0,0.0,0.0,0.0,0.0,0.0,0.0,0.0,0.0,0.0,0.0,0.0,0.0,0.0,0.0,0.0,0.0,0.0,0.0,0.0,0.0,0.0,0.0,0.0,0.0,0.0,0.0,-0.1833,-0.312,-0.3221,-0.5215,-0.6538,-0.6563,-0.6651,-0.6729,-0.6793,-0.6651,-0.6678,-0.6879,-0.6844,-0.6878,-0.7007,-0.7065,-0.7024,-0.6883,-0.6773,-0.662,-0.6508,-0.6364,-0.63,0.0,-0.63,-0.616,-0.5908,-0.6064,-0.5949,0.0,0.0,0.0,0.0,0.0,-0.7567,-0.8748,-0.8748,-0.9332,-1.0015,-0.9818,-0.9907,-1.0107,-1.009,-0.9793,-0.9486,-0.9411,-0.9224,-0.8991,-0.8851,-0.8804,-0.8804,-0.8804,-0.8804,-0.8804,-0.8804,-0.964,-1.0466,-1.0745,0.0,0.0,-1.2856,-1.2905,-1.2905,-1.2905,-1.2905,-1.2905,0.0,-1.2905,-1.2905,-1.2905,-1.2905,-1.2905,-1.2905,-1.2715,0.0,0.0,0.0,-1.1467,-1.1191,0.0,0.0,0.0,0.0,0.0,0.0,0.0,0.0,0.0,-1.0937,-1.0977,0.0,0.0,0.0,0.0,0.0,0.0,0.0,0.0,0.0,0.0,0.0,0.0,0.0,0.0,0.0,0.0,0.0,0.0,0.0,0.0,0.0,0.0,-0.1819,-0.316,-0.3332,-0.5261,-0.6556,-0.6692,-0.6732,-0.681,0.0,0.0,0.0,0.0,0.0,-0.6893,-0.691,-0.7034,-0.7034,-0.6906,-0.678,-0.6627,-0.6532,-0.6371,-0.63,-0.63,-0.63,-0.6173,-0.6003,-0.6176,-0.6102,-0.58,-0.5783,-0.5691,-0.5648,-0.6328,-0.7111,0.0,0.0,0.0,0.0,-0.9306,-0.9687,-1.0214,-1.0512,-0.9987,-0.9364,-0.9659,-0.9312,-0.8858,-0.8858,-0.8831,-0.8804,-0.8804,-0.8804,-0.8804,-0.8804,-0.9335,-0.9961,-1.0559,-1.1291,-1.1996,-1.2666,-1.2847,-1.2905,-1.2905,-1.2905,0.0,-1.2905,-1.2905,-1.2905,-1.2905,0.0,0.0,-1.2905,-1.2529,-1.2428,-1.2807,-1.2093,-1.1663,-1.1663,-1.1734,-1.1917,-1.2272,-1.2281,-1.2467,-1.2905,-1.2905,-1.2905,-1.2876,-1.168,-1.1531,0.0,0.0,0.0,0.0,0.0,0.0,0.0,0.0,0.0,0.0,0.0,0.0,0.0,0.0,0.0,0.0,0.0,0.0,0.0,0.0,0.0,0.0,-0.1826,-0.3115,-0.3142,-0.5289,-0.6668,-0.6698,-0.6919,-0.7024,-0.7055,-0.692,0.0,-0.7051,-0.6947,-0.694,-0.7055,-0.7082,-0.7082,-0.7051,0.0,0.0,-0.6647,-0.6422,-0.63,-0.63,-0.63,-0.6173,-0.5993,-0.6023,-0.5966,-0.5789,-0.5677,-0.5573,-0.5466,-0.5601,-0.6207,-0.6948,-0.6948,-0.7994,-0.9306,-0.9306,-0.9844,-1.0519,-1.0573,-1.0274,0.0,-1.0013,-0.9584,-0.9131,-0.9131,-0.8958,-0.8804,-0.8804,-0.8804,-0.8804,-0.8804,-0.9335,-0.984,-0.9969,-1.0965,-1.1839,-1.1996,-1.2501,-1.2905,-1.2905,-1.2905,-1.2905,-1.2905,-1.2905,-1.2905,-1.2905,-1.2905,-1.2905,-1.2905,-1.2827,-1.2637,-1.235,-1.2174,-1.2077,-1.2077,-1.2441,-1.269,-1.2754,-1.2754,-1.2803,-1.2905,-1.2905,-1.2905,-1.2895,-1.2617,-1.2588,0.0,0.0,0.0,0.0,0.0,0.0,0.0,0.0,0.0,0.0,0.0,0.0,0.0,0.0,0.0,0.0,0.0,0.0,0.0,0.0,0.0,0.0,-0.1399,-0.2592,-0.3137,-0.4839,-0.6139,-0.6765,-0.6974,-0.7095,-0.7095,-0.7028,-0.7021,-0.7095,-0.7028,-0.7024,-0.7095,-0.7095,-0.7021,-0.6919,-0.677,-0.6624,-0.6474,-0.6368,-0.63,-0.63,-0.63,-0.6255,-0.6132,-0.5979,-0.5871,-0.5779,-0.5593,-0.5511,-0.5501,-0.5423,-0.5686,-0.6042,-0.6042,-0.7181,-0.8646,-0.8646,-0.9524,-1.0593,-1.0593,-1.0385,-1.0083,-1.0083,-0.9664,-0.9211,-0.9211,-0.8998,-0.8804,-0.8804,-0.8804,-0.8804,-0.8804,-0.9061,-0.9387,-0.9736,-1.0338,-1.0914,-1.1241,-1.1882,-1.2476,-1.2847,-1.2905,-1.2905,-1.2905,-1.2905,-1.2905,-1.2905,-1.2905,-1.2905,-1.2905,-1.2905,-1.2807,-1.2568,-1.2559,-1.2559,-1.2559,-1.2788,-1.2905,-1.2905,-1.2905,-1.2905,-1.2905,-1.2905,-1.2905,-1.2905,-1.2905,-1.2905,0.0,0.0,0.0,0.0,0.0,0.0,0.0,0.0,0.0,0.0,0.0,0.0,0.0,0.0,0.0,0.0,0.0,0.0,0.0,0.0,0.0,0.0,-0.0966,-0.2051,-0.3169,-0.4158,-0.5267,-0.6446,-0.6692,-0.6782,-0.6782,-0.6962,-0.7095,-0.7095,-0.7095,-0.7095,-0.7095,-0.7095,-0.6977,-0.6783,-0.6729,-0.6576,-0.6381,-0.6327,-0.63,-0.63,-0.63,-0.63,-0.6279,-0.5959,-0.5827,-0.5776,-0.5542,-0.5498,-0.5566,-0.544,-0.5395,-0.5395,-0.5395,-0.6535,-0.7994,-0.7994,-0.9192,-1.0593,-1.0593,-1.0385,-1.0097,-1.0187,-0.971,-0.9224,-0.9284,-0.9038,-0.8804,-0.8804,-0.8804,-0.8804,-0.8804,-0.8804,-0.8956,-0.951,-0.971,-0.9961,-1.0517,-1.1166,-1.1848,-1.2584,-1.2798,-1.2905,-1.2905,-1.2905,-1.2905,-1.2905,-1.2905,-1.2905,-1.2905,-1.2905,-1.2905,-1.2905,-1.2905,-1.2905,-1.2905,-1.2905,-1.2905,-1.2905,-1.2905,-1.2905,-1.2905,-1.2905,-1.2905,-1.2905,-1.2905,-1.2905,0.3947,0.3881,0.3548,0.2266,0.1896,0.1554,0.0,0.0,0.0,0.0,0.0,0.0,0.0,0.0,0.0,0.0,0.0,0.0,0.0,0.0,0.0,0.0,-0.0966,-0.1998,-0.3018,-0.3389,-0.4024,-0.5045,-0.5415,-0.5581,-0.5581,-0.6561,-0.7095,-0.7095,-0.7095,-0.7095,-0.7095,-0.7095,-0.7082,-0.7045,-0.6824,-0.6681,-0.6641,-0.6419,-0.63,-0.63,-0.63,-0.63,-0.6286,-0.6074,-0.5925,-0.5786,-0.5627,-0.5525,-0.5419,-0.5402,-0.5395,-0.5395,-0.5395,-0.6535,-0.7994,-0.7994,-0.9192,-1.0593,-1.0593,-1.0385,-1.0174,-1.0466,-0.9893,-0.9271,-0.9566,-0.9225,-0.8804,-0.8804,-0.8804,-0.8804,-0.8804,-0.8804,-0.8831,-0.891,-0.9387,-0.9814,-0.9891,-1.0466,-1.1141,-1.1814,-1.2476,-1.2905,-1.2905,-1.2905,-1.2905,-1.2905,-1.2905,-1.2905,-1.2905,-1.2905,-1.2905,-1.2905,-1.2905,-1.2905,-1.2905,-1.2905,-1.2905,-1.2905,-1.2905,-1.2905,-1.2905,-1.2905,-1.2905,-1.2905,-1.2905,-1.2905,0.3743,0.3258,0.0,0.0,0.1167,0.0692,0.0127,0.0,0.0,0.0,0.0,0.0,0.0,0.0,0.0,0.0,0.0,0.0,0.0,0.0,0.0,0.0,-0.0387,-0.1097,-0.2113,-0.2378,-0.289,-0.3891,-0.4226,-0.4676,-0.5356,-0.5849,-0.6425,-0.7095,-0.7095,-0.7095,-0.7095,-0.7095,-0.7055,-0.697,-0.6849,-0.6787,-0.6695,-0.6521,-0.6378,-0.63,-0.63,-0.63,-0.6279,-0.5996,-0.5861,-0.5779,-0.5583,-0.545,-0.5395,-0.5395,-0.5395,-0.5395,-0.5395,-0.6207,-0.734,-0.7832,-0.8839,-0.9945,-1.0466,-1.0506,-1.0432,-1.0559,-1.0047,-0.9526,-0.9653,-0.9252,-0.8804,-0.8804,-0.8804,-0.8804,-0.8804,-0.8804,-0.8804,-0.8804,-0.9035,-0.9211,-0.9211,-0.9762,-1.0312,-1.0585,-1.155,-1.2403,-1.2847,-1.2905,-1.2905,-1.2905,-1.2905,-1.2905,-1.2905,-1.2905,-1.2905,-1.2905,-1.2905,-1.2905,-1.2905,-1.2905,-1.2905,-1.2905,-1.2905,-1.2905,-1.2905,-1.2905,-1.2905,-1.2905,-1.2905,-1.2905,0.384,0.0,0.0,0.1699,0.1074,0.0566,0.0097,0.0,0.0,0.0,0.0,0.0,0.0,0.0,0.0,0.0,0.0,0.0,0.0,0.0,0.0,0.0,0.0,-0.0312,-0.1097,-0.1241,-0.1718,-0.2759,-0.2995,-0.3627,-0.4861,-0.5223,-0.5938,-0.7051,-0.7095,-0.7095,-0.7095,-0.7095,-0.7045,-0.6943,-0.6906,-0.6829,-0.6756,-0.6563,-0.6457,-0.6358,-0.6317,-0.63,-0.6282,-0.602,-0.5878,-0.5779,-0.56,-0.5467,-0.5395,-0.5395,-0.5395,-0.5395,-0.5395,-0.5976,-0.6817,-0.7437,-0.8388,-0.9434,-1.0047,-1.0396,-1.0593,-1.0593,-1.0171,-0.9715,-0.9715,-0.9252,-0.8804,-0.8804,-0.8804,-0.8804,-0.8804,-0.8804,-0.8804,-0.8804,-0.8804,-0.8804,-0.8804,-0.9211,-0.9588,-0.9762,-1.0644,-1.15,-1.223,-1.2486,-1.2608,-1.2608,-1.2774,-1.2905,-1.2905,-1.2905,-1.2905,-1.2905,-1.2905,-1.2905,-1.2905,-1.2905,-1.2905,-1.2905,-1.2905,-1.2905,-1.2905,-1.2905,-1.2905,-1.2905,-1.2905,-1.2905,0.0,0.0,0.4277,0.2811,0.2439,0.2008,0.0367,0.0,0.0,0.0,0.0,0.0,0.0,0.0,0.0,0.0,0.0,0.0,0.0,0.0,0.0,0.0,0.0,0.0,0.0,-0.004,-0.0492,-0.159,-0.1797,-0.2361,-0.3611,-0.4776,-0.5938,-0.7051,-0.7095,-0.7095,-0.7095,-0.7095,-0.7095,-0.7088,-0.695,-0.6883,-0.6869,-0.661,-0.6511,-0.6497,-0.6361,-0.63,-0.63,-0.6289,-0.6108,-0.58,-0.5789,-0.5613,-0.5395,-0.5395,-0.5395,-0.5395,-0.5395,-0.5976,-0.6719,-0.6719,-0.7897,-0.9306,-0.9338,-0.9919,-1.0593,-1.0593,-1.0171,-0.9715,-0.9715,-0.9252,-0.8804,-0.8804,-0.8804,-0.8804,-0.8804,-0.8804,-0.8804,-0.8804,-0.8804,-0.8804,-0.8804,-0.8804,-0.9061,-0.9718,-0.984,-1.009,-1.0771,-1.1441,-1.1839,-1.1839,-1.2476,-1.2905,-1.2905,-1.2905,-1.2905,-1.2905,-1.2905,-1.2905,-1.2905,-1.2905,-1.2905,-1.2905,-1.2905,-1.2905,-1.2905,-1.2905,-1.2905,-1.2905,-1.2905,-1.2905,0.0,0.0,0.3848,0.2769,0.2091,0.1395,0.0268,0.0,0.0,0.0,0.0,0.0,0.0,0.0,0.0,0.0,0.0,0.0,0.0,0.0,0.0,0.0,0.0,0.0,0.0,0.0,0.0,-0.0503,-0.0593,-0.1122,-0.232,-0.2771,-0.3931,-0.5894,-0.5983,-0.6337,-0.7095,-0.7095,-0.7095,-0.7095,-0.7048,-0.6977,-0.6879,-0.6715,-0.6569,-0.6504,-0.6361,-0.63,-0.6293,-0.6149,-0.6047,-0.5932,-0.5739,-0.5599,-0.5535,-0.5433,-0.5395,-0.5395,-0.5395,-0.5591,-0.5947,-0.6527,-0.7111,-0.78,-0.8941,-0.9498,-0.9849,-1.0428,-1.0171,-0.9715,-0.9715,-0.9252,-0.8804,-0.8804,-0.8804,-0.8804,-0.8804,-0.8804,-0.8804,-0.8804,-0.8804,-0.8804,-0.8804,-0.8804,-0.8883,-0.9113,-0.9891,-1.0542,-1.0762,-1.099,-1.1141,-1.1141,-1.1749,-1.2163,-1.2163,-1.2608,-1.2905,-1.2905,-1.2905,-1.2905,-1.2905,-1.2905,-1.2905,-1.2905,-1.2905,-1.2905,-1.2905,-1.2905,-1.2905,-1.2905,-1.2905,-1.2905,0.4819,0.4549,0.3992,0.2849,0.2186,0.1477,0.0268,0.0,0.0,0.0,0.0,0.0,0.0,0.0,0.0,0.0,0.0,0.0,0.0,0.0,0.0,0.0,0.0,0.0,0.0,0.0,0.0,0.0,0.0,-0.0519,-0.1743,-0.179,-0.2906,-0.5314,-0.5403,-0.5938,-0.7095,-0.7095,-0.7095,-0.7095,-0.7095,-0.7021,-0.6879,-0.677,-0.6617,-0.6504,-0.6361,-0.63,-0.6293,-0.6156,-0.6078,-0.5969,-0.5759,-0.5633,-0.5569,-0.545,-0.5395,-0.5395,-0.5395,-0.5395,-0.5491,-0.6042,-0.6461,-0.6981,-0.8388,-0.9043,-0.9498,-1.0333,-1.0171,-0.9715,-0.9715,-0.9252,-0.8804,-0.8804,-0.8804,-0.8804,-0.8804,-0.8804,-0.8804,-0.8804,-0.8804,-0.8804,-0.8804,-0.8804,-0.8804,-0.8804,-0.9536,-1.0167,-1.0415,-1.0636,-1.0889,-1.1141,-1.1774,-1.2187,-1.2187,-1.2642,-1.2905,-1.2905,-1.2642,-1.2501,-1.2501,-1.228,-1.2255,-1.251,-1.2501,-1.2642,-1.2905,-1.2905,-1.2905,-1.2905,-1.2905,-1.2905,0.5022,0.5103,0.4724,0.3092,0.2711,0.221,0.0404,0.0,0.0,0.0,0.0,0.0,0.0,0.0,0.0,0.0,0.0,0.0,0.0,0.0,0.0,0.0,0.0,0.0,0.0,0.0,0.0,0.0,0.0,-0.0483,-0.1654,-0.1701,-0.2772,-0.5134,-0.5225,-0.5758,-0.6918,-0.6962,-0.7051,-0.7095,-0.7088,-0.7014,-0.6879,-0.6763,-0.661,-0.6504,-0.6361,-0.63,-0.63,-0.63,-0.6169,-0.5976,-0.5861,-0.5715,-0.5569,-0.545,-0.5395,-0.5395,-0.5395,-0.5395,-0.5395,-0.5395,-0.5947,-0.6817,-0.7735,-0.8581,-0.9428,-1.0313,-1.0157,-0.9708,-0.9666,-0.9239,-0.8804,-0.8804,-0.8804,-0.8804,-0.8804,-0.8804,-0.8804,-0.8804,-0.8804,-0.8804,-0.8804,-0.8804,-0.8804,-0.8804,-0.8804,-0.9035,-0.9666,-1.0287,-1.0939,-1.1591,-1.2295,-1.2749,-1.2749,-1.2774,-1.2774,-1.2774,-1.2138,-1.174,-1.174,-1.1166,-1.1166,-1.1789,-1.1839,-1.2212,-1.2905,-1.2905,-1.2905,-1.2905,-1.2905,-1.2905,0.5049,0.5213,0.491,0.3139,0.2711,0.221,0.0404,0.0,0.0,0.0,0.0,0.0,0.0,0.0,0.0,0.0,0.0,0.0,0.0,0.0,0.0,0.0,0.0,0.0,0.0,0.0,0.0,0.0,0.0,-0.0132,-0.0448,-0.0449,-0.1165,-0.2683,-0.2727,-0.3306,-0.4459,-0.5398,-0.6248,-0.7095,-0.6991,-0.692,-0.6876,-0.6654,-0.6549,-0.6504,-0.6361,-0.63,-0.63,-0.63,-0.6169,-0.5976,-0.5861,-0.5715,-0.5569,-0.545,-0.5395,-0.5395,-0.5395,-0.5395,-0.5395,-0.5395,-0.5557,-0.6013,-0.754,-0.8156,-0.8607,-0.9879,-0.9967,-0.9633,-0.9384,-0.9058,-0.8804,-0.8804,-0.8804,-0.8804,-0.8804,-0.8804,-0.8804,-0.8804,-0.8804,-0.8804,-0.8804,-0.8804,-0.8804,-0.8804,-0.8804,-0.8857,-0.9035,-0.9211,-0.9387,-0.9536,-1.0174,-1.0576,-1.0576,-1.1057,-1.1334,-1.1334,-1.1166,-1.104,-1.104,-1.1366,-1.1641,-1.1789,-1.2344,-1.2715,-1.2905,-1.2905,-1.2905,-1.2905,-1.2905,-1.2905,0.5192,0.5327,0.4957,0.3145,0.2711,0.2236,0.0398,0.0,0.0,0.0,0.0,0.0,0.0,0.0,0.0,0.0,0.0,0.0,0.0,0.0,0.0,0.0,0.0,0.0,0.0,0.0,0.0,0.0,0.0,0.0,0.0,0.0,-0.0539,-0.1745,-0.179,-0.237,-0.357,-0.4776,-0.5714,-0.6337,-0.6734,-0.6852,-0.682,-0.658,-0.6477,-0.6416,0.0,-0.63,-0.63,-0.63,-0.6169,-0.5976,-0.5861,-0.5715,-0.5569,-0.545,-0.5395,-0.5395,-0.5395,-0.5395,-0.5395,-0.5395,-0.5395,-0.5719,-0.7474,-0.7994,-0.8323,-0.9881,-1.01,-0.9806,-0.9512,-0.9191,-0.8938,-0.8838,-0.8804,-0.8804,-0.8804,-0.8804,-0.8804,-0.8804,-0.8804,-0.8804,-0.8804,-0.8804,-0.8804,-0.8804,-0.8804,-0.8804,-0.8804,-0.9061,-0.9361,-0.964,-1.0012,-1.0244,-1.0244,-1.0593,-1.0788,-1.0788,-1.0517,-1.0491,-1.0788,-1.0889,-1.1191,-1.1789,-1.2212,-1.2584,-1.2905,-1.2905,-1.2905,-1.2905,-1.2905,-1.2905,0.5351,0.5395,0.4957,0.3145,0.2702,0.2218,0.0422,0.0,0.0,0.0,0.0,0.0,0.0,0.0,0.0,0.0,0.0,0.0,0.0,0.0,0.0,0.0,0.0,0.0,0.0,0.0,0.0,0.0,0.0,0.0,0.0,0.0,-0.0494,-0.1522,-0.1567,-0.2147,-0.3349,-0.4552,-0.5225,-0.5403,-0.6408,-0.6827,-0.6695,-0.6522,-0.6416,-0.63,0.0,0.0,-0.63,-0.63,-0.6159,-0.5949,-0.5854,-0.5701,-0.5545,-0.5443,-0.5395,-0.5395,-0.5395,-0.5395,-0.5395,-0.5395,-0.5395,-0.5719,-0.7474,-0.7994,-0.8345,-1.0059,-1.0287,-0.9993,-0.9699,-0.9406,-0.9091,-0.8871,-0.8804,-0.8804,-0.8804,-0.8804,-0.8804,-0.8804,-0.8804,-0.8804,-0.8804,-0.8804,-0.8804,-0.8804,-0.8804,-0.8804,-0.8804,-0.9316,-0.9884,-1.0466,-1.0542,-1.0542,-1.0542,-1.0542,-1.0542,-1.0542,-0.9994,-0.9917,-1.0517,-1.0064,-1.0338,-1.1516,-1.1715,-1.2104,-1.274,-1.2856,-1.2905,-1.2905,-1.2905,-1.2905,0.5351,0.5395,0.4957,0.3145,0.2696,0.2228,0.042,0.0,0.0,0.0,0.0,0.0,0.0,0.0,0.0,0.0,0.0,0.0,0.0,0.0,0.0,0.0,0.0,0.0,0.0,0.0,0.0,0.0,0.0,0.0,0.0,0.0,-0.009,-0.0314,-0.0314,-0.0897,-0.2102,-0.3304,-0.4419,-0.5401,-0.6312,-0.6725,-0.6692,-0.646,-0.6323,-0.63,0.0,0.0,-0.63,-0.63,-0.6132,-0.5837,-0.5813,-0.5637,-0.5433,-0.5405,-0.5395,-0.5395,-0.5395,-0.5395,-0.5395,-0.5395,-0.5395,-0.5719,-0.7474,-0.7994,-0.8308,-0.9785,-0.9987,-0.9693,-0.9364,-0.9071,-0.8871,-0.8818,-0.8804,-0.8804,-0.8804,-0.8804,-0.8804,-0.8804,-0.8804,-0.8804,-0.8804,-0.8804,-0.8804,-0.8804,-0.8804,-0.8804,-0.8804,-0.891,-0.9008,-0.9133,-0.9133,-0.9133,-0.9133,-0.9133,-0.9133,-0.9133,-0.9035,-0.9035,-0.9133,-0.9562,-0.9917,-1.0141,-1.1241,-1.1864,-1.1996,-1.2608,-1.2905,-1.2905,-1.2905,-1.2905,0.5351,0.5057,0.435,0.3045,0.2329,0.1632,0.0316,0.0,0.0,0.0,0.0,0.0,0.0,0.0,0.0,0.0,0.0,0.0,0.0,0.0,0.0,0.0,0.0,0.0,0.0,0.0,0.0,0.0,0.0,0.0,0.0,0.0,0.0,0.0,0.0,-0.0584,-0.179,-0.2992,-0.4196,-0.5401,-0.6287,-0.6702,-0.6692,-0.6433,-0.63,-0.63,0.0,0.0,-0.6293,-0.6173,-0.6006,-0.5793,-0.5722,-0.559,-0.5395,-0.5395,-0.5395,-0.5395,-0.5395,-0.5395,-0.5395,-0.5395,-0.5395,-0.5657,-0.692,-0.7307,-0.7548,-0.8693,-0.924,-0.9393,-0.8904,-0.9015,-0.9185,-0.8878,-0.8804,-0.8804,-0.8804,-0.8804,-0.8804,-0.8804,-0.8804,-0.8804,-0.8804,-0.8804,-0.8804,-0.8804,-0.8804,-0.8804,-0.8804,-0.8804,-0.8804,-0.8804,-0.8804,-0.8804,-0.8804,-0.8804,-0.8804,-0.8804,-0.8804,-0.8956,-0.9316,-0.964,-0.9969,-1.0312,-1.0939,-1.1458,-1.1789,-1.2163,-1.2535,-1.2905,-1.2905,-1.2905,0.5281,0.4665,0.3782,0.2911,0.1993,0.1078,0.0186,0.0,0.0,0.0,0.0,0.0,0.0,0.0,0.0,0.0,0.0,0.0,0.0,0.0,0.0,0.0,0.0,0.0,0.0,0.0,0.0,0.0,0.0,0.0,0.0,0.0,0.0,0.0,0.0,-0.0584,-0.179,-0.2992,-0.4184,-0.5365,-0.6271,-0.6681,-0.6644,-0.6419,-0.63,-0.63,0.0,0.0,0.0,-0.6095,-0.5902,-0.5786,-0.5644,-0.5532,-0.5395,-0.5395,-0.5395,-0.5395,-0.5395,-0.5395,-0.5395,-0.5395,-0.5395,-0.5557,-0.6429,-0.6687,-0.6883,-0.7767,-0.8409,-0.8754,-0.8283,-0.8724,-0.9203,-0.8864,-0.8804,-0.8804,-0.8804,-0.8804,-0.8804,-0.8804,-0.8804,-0.8804,-0.8804,-0.8804,-0.8804,-0.8804,-0.8804,-0.8804,-0.8804,-0.8804,-0.8804,-0.8804,-0.8804,-0.8804,-0.8804,-0.8804,-0.8804,-0.8804,-0.8804,-0.9035,-0.9562,-0.9588,-0.984,-1.0364,-1.0636,-1.1065,-1.1591,-1.1898,-1.232,-1.2905,-1.2905,-1.2905,0.5117,0.4561,0.3782,0.2911,0.1994,0.1082,0.0185,0.0,0.0,0.0,0.0,0.0,0.0,0.0,0.0,0.0,0.0,0.0,0.0,0.0,0.0,0.0,0.0,0.0,0.0,0.0,0.0,0.0,0.0,0.0,0.0,0.0,0.0,0.0,0.0,-0.0584,-0.179,-0.2992,-0.411,-0.5158,-0.6182,-0.6627,-0.6528,-0.6371,-0.63,-0.63,0.0,0.0,0.0,-0.6095,-0.5902,-0.5786,-0.5644,-0.5532,-0.5395,-0.5395,-0.5395,-0.5395,-0.5395,-0.5395,-0.5395,-0.5395,-0.5395,-0.5557,-0.6429,-0.6687,-0.6883,-0.7767,-0.7762,-0.7465,-0.7418,-0.7655,-0.803,-0.8659,-0.8804,-0.8804,-0.8804,-0.8804,-0.8804,-0.8804,-0.8804,-0.8804,-0.8804,-0.8804,-0.8804,-0.8804,-0.8804,-0.8804,-0.8804,-0.8804,-0.8804,-0.8804,-0.8804,-0.8804,-0.8804,-0.8804,-0.8804,-0.8804,-0.8804,-0.8831,-0.8883,-0.8883,-0.8936,-0.8982,-1.0192,-1.0838,-1.0889,-1.2172,-1.2822,-1.2905,-1.2905,-1.2905,0.4284,0.3719,0.2887,0.2067,0.1189,0.0432,0.0093,0.0,0.0,0.0,0.0,0.0,0.0,0.0,0.0,0.0,0.0,0.0,0.0,0.0,0.0,0.0,0.0,0.0,0.0,0.0,0.0,0.0,0.0,0.0,0.0,0.0,0.0,0.0,0.0,-0.058,-0.18,-0.228,-0.3403,-0.5097,-0.5468,-0.5919,-0.6508,-0.6364,-0.63,0.0,0.0,0.0,0.0,-0.5993,-0.5857,-0.5779,-0.5579,-0.545,-0.5395,-0.5395,-0.5395,-0.5395,-0.5395,-0.5395,-0.5378,-0.5254,-0.5284,-0.5458,-0.5815,-0.5914,-0.5976,-0.6338,-0.6604,-0.6734,-0.6556,-0.6772,-0.7235,-0.7969,-0.8129,-0.8262,-0.8699,-0.8804,-0.8804,-0.8804,-0.8804,-0.8804,-0.8804,-0.8804,-0.8804,-0.8804,-0.8804,-0.8804,-0.8804,-0.8804,-0.8804,-0.8804,-0.8804,-0.8804,-0.8804,-0.8804,-0.8804,-0.8804,-0.8804,-0.8804,-0.8804,-0.8804,-0.8804,-0.8804,-0.9309,-0.9788,-1.0192,-1.0754,-1.1443,-1.2236,-1.2236,-1.2476,0.3397,0.2787,0.2,0.1435,0.0635,0.0,0.0,0.0,0.0,0.0,0.0,0.0,0.0,0.0,0.0,0.0,0.0,0.0,0.0,0.0,0.0,0.0,0.0,0.0,0.0,0.0,0.0,0.0,0.0,0.0,0.0,0.0,0.0,0.0,0.0,-0.0568,-0.1802,-0.1802,-0.2734,-0.4578,-0.4478,-0.4999,-0.5964,-0.5869,-0.5983,0.0,0.0,0.0,0.0,-0.5908,-0.5776,-0.5715,-0.5494,-0.5395,-0.5395,-0.5395,-0.5395,-0.5395,-0.5395,-0.5395,-0.5378,-0.5233,-0.5274,-0.5395,-0.5395,-0.5395,-0.5395,-0.5395,-0.5667,-0.5944,-0.5859,-0.6229,-0.6777,-0.7536,-0.7857,-0.8156,-0.8699,-0.8804,-0.8804,-0.8804,-0.8804,-0.8804,-0.8804,-0.8804,-0.8804,-0.8804,-0.8804,-0.8804,-0.8804,-0.8804,-0.8804,-0.8804,-0.8804,-0.8804,-0.8804,-0.8804,-0.8804,-0.8804,-0.8804,-0.8804,-0.8804,-0.8804,-0.8804,-0.8804,-0.8982,-0.9335,-0.9788,-0.9987,-1.0686,-1.1789,-1.1789,-1.2187,0.2523,0.1937,0.1311,0.1304,0.0647,0.0,0.0,0.0,0.0,0.0,0.0,0.0,0.0,0.0,0.0,0.0,0.0,0.0,0.0,0.0,0.0,0.0,0.0,0.0,0.0,0.0,0.0,0.0,0.0,0.0,0.0,0.0,0.0,0.0,0.0,-0.0589,-0.1803,-0.1803,-0.2322,-0.332,-0.3401,-0.3878,-0.4727,-0.4727,0.0,0.0,0.0,0.0,0.0,-0.5864,-0.5718,-0.5579,-0.5453,-0.5395,-0.5395,-0.5395,-0.5395,-0.5395,-0.5395,-0.5395,-0.5395,-0.5392,-0.5392,-0.5395,-0.5395,-0.5395,-0.5395,-0.5395,-0.518,-0.4996,-0.5397,-0.6036,-0.6777,-0.7536,-0.8262,-0.8778,-0.8804,-0.8804,-0.8804,-0.8804,-0.8804,-0.8804,-0.8804,-0.8804,-0.8804,-0.8804,-0.8804,-0.8804,-0.8804,-0.8804,-0.8804,-0.8804,-0.8804,-0.8804,-0.8804,-0.8804,-0.8804,-0.8804,-0.8804,-0.8804,-0.8804,-0.8804,-0.8804,-0.8804,-0.9458,-0.9788,-0.9814,-1.0466,-1.1141,-1.1789,-1.1789,-1.2187,0.2923,0.2497,0.1787,0.1289,0.0576,0.0,0.0,0.0,0.0,0.0,0.0,0.0,0.0,0.0,0.0,0.0,0.0,0.0,0.0,0.0,0.0,0.0,0.0,0.0,0.0,0.0,0.0,0.0,0.0,0.0,0.0,0.0,0.0,0.0,0.0,-0.0167,-0.0575,-0.0575,-0.1104,-0.2149,-0.2155,-0.2678,-0.3593,0.0,0.0,0.0,0.0,0.0,0.0,-0.5759,-0.563,-0.5576,-0.5453,-0.5395,-0.5395,-0.5395,-0.5395,-0.5395,-0.5395,-0.5395,-0.5378,-0.524,-0.5203,-0.5186,-0.5087,-0.5128,-0.5162,-0.4962,-0.4836,-0.4773,-0.4817,-0.4979,-0.5332,-0.6032,-0.6767,-0.7423,-0.7937,-0.8454,-0.8804,-0.8804,-0.8804,-0.8804,-0.8804,-0.8804,-0.8804,-0.8804,-0.8804,-0.8804,-0.8804,-0.8804,-0.8804,-0.8804,-0.8804,-0.8804,-0.8804,-0.8804,-0.8804,-0.8804,-0.8804,-0.8804,-0.8804,-0.8804,-0.8804,-0.8804,-0.9008,-0.9106,-0.9106,-0.9788,-1.0686,-1.1814,-1.232,-1.2691,0.0,0.208,0.1879,0.0917,0.0562,0.0352,0.0058,0.0,0.0,0.0,0.0,0.0,0.0,0.0,0.0,0.0,0.0,0.0,0.0,0.0,0.0,0.0,0.0,0.0,0.0,0.0,0.0,0.0,0.0,0.0,0.0,0.0,0.0,0.0,0.0,0.0,0.0,0.0,-0.0321,-0.1002,-0.0987,-0.1528,-0.2542,0.0,0.0,0.0,0.0,0.0,0.0,-0.5524,-0.5555,-0.5528,-0.5433,-0.5395,-0.5395,-0.5395,-0.5395,-0.5395,-0.5395,-0.5395,-0.5378,-0.525,-0.5147,-0.5063,-0.4894,-0.4904,-0.4968,-0.4758,-0.4691,-0.4657,-0.4532,-0.4677,-0.4976,-0.5406,-0.6064,-0.6723,-0.7182,-0.7643,-0.8049,-0.8321,-0.8156,-0.8156,-0.8699,-0.856,-0.848,-0.8752,-0.8804,-0.8804,-0.8804,-0.8804,-0.8804,-0.8804,-0.8804,-0.8804,-0.8804,-0.8804,-0.8804,-0.8804,-0.8804,-0.8804,-0.8804,-0.8804,-0.8804,-0.8804,-0.8804,-0.8804,-0.8804,-0.9458,-1.0244,-1.1065,-1.2039,-1.2476,0.0,0.0973,0.1691,0.0391,0.0572,0.0898,0.0169,0.0,0.0,0.0,0.0,0.0,0.0,0.0,0.0,0.0,0.0,0.0,0.0,0.0,0.0,0.0,0.0,0.0,0.0,0.0,0.0,0.0,0.0,0.0,0.0,0.0,0.0,0.0,0.0,0.0,0.0,0.0,0.0,0.0,0.0,-0.051,-0.1485,0.0,0.0,0.0,0.0,0.0,0.0,-0.5051,-0.5352,-0.5292,-0.5292,-0.5326,-0.5395,-0.5395,-0.5395,-0.5395,-0.5395,-0.5395,-0.5392,-0.5371,-0.5233,-0.5029,-0.4765,-0.4782,-0.487,-0.4718,-0.4674,-0.4672,-0.4528,-0.4976,-0.5433,-0.5433,-0.5982,-0.6529,-0.6529,-0.6561,-0.6804,-0.7482,-0.7074,-0.7047,-0.848,-0.8156,-0.7937,-0.8699,-0.8804,-0.8804,-0.8804,-0.8804,-0.8804,-0.8804,-0.8804,-0.8804,-0.8804,-0.8804,-0.8804,-0.8804,-0.8804,-0.8804,-0.8804,-0.8804,-0.8804,-0.8804,-0.8804,-0.8831,-0.8883,-0.9484,-0.9814,-0.9891,-1.1141,-1.174,0.0169,0.0,0.1804,0.1048,0.0883,0.0767,0.0,0.0,0.0,0.0,0.0,0.0,0.0,0.0,0.0,0.0,0.0,0.0,0.0,0.0,0.0,0.0,0.0,0.0,0.0,0.0,0.0,0.0,0.0,0.0,0.0,0.0,0.0,0.0,0.0,0.0,0.0,0.0,0.0,0.0,0.0,-0.0117,0.0,0.0,0.0,0.0,0.0,0.0,0.0,-0.3341,-0.377,-0.4317,-0.4317,-0.4755,-0.5395,-0.5395,-0.5395,-0.5395,-0.5395,-0.5395,-0.5358,-0.5098,-0.4999,-0.4911,-0.4638,-0.4651,-0.4711,-0.4586,-0.4545,-0.4535,-0.4498,-0.4625,-0.4732,-0.4732,-0.525,-0.576,-0.576,-0.6199,-0.6642,-0.6831,-0.6723,-0.6885,-0.7803,-0.7803,-0.7937,-0.8699,-0.8804,-0.8804,-0.8804,-0.8804,-0.8804,-0.8804,-0.8804,-0.8804,-0.8804,-0.8804,-0.8804,-0.8804,-0.8804,-0.8804,-0.8804,-0.8804,-0.8804,-0.8804,-0.8804,-0.9061,-0.9562,-0.971,-1.0064,-1.0559,-1.0889,-1.104,0.0425,0.1443,0.2192,0.0917,0.1063,0.1231,0.0223,0.0,0.0,0.0,0.0,0.0,0.0,0.0,0.0,0.0,0.0,0.0,0.0,0.0,0.0,0.0,0.0,0.0,0.0,0.0,0.0,0.0,0.0,0.0,0.0,0.0,0.0,0.0,0.0,0.0,0.0,0.0,0.0,0.0,0.0,0.0,0.0,0.0,0.0,0.0,0.0,0.0,-0.2189,-0.256,-0.2978,-0.3447,-0.3846,-0.4317,-0.4821,-0.5226,-0.5395,-0.5395,-0.5395,-0.5395,-0.5344,-0.5016,-0.4887,-0.486,-0.4583,-0.4549,-0.4597,-0.4511,-0.4491,-0.4491,-0.4491,-0.4491,-0.4491,-0.4491,-0.4787,-0.503,-0.503,-0.5359,-0.5714,-0.6036,-0.585,-0.5959,-0.702,-0.6907,-0.6929,-0.767,-0.8076,-0.8295,-0.8295,-0.8593,-0.8804,-0.8804,-0.8804,-0.8804,-0.8804,-0.8804,-0.8804,-0.8804,-0.8804,-0.8804,-0.8804,-0.8804,-0.8804,-0.8804,-0.8804,-0.8982,-0.9335,-0.9335,-0.9692,-1.0338,-1.0661,-1.0965,0.0754,0.1932,0.2509,0.0606,0.1167,0.1803,0.0336,0.0,0.0,0.0,0.0,0.0,0.0,0.0,0.0,0.0,0.0,0.0,0.0,0.0,0.0,0.0,0.0,0.0,0.0,0.0,0.0,0.0,0.0,0.0,0.0,0.0,0.0,0.0,0.0,0.0,0.0,0.0,0.0,0.0,0.0,0.0,0.0,0.0,0.0,0.0,0.0,0.0,-0.1174,-0.1977,-0.2377,-0.2544,-0.3311,-0.368,-0.3915,-0.4855,-0.5176,-0.516,-0.5292,-0.5358,-0.5313,-0.5006,-0.4874,-0.483,-0.4576,-0.4491,-0.4491,-0.4491,-0.4491,-0.4491,-0.4491,-0.4491,-0.4491,-0.4491,-0.4491,-0.4491,-0.4491,-0.4491,-0.468,-0.5246,-0.4893,-0.4901,-0.6204,-0.6009,-0.5923,-0.6669,-0.7396,-0.7857,-0.7857,-0.8401,-0.8804,-0.8804,-0.8804,-0.8804,-0.8804,-0.8804,-0.8804,-0.8804,-0.8804,-0.8804,-0.8804,-0.8804,-0.8804,-0.8804,-0.8804,-0.8804,-0.8804,-0.8804,-0.908,-0.9666,-1.0236,-1.0788,0.0872,0.1688,0.2081,0.1028,0.1387,0.1674,0.0306,0.0,0.0,0.0,0.0,0.0,0.0,0.0,0.0,0.0,0.0,0.0,0.0,0.0,0.0,0.0,0.0,0.0,0.0,0.0,0.0,0.0,0.0,0.0,0.0,0.0,0.0,0.0,0.0,0.0,0.0,0.0,0.0,0.0,0.0,0.0,0.0,0.0,0.0,0.0,0.0,0.0,-0.0202,-0.037,-0.084,-0.1541,-0.1675,-0.2209,-0.3011,-0.3882,-0.4153,-0.4161,-0.4874,-0.5133,-0.5106,-0.4941,-0.483,-0.4694,-0.4542,-0.4491,-0.4491,-0.4491,-0.4491,-0.4491,-0.4491,-0.4491,-0.4491,-0.4491,-0.4491,-0.4491,-0.4491,-0.4491,-0.4515,-0.4625,-0.457,-0.4759,-0.5542,-0.6091,-0.6696,-0.7423,-0.8156,-0.8619,-0.8619,-0.8725,-0.8804,-0.8804,-0.8804,-0.8804,-0.8804,-0.8804,-0.8804,-0.8804,-0.8804,-0.8804,-0.8804,-0.8804,-0.8804,-0.8804,-0.8804,-0.8804,-0.8804,-0.8804,-0.8857,-0.8956,-0.9061,-0.9159,0.1213,0.1828,0.2172,0.2029,0.2424,0.2591,0.1573,0.0,0.0,0.0,0.0,0.0,0.0,0.0,0.0,0.0,0.0,0.0,0.0,0.0,0.0,0.0,0.0,0.0,0.0,0.0,0.0,0.0,0.0,0.0,0.0,0.0,0.0,0.0,0.0,0.0,0.0,0.0,0.0,0.0,0.0,0.0,0.0,0.0,0.0,0.0,0.0,0.0,0.0,0.0,-0.0234,-0.0658,-0.11,-0.1579,-0.2052,-0.296,-0.3501,-0.3844,-0.4261,-0.4665,-0.4961,-0.4843,-0.4748,-0.4663,-0.4535,-0.4491,-0.4491,-0.4491,-0.4491,-0.4491,-0.4491,-0.4491,-0.4491,-0.4491,-0.4491,-0.4491,-0.4491,-0.4491,-0.4491,-0.4491,-0.4491,-0.4598,-0.4893,-0.525,-0.5578,-0.5932,-0.6578,-0.7004,-0.7004,-0.7717,-0.8209,-0.8209,-0.856,-0.8804,-0.8804,-0.8804,-0.8804,-0.8804,-0.8804,-0.8804,-0.8804,-0.8804,-0.8804,-0.8804,-0.8804,-0.8804,-0.8804,-0.8804,-0.8982,-0.9335,-0.9335,-0.9536,0.156,0.2111,0.2488,0.3033,0.0,0.3309,0.266,0.1983,0.0,0.0,0.0,0.0,0.0,0.0,0.0,0.0,0.0,0.0,0.0,0.0,0.0,0.0,0.0,0.0,0.0,0.0,0.0,0.0,0.0,0.0,0.0,0.0,0.0,0.0,0.0,0.0,0.0,0.0,0.0,0.0,0.0,0.0,0.0,0.0,0.0,0.0,0.0,0.0,0.0,0.0,0.0,-0.0064,-0.0724,-0.1132,-0.137,-0.2068,-0.2839,-0.3549,-0.3494,-0.3994,-0.4573,-0.4461,-0.4548,-0.4644,-0.4525,-0.4491,-0.4491,-0.4491,-0.4491,-0.4491,-0.4491,-0.4491,-0.4491,-0.4491,-0.4491,-0.4491,-0.4491,-0.4491,-0.4491,-0.4491,-0.4491,-0.4491,-0.4491,-0.4625,-0.4732,-0.4732,-0.5328,-0.576,-0.576,-0.674,-0.745,-0.745,-0.7937,-0.8348,-0.8533,-0.8374,-0.8427,-0.8785,-0.8804,-0.8804,-0.8804,-0.8804,-0.8804,-0.8804,-0.8804,-0.8804,-0.8804,-0.8804,-0.9061,-0.9562,-0.9562,-0.984,0.1779,0.2418,0.3027,0.3735,0.3528,0.0,0.2604,0.232,0.0,0.2543,0.0,0.0,0.0,0.0,0.0,0.0,0.0,0.0,0.0,0.0,0.0,0.0,0.0,0.0,0.0,0.0,0.0,0.0,0.0,0.0,0.0,0.0,0.0,0.0,0.0,0.0,0.0,0.0,0.0,0.0,0.0,0.0,0.0,0.0,0.0,0.0,0.0,0.0,0.0,0.0,0.0,0.0,-0.0064,-0.0581,-0.1308,-0.1237,-0.1865,-0.2764,-0.2625,-0.3064,-0.3704,-0.3693,-0.4045,-0.4505,-0.4494,-0.4491,-0.4491,-0.4491,-0.4491,-0.4491,-0.4491,-0.4491,-0.4491,-0.4491,-0.4491,-0.4491,-0.4491,-0.4491,-0.4491,-0.4491,-0.4491,-0.4491,-0.4491,-0.5003,-0.5433,-0.5433,-0.6064,-0.6529,-0.6529,-0.6615,-0.6669,-0.6669,-0.6723,-0.7047,-0.7723,-0.7155,-0.7343,-0.8725,-0.8804,-0.8804,-0.8804,-0.8804,-0.8804,-0.8804,-0.8804,-0.8804,-0.8804,-0.8804,-0.8831,-0.8883,-0.8883,-0.891,0.1594,0.2158,0.2714,0.3754,0.3901,0.0,0.0,0.3507,0.3241,0.3473,0.0,0.0,0.0,0.0,0.0,0.0,0.0,0.0,0.0,0.0,0.0,0.0,0.0,0.0,0.0,0.0,0.0,0.0,0.0,0.0,0.0,0.0,0.0,0.0,0.0,0.0,0.0,0.0,0.0,0.0,0.0,0.0,0.0,0.0,0.0,0.0,0.0,0.0,0.0,0.0,0.0,0.0,0.0,-0.0212,-0.0499,-0.0449,-0.0977,-0.17,-0.165,-0.2111,-0.2728,-0.2728,-0.3212,-0.3818,-0.3763,-0.4098,-0.4491,-0.4491,-0.4491,-0.4491,-0.4491,-0.4491,-0.4491,-0.4491,-0.4491,-0.4491,-0.4491,-0.4491,-0.4491,-0.4491,-0.4491,-0.4491,-0.4491,-0.4708,-0.4869,-0.4869,-0.5117,-0.5281,-0.5281,-0.5655,-0.5923,-0.5923,-0.634,-0.6723,-0.6993,-0.675,-0.7047,-0.8049,-0.8103,-0.8321,-0.8785,-0.8804,-0.8804,-0.8804,-0.8804,-0.8804,-0.8804,-0.8804,-0.8804,-0.8804,-0.8804,-0.8804,0.1571,0.213,0.2663,0.3742,0.0,0.0,0.4623,0.4385,0.4144,0.0,0.0,0.0,0.0,0.0,0.0,0.0,0.0,0.0,0.0,0.0,0.0,0.0,0.0,0.0,0.0,0.0,0.0,0.0,0.0,0.0,0.0,0.0,0.0,0.0,0.0,0.0,0.0,0.0,0.0,0.0,0.0,0.0,0.0,0.0,0.0,0.0,0.0,0.0,0.0,0.0,0.0,0.0,0.0,0.0,0.0,0.0,-0.0319,-0.0752,-0.0752,-0.1224,-0.1842,-0.1842,-0.2371,-0.301,-0.2954,-0.3345,-0.3818,-0.407,-0.4125,-0.4181,-0.4436,-0.4491,-0.4491,-0.4491,-0.4491,-0.4491,-0.4491,-0.4491,-0.4491,-0.4491,-0.4491,-0.4491,-0.4491,-0.4491,-0.4491,-0.4491,-0.4491,-0.4491,-0.4491,-0.4893,-0.5191,-0.5191,-0.5632,-0.6014,-0.6231,-0.6068,-0.634,-0.7289,-0.7122,-0.7557,-0.8752,-0.8804,-0.8804,-0.8804,-0.8804,-0.8804,-0.8804,-0.8804,-0.8804,-0.8804,-0.8804,-0.8804,0.178,0.2441,0.3063,0.0,0.0,0.0,0.4623,0.4694,0.4849,0.0,0.0,0.0,0.0,0.0,0.0,0.0,0.0,0.0,0.0,0.0,0.0,0.0,0.0,0.0,0.0,0.0,0.0,0.0,0.0,0.0,0.0,0.0,0.0,0.0,0.0,0.0,0.0,0.0,0.0,0.0,0.0,0.0,0.0,0.0,0.0,0.0,0.0,0.0,0.0,0.0,0.0,0.0,0.0,0.0,0.0,0.0,0.0,0.0,0.0,-0.0476,-0.109,-0.109,-0.1591,-0.2202,-0.2202,-0.2202,-0.2343,-0.3093,-0.3287,-0.3483,-0.4267,-0.4491,-0.4491,-0.4491,-0.4491,-0.4491,-0.4491,-0.4491,-0.4491,-0.4491,-0.4491,-0.4491,-0.4491,-0.4491,-0.4491,-0.4491,-0.4491,-0.4491,-0.4491,-0.4491,-0.4491,-0.4491,-0.4491,-0.4759,-0.5433,-0.4869,-0.5089,-0.6507,-0.5923,-0.6492,-0.8699,-0.8778,-0.8778,-0.8804,-0.8804,-0.8804,-0.8804,-0.8804,-0.8804,-0.8804,-0.8804,-0.8804,0.1057,0.1796,0.0,0.3216,0.0,0.0,0.0,0.4772,0.0,0.0,0.0,0.0,0.0,0.0,0.0,0.0,0.0,0.0,0.0,0.0,0.0,0.0,0.0,0.0,0.0,0.0,0.0,0.0,0.0,0.0,0.0,0.0,0.0,0.0,0.0,0.0,0.0,0.0,0.0,0.0,0.0,0.0,0.0,0.0,0.0,0.0,0.0,0.0,0.0,0.0,0.0,0.0,0.0,0.0,0.0,0.0,0.0,0.0,0.0,-0.014,-0.0336,-0.0336,-0.0838,-0.1424,-0.1424,-0.1786,-0.2259,-0.2454,-0.2536,-0.2593,-0.2815,-0.3262,-0.379,-0.4377,-0.4491,-0.4491,-0.4491,-0.4491,-0.4491,-0.4491,-0.4491,-0.4491,-0.4491,-0.4491,-0.4491,-0.4491,-0.4491,-0.4491,-0.4491,-0.4491,-0.4491,-0.4491,-0.4491,-0.457,-0.4787,-0.4625,-0.5089,-0.6507,-0.6394,-0.6799,-0.7963,-0.8023,-0.8262,-0.8778,-0.8804,-0.8804,-0.8804,-0.8804,-0.8804,-0.8804,-0.8804,-0.8804,0.1151,0.1807,0.0,0.0,0.0,0.0,0.0,0.0,0.0,0.0,0.0,0.0,0.0,0.0,0.0,0.0,0.0,0.0,0.0,0.0,0.0,0.0,0.0,0.0,0.0,0.0,0.0,0.0,0.0,0.0,0.0,0.0,0.0,0.0,0.0,0.0,0.0,0.0,0.0,0.0,0.0439,0.0292,0.0,0.0,0.0,0.0,0.0,0.0,0.0,0.0,0.0,0.0,0.0,0.0,0.0,0.0,0.0,0.0,0.0,0.0,0.0,0.0,-0.0308,-0.0671,-0.0671,-0.0978,-0.1396,-0.1675,-0.1758,-0.1898,-0.2508,-0.2982,-0.3428,-0.3901,-0.4267,-0.4491,-0.4491,-0.4491,-0.4491,-0.4491,-0.4491,-0.4491,-0.4491,-0.4491,-0.4491,-0.4491,-0.4491,-0.4491,-0.4491,-0.4491,-0.4491,-0.4491,-0.4491,-0.4491,-0.4491,-0.4491,-0.4873,-0.5714,-0.5773,-0.6095,-0.6794,-0.7664,-0.8342,-0.8778,-0.8804,-0.8804,-0.8804,-0.8804,-0.8804,-0.8804,-0.8804,-0.8804,0.1626,0.0,0.0,0.0,0.0,0.0,0.0,0.0,0.0,0.0,0.0,0.0,0.0,0.0,0.0,0.0,0.0,0.0,0.0,0.0,0.0,0.0,0.0,0.0,0.0,0.0,0.0,0.0,0.0,0.0,0.0,0.0,0.0,0.0,0.0,0.0,0.0,0.0,0.0,0.0,0.0,0.0811,0.0084,0.0028,0.0,0.0,0.0,0.0,0.0,0.0,0.0,0.0,0.0,0.0,0.0,0.0,0.0,0.0,0.0,0.0,0.0,0.0,0.0,0.0,0.0,0.0,-0.014,-0.0895,-0.109,-0.1452,-0.2899,-0.3287,-0.3287,-0.3287,-0.3901,-0.4491,-0.4491,-0.4491,-0.4491,-0.4491,-0.4491,-0.4491,-0.4491,-0.4491,-0.4491,-0.4491,-0.4491,-0.4491,-0.4491,-0.4491,-0.4491,-0.4491,-0.4491,-0.4491,-0.4491,-0.4491,-0.4515,-0.4598,-0.4598,-0.4897,-0.5569,-0.7471,-0.8533,-0.8586,-0.8586,-0.8586,-0.8586,-0.8586,-0.8586,-0.8586,-0.8672,-0.8699,0.0,0.133,0.0,0.0,0.0,0.0,0.0,0.0,0.0,0.0,0.0,0.0,0.0,0.0,0.0,0.0,0.0,0.0,0.0,0.0,0.0,0.0,0.0,0.0,0.0,0.0,0.0,0.0,0.0,0.0,0.0,0.0,0.0,0.0,0.0,0.0,0.0,0.0,0.0,0.0,0.1959,0.1563,0.0838,0.0252,0.0,0.0,0.0,0.0,0.0,0.0,0.0,0.0,0.0,0.0,0.0,0.0,0.0,0.0,0.0,0.0,0.0,0.0,0.0,0.0,0.0,0.0,-0.014,-0.0895,-0.109,-0.1312,-0.2232,-0.2871,-0.3287,-0.3287,-0.3901,-0.4491,-0.4491,-0.4491,-0.4491,-0.4491,-0.4491,-0.4491,-0.4491,-0.4491,-0.4491,-0.4491,-0.4491,-0.4491,-0.4491,-0.4491,-0.4491,-0.4491,-0.4491,-0.4491,-0.4491,-0.4491,-0.4732,-0.5242,-0.5296,-0.5601,-0.634,-0.6276,-0.6492,-0.7074,-0.7074,-0.7074,-0.7074,-0.7074,-0.7074,-0.7074,-0.767,-0.7943,0.0,0.0,0.0,0.0,0.0,0.0,0.0,0.0,0.0,0.0,0.0,0.0,0.0,0.0,0.0,0.0,0.0,0.0,0.0,0.0,0.0,0.0,0.0,0.0,0.0,0.0,0.0,0.0,0.0,0.0,0.0,0.0,0.0,0.0,0.0,0.0,0.4036,0.3965,0.3511,0.273,0.273,0.2147,0.1062,0.0336,0.0,0.0,0.0,0.0,0.0,0.0,0.0,0.0,0.0,0.0,0.0,0.0,0.0,0.0,0.0,0.0,0.0,0.0,0.0,0.0,0.0,0.0,-0.0084,-0.0476,-0.056,-0.0755,-0.148,-0.2232,-0.2871,-0.3204,-0.3901,-0.4491,-0.4491,-0.4491,-0.4491,-0.4491,-0.4491,-0.4491,-0.4491,-0.4491,-0.4491,-0.4491,-0.4491,-0.4491,-0.4491,-0.4491,-0.4491,-0.4491,-0.4491,-0.4491,-0.4491,-0.4491,-0.4653,-0.5003,-0.503,-0.5195,-0.5578,-0.5222,-0.5523,-0.6588,-0.6588,-0.6588,-0.6588,-0.6588,-0.6588,-0.6615,-0.6993,-0.7182,0.0,0.0,0.0,0.0,0.0,0.0,0.0,0.0,0.0,0.0,0.0,0.0,0.0,0.0,0.0,0.0,0.0,0.0,0.0,0.0,0.0,0.0,0.0,0.0,0.0,0.0,0.0,0.0,0.0,0.0,0.0,0.0,0.0,0.0,0.0,0.0,0.4491,0.4491,0.4153,0.3511,0.337,0.2591,0.1257,0.0532,0.0112,0.0,0.0,0.0,0.0,0.0,0.0,0.0,0.0,0.0,0.0,0.0,0.0,0.0,0.0,0.0,0.0,0.0,0.0,0.0,0.0,0.0,-0.0028,-0.014,-0.0196,-0.0364,-0.109,-0.173,-0.2343,-0.2954,-0.3707,-0.4322,-0.446,-0.4491,-0.4491,-0.4491,-0.4491,-0.4491,-0.4491,-0.4491,-0.4491,-0.4491,-0.4491,-0.4491,-0.4491,-0.4491,-0.4491,-0.4491,-0.4491,-0.4491,-0.4491,-0.4491,-0.4491,-0.4491,-0.4491,-0.4491,-0.4491,-0.4491,-0.5034,-0.6204,-0.6236,-0.6236,-0.6236,-0.6236,-0.6236,-0.6236,-0.6367,-0.6421,0.0,0.0,0.0,0.0,0.0,0.0,0.0,0.0,0.0,0.0,0.0,0.0,0.0,0.0,0.0,0.0,0.0,0.0,0.0,0.0,0.0,0.0,0.0,0.0,0.0,0.0,0.0,0.0,0.0,0.0,0.0,0.0,0.0,0.0,0.0,0.0,0.4491,0.4491,0.4432,0.4322,0.3622,0.2871,0.2037,0.1284,0.0616,0.0,0.0,0.0,0.0,0.0,0.0,0.0,0.0,0.0,0.0,0.0,0.0,0.0,0.0,0.0,0.0,0.0,0.0,0.0,0.0,0.0,-0.014,-0.0783,-0.095,-0.1118,-0.187,-0.212,-0.2232,-0.2313,-0.2926,-0.3649,-0.4349,-0.4491,-0.4491,-0.4491,-0.4491,-0.4491,-0.4491,-0.4491,-0.4491,-0.4491,-0.4491,-0.4491,-0.4491,-0.4491,-0.4491,-0.4491,-0.4491,-0.4491,-0.4491,-0.4491,-0.4491,-0.4491,-0.4491,-0.4491,-0.4491,-0.4491,-0.4598,-0.4791,-0.4791,-0.4791,-0.4791,-0.4791,-0.4791,-0.4791,-0.5382,-0.5651,0.0,0.0,0.0,0.0,0.0,0.0,0.0,0.0,0.0,0.0,0.0,0.0,0.0,0.0,0.0,0.0,0.0,0.0,0.0,0.0,0.0,0.0,0.0,0.0,0.0,0.0,0.0,0.0,0.0,0.0,0.0,0.4491,0.4491,0.4491,0.4491,0.0,0.4491,0.4491,0.4491,0.4491,0.4153,0.3594,0.2871,0.2508,0.148,0.0,0.0,0.0,0.0,0.0,0.0,0.0,0.0,0.0,0.0,0.0,0.0,0.0,0.0,0.0,0.0,0.0,0.0,0.0,0.0,0.0,-0.0056,-0.0392,-0.0476,-0.056,-0.0895,-0.1284,-0.1591,-0.1591,-0.2147,-0.2788,-0.3121,-0.3901,-0.4491,-0.4491,-0.4125,-0.3984,-0.4436,-0.4491,-0.4491,-0.4491,-0.4491,-0.4491,-0.4491,-0.4491,-0.4491,-0.4491,-0.4491,-0.4491,-0.4491,-0.4491,-0.4491,-0.4491,-0.4491,-0.4491,-0.4491,-0.4491,-0.4491,-0.4491,-0.4491,-0.4491,-0.4491,-0.4491,-0.4491,-0.4519,-0.4814,-0.4948,0.0,0.0,0.0,0.0,0.0,0.0,0.0,0.0,0.0,0.0,0.0,0.0,0.0,0.0,0.0,0.0,0.0,0.0,0.0,0.0,0.0,0.0,0.0,0.0,0.0,0.0,0.0,0.0,0.0,0.0,0.0,0.4491,0.4491,0.4491,0.4491,0.4491,0.4491,0.4491,0.4491,0.4491,0.4491,0.4098,0.3372,0.3345,0.2313,0.056,0.0364,0.028,0.0252,0.0084,0.0,0.0,0.0,0.0,0.0,0.0,0.0,0.0,0.0,0.0,0.0,0.0,0.0,0.0,0.0,0.0,0.0,0.0,0.0,0.0,0.0,-0.042,-0.0811,-0.0811,-0.1396,-0.1981,-0.2147,-0.3093,-0.3901,-0.3901,-0.3428,-0.3204,-0.3818,-0.3901,-0.3901,-0.3901,-0.3901,-0.3901,-0.3901,-0.4098,-0.4153,-0.3929,-0.407,-0.4211,-0.4211,-0.4211,-0.4294,-0.4491,-0.4491,-0.4491,-0.4491,-0.4491,-0.4491,-0.4491,-0.4491,-0.4491,-0.4491,-0.4491,-0.4491,-0.4491,-0.4491,-0.4491,0.0,0.0,0.0,0.0,0.0,0.0,0.0,0.0,0.0,0.0,0.0,0.0,0.0,0.0,0.0,0.0,0.0,0.0,0.0,0.0,0.0,0.0,0.0,0.0,0.0,0.0,0.0,0.0,0.0,0.0,0.4491,0.4491,0.4491,0.4491,0.4491,0.4491,0.4491,0.4491,0.4491,0.4491,0.4491,0.407,0.3314,0.3372,0.2926,0.2035,0.1341,0.1034,0.0978,0.028,0.0,0.0,0.0,0.0,0.0,0.0,0.0,0.0,0.0,0.0,0.0,0.0,0.0,0.0,0.0,0.0,0.0,0.0,0.0,0.0,0.0,-0.0028,-0.0056,-0.0056,-0.0615,-0.1341,-0.2035,-0.2258,-0.2313,-0.2313,-0.2286,-0.2258,-0.2313,-0.2313,-0.2313,-0.2313,-0.2313,-0.2313,-0.2313,-0.2982,-0.3178,-0.2397,-0.2954,-0.3398,-0.3456,-0.3456,-0.3763,-0.446,-0.4491,-0.4491,-0.4491,-0.4491,-0.4491,-0.4491,-0.4491,-0.4491,-0.4491,-0.4491,-0.4491,-0.4491,-0.4491,-0.4491,0.0,0.0,0.0,0.0,0.0,0.0,0.0,0.0,0.0,0.0,0.0,0.0,0.0,0.0,0.0,0.0,0.0,0.0,0.0,0.0,0.0,0.0,0.0,0.0,0.0,0.0,0.0,0.0,0.0,0.0,0.4491,0.4491,0.4491,0.4491,0.4491,0.4491,0.4491,0.4491,0.4491,0.4491,0.4491,0.4349,0.407,0.4098,0.3959,0.3624,0.2899,0.2009,0.109,0.0811,0.042,0.0056,0.0532,0.0699,0.0699,0.0699,0.0699,0.0643,0.0168,0.0,0.0,0.0,0.0,0.0,0.0,0.0,0.0,0.0,0.0,0.0,0.0,0.0,0.0,0.0,-0.0196,-0.0476,-0.0727,-0.0783,-0.1062,-0.2009,-0.1813,-0.1647,-0.212,-0.2202,-0.2202,-0.2202,-0.2202,-0.2202,-0.2202,-0.2454,-0.2508,-0.2232,-0.2426,-0.2591,-0.2619,-0.2619,-0.2732,-0.301,-0.3456,-0.3511,-0.3037,-0.3483,-0.3511,-0.3037,-0.3037,-0.3511,-0.4491,-0.4491,-0.4491,-0.4491,-0.4491,-0.4491,0.0,0.0,0.0,0.0,0.0,0.0,0.0,0.0,0.0,0.0,0.0,0.0,0.0,0.0,0.0,0.0,0.0,0.0,0.0,0.0,0.0,0.0,0.0,0.0,0.0,0.0,0.0,0.0,0.0,0.0,0.4491,0.4491,0.4491,0.4491,0.4491,0.4491,0.4491,0.4491,0.4491,0.4491,0.4491,0.4491,0.4491,0.4491,0.4491,0.446,0.3987,0.3037,0.1842,0.1591,0.1174,0.0783,0.1284,0.148,0.148,0.148,0.148,0.1369,0.0615,0.0364,0.0336,0.0084,0.0,0.0,0.0,0.0,0.0,0.0,0.0,0.0,0.0,0.0,0.0,0.0,0.0,0.0,0.0,0.0,-0.028,-0.1284,-0.1062,-0.0895,-0.1368,-0.1452,-0.1452,-0.1452,-0.1452,-0.1452,-0.1452,-0.1675,-0.173,-0.148,-0.1675,-0.184,-0.184,-0.184,-0.1924,-0.2174,-0.2649,-0.2702,-0.2232,-0.2676,-0.2702,-0.2202,-0.2202,-0.2704,-0.3735,-0.3735,-0.3873,-0.4125,-0.4125,-0.4267,0.0,0.0,0.0,0.0,0.0,0.0,0.0,0.0,0.0,0.0,0.0,0.0,0.0,0.0,0.0,0.0,0.0,0.0,0.0,0.0,0.0,0.0,0.0,0.0,0.0,0.0,0.0,0.0,0.0,0.0,0.4491,0.4491,0.4491,0.4491,0.4491,0.4491,0.4491,0.4491,0.4491,0.4491,0.4491,0.4491,0.4491,0.4491,0.4491,0.4491,0.4491,0.4098,0.3372,0.2565,0.2232,0.2202,0.2232,0.2232,0.2232,0.2232,0.2232,0.212,0.1396,0.1146,0.1006,0.0308,0.0056,0.0028,0.0028,0.0028,0.0,0.0,0.0,0.0,0.0,0.0,0.0,0.0,0.0,0.0,0.0,0.0,0.0,0.0,0.0,0.0,0.0,0.0,0.0,0.0,0.0,0.0,0.0,-0.0615,-0.0783,-0.0084,-0.0643,-0.1062,-0.1062,-0.1062,-0.1369,-0.2091,-0.2147,-0.2147,-0.2148,-0.2147,-0.2147,-0.2148,-0.2148,-0.2148,-0.2148,-0.2174,-0.2593,-0.3372,-0.3372,-0.3735,0.0,0.0,0.0,0.0,0.0,0.0,0.0,0.0,0.0,0.0,0.0,0.0,0.0,0.0,0.0,0.0,0.0,0.0,0.0,0.0,0.0,0.0,0.0,0.0,0.0,0.0,0.0,0.0,0.0,0.4491,0.4491,0.4491,0.4491,0.4491,0.4491,0.4491,0.4491,0.4491,0.4491,0.4491,0.4491,0.4491,0.4491,0.4491,0.4491,0.4491,0.4491,0.4377,0.4125,0.3317,0.2676,0.2259,0.2788,0.3037,0.3065,0.301,0.301,0.2899,0.2147,0.1898,0.187,0.1647,0.1229,0.0783,0.0783,0.042,0.0,0.0,0.0,0.0,0.0,0.0,0.0,0.0,0.0,0.0,0.0,0.0,0.0,0.0,0.0,0.0,0.0,0.0,0.0,0.0,0.0,0.0,0.0,-0.0168,-0.0224,-0.0028,-0.0196,-0.0308,-0.0308,-0.0308,-0.0392,-0.0588,-0.1118,-0.1174,-0.0643,-0.1118,-0.1146,-0.0615,-0.0615,-0.0615,-0.0615,-0.1675,-0.2313,-0.2536,-0.2536,-0.2649,0.0,0.0,0.0,0.0,0.0,0.0,0.0,0.0,0.0,0.0,0.0,0.0,0.0,0.0,0.0,0.0,0.0,0.0,0.0,0.0,0.0,0.0,0.0,0.0,0.0,0.0,0.0,0.0,0.4433,0.4372,0.4372,0.4372,0.4399,0.4487,0.4491,0.4491,0.4491,0.4491,0.4491,0.4491,0.4491,0.4491,0.4491,0.4491,0.4491,0.4491,0.4491,0.4491,0.446,0.3984,0.3539,0.3204,0.3622,0.3818,0.3846,0.3818,0.379,0.368,0.2926,0.2649,0.2619,0.2286,0.1898,0.1563,0.1563,0.1257,0.0923,0.0923,0.0699,0.0392,0.0084,0.0,0.0,0.0,0.0,0.0,0.0,0.0,0.0,0.0,0.0,0.0,0.0,0.0,0.0,0.0,0.0,0.0,0.0,0.0,0.0,0.0,0.0,0.0,0.0,0.0,0.0,0.0,-0.0392,-0.0448,-0.0028,-0.042,-0.0448,0.0,0.0,0.0,0.0,-0.0866,-0.1452,-0.1758,-0.2063,-0.2202,0.0,0.0,0.0,0.0,0.0,0.0,0.0,0.0,0.0,0.0,0.0,0.0,0.0,0.0,0.0,0.0,0.0,0.0,0.0,0.0,0.0,0.0,0.0,0.0,0.0,0.0,0.0,0.4429,0.4267,0.4177,0.4194,0.418,0.4271,0.4484,0.4457,0.4457,0.4491,0.4474,0.4474,0.4491,0.4491,0.4491,0.4491,0.4491,0.4491,0.4491,0.4491,0.4491,0.4491,0.4491,0.4491,0.4491,0.4491,0.4491,0.4491,0.4491,0.4491,0.4405,0.368,0.3428,0.3317,0.2676,0.2397,0.2315,0.2343,0.2258,0.2202,0.2202,0.173,0.1062,0.042,0.0252,0.0252,0.0252,0.0252,0.0252,0.0252,0.0252,0.0252,0.0252,0.0112,0.0,0.0,0.0,0.0,0.0,0.0,0.0,0.0,0.0,0.0,0.0,0.0,0.0,0.0,0.0,0.0,0.0,0.0,0.0,0.0,0.0,0.0,0.0,0.0,0.0,0.0,0.0,-0.0336,-0.1006,-0.1647,-0.1952,0.0,0.0,0.0,0.0,0.0,0.0,0.0,0.0,0.0,0.0,0.0,0.0,0.0,0.0,0.0,0.0,0.0,0.0,0.0,0.0,0.0,0.0,0.0,0.0,0.0,0.0,0.0,0.4104,0.4055,0.4092,0.4187,0.4105,0.4185,0.4481,0.4229,0.4222,0.4487,0.4348,0.4348,0.4491,0.4491,0.4491,0.4491,0.4491,0.4491,0.4491,0.4491,0.4491,0.4491,0.4491,0.4491,0.4491,0.4491,0.4491,0.4491,0.4491,0.4491,0.4487,0.4322,0.4267,0.4236,0.4098,0.3624,0.3093,0.3148,0.2704,0.2202,0.2202,0.2093,0.1952,0.1814,0.1758,0.1758,0.1758,0.1758,0.1758,0.1758,0.1758,0.1758,0.1758,0.0811,0.0,0.0,0.0,0.0,0.0,0.0,0.0,0.0,0.0,0.0,0.0,0.0,0.0,0.0,0.0,0.0,0.0,0.0,0.0,0.0,0.0,0.0,0.0,0.0,0.0,0.0,0.0,-0.0084,-0.0224,-0.0364,-0.042,0.0,0.0,0.0,0.0,0.0,0.0,0.0,0.0,0.0,0.0,0.0,0.0,0.0,0.0,0.0,0.0,0.0,0.0,0.0,0.0,0.0,0.0,0.0,0.0,0.0,0.0,0.3907,0.3907,0.3907,0.3938,0.3991,0.3948,0.4009,0.4233,0.4097,0.409,0.4239,0.4142,0.4183,0.4355,0.4355,0.4392,0.4491,0.4491,0.4491,0.4491,0.4491,0.4491,0.4491,0.4491,0.4491,0.4491,0.4491,0.4491,0.4491,0.4491,0.4491,0.4491,0.4491,0.4491,0.4491,0.4491,0.4236,0.3901,0.3929,0.3677,0.3262,0.2871,0.276,0.2704,0.2313,0.2202,0.2202,0.2202,0.2202,0.2202,0.2202,0.2202,0.2202,0.2202,0.1591,0.109,0.109,0.109,0.109,0.109,0.0783,0.056,0.056,0.0224,0.0,0.0,0.0,0.0,0.0,0.0,0.0,0.0,0.0,0.0,0.0,0.0,0.0,0.0,0.0,0.0,0.0,0.0,0.0,0.0,0.0,0.0,0.0,0.0,0.0,0.0,0.0,0.0,0.0,0.0,0.0,0.0,0.0,0.0,0.0,0.0,0.0,0.0,0.0,0.0,0.0,0.0,0.0,0.0,0.0,0.0,0.0,0.0,0.0,0.3748,0.3747,0.3754,0.3788,0.3765,0.388,0.4161,0.4014,0.401,0.4168,0.4038,0.4028,0.4153,0.418,0.4281,0.445,0.4477,0.4491,0.4491,0.4491,0.4491,0.4491,0.4491,0.4491,0.4491,0.4491,0.4491,0.4491,0.4491,0.4491,0.4491,0.4491,0.4491,0.4491,0.4491,0.4491,0.4491,0.4491,0.4491,0.4377,0.3707,0.3566,0.3456,0.2815,0.2649,0.2649,0.2649,0.2649,0.2649,0.2649,0.2649,0.2649,0.2649,0.2649,0.2538,0.2259,0.2202,0.2202,0.2202,0.1703,0.1312,0.1312,0.0783,0.042,0.042,0.042,0.042,0.042,0.042,0.0364,0.0224,0.0224,0.0224,0.0224,0.0336,0.0364,0.0224,0.0364,0.042,0.042,0.042,0.028,0.0,0.0,0.0,0.0,0.0,0.0,0.0,0.0,0.0,0.0,0.0,0.0,0.0,0.0,0.0,0.0,0.0,0.0,0.0,0.0,0.0,0.0,0.0,0.0,0.0,0.0,0.0,0.0,0.0,0.0,0.0,0.3523,0.3557,0.3778,0.3696,0.3984,0.4775,0.4044,0.401,0.4779,0.4147,0.3894,0.4021,0.413,0.4204,0.425,0.4429,0.4491,0.4491,0.4491,0.4491,0.4491,0.4491,0.4491,0.4491,0.4491,0.4491,0.4491,0.4491,0.4491,0.4491,0.4491,0.4491,0.4491,0.4491,0.4491,0.4491,0.4491,0.4491,0.4491,0.4377,0.4377,0.4349,0.4267,0.4236,0.4236,0.4236,0.4236,0.4236,0.4236,0.4236,0.4236,0.4236,0.4236,0.3818,0.2426,0.2202,0.2202,0.2202,0.212,0.2063,0.2063,0.2009,0.1952,0.1952,0.1952,0.1952,0.1952,0.1952,0.1675,0.1006,0.0978,0.0978,0.0978,0.1591,0.1647,0.0978,0.1619,0.1952,0.1952,0.1952,0.1284,0.0,0.0,0.0,0.0,0.0,0.0,0.0,0.0,0.0,0.0,0.0,0.0,0.0,0.0,0.0,0.0,0.0,0.0,0.0,0.0,0.0,0.0,0.0,0.0,0.0,0.0,0.0,0.0,0.0,0.0,0.0,0.0,0.3442,0.3679,0.3634,0.3902,0.4598,0.4256,0.4408,0.513,0.4821,0.4742,0.4864,0.4605,0.4523,0.46,0.4398,0.4338,0.4341,0.4453,0.4491,0.4491,0.4491,0.4491,0.4491,0.4491,0.4491,0.4491,0.4491,0.4491,0.4491,0.4491,0.4491,0.4491,0.4491,0.4491,0.4491,0.4491,0.4491,0.4491,0.4491,0.4491,0.4491,0.4491,0.4491,0.4491,0.4491,0.4491,0.4491,0.4491,0.4491,0.4491,0.4491,0.4491,0.4294,0.3649,0.3539,0.3539,0.3539,0.3148,0.2843,0.2843,0.2454,0.2202,0.2202,0.2202,0.2202,0.2202,0.2202,0.2063,0.1758,0.173,0.173,0.173,0.2035,0.2063,0.1758,0.2035,0.2202,0.2202,0.2202,0.187,0.1256,0.0838,0.0643,0.0,0.0,0.0,0.0,0.0,0.0,0.0,0.0,0.0,0.0,0.0,0.0,0.0,0.0,0.0,0.0,0.0,0.0,0.0,0.0,0.0,0.0,0.0,0.0,0.0,0.0,0.0,0.0,0.0,0.0,0.3803,0.3818,0.414,0.487,0.4739,0.4935,0.5545,0.5394,0.5345,0.5437,0.495,0.4747,0.4836,0.4368,0.4133,0.4166,0.4297,0.4368,0.4368,0.4368,0.4368,0.4368,0.4368,0.4368,0.4378,0.446,0.4491,0.4491,0.4491,0.4491,0.4491,0.4491,0.4491,0.4491,0.4491,0.4491,0.4491,0.4491,0.4491,0.4491,0.4491,0.4491,0.4491,0.4491,0.4491,0.4491,0.4491,0.4491,0.4491,0.4491,0.4491,0.4491,0.4491,0.4491,0.4491,0.4491,0.4012,0.3622,0.3622,0.3151,0.2843,0.2843,0.2843,0.2843,0.2843,0.2843,0.2732,0.2538,0.2508,0.2397,0.2202,0.2619,0.273,0.2508,0.273,0.2843,0.2843,0.2843,0.2843,0.2815,0.1842,0.1396,0.0,0.0,0.0,0.0,0.0,0.0,0.0,0.0,0.0,0.0,0.0,0.0,0.0,0.0,0.0,0.0,0.0,0.0,0.0,0.0,0.0,0.0,0.0,0.0,0.0,0.0,0.0,0.0,0.0,0.0,0.4326,0.4369,0.4913,0.6114,0.5567,0.5567,0.6157,0.5588,0.5308,0.5296,0.4906,0.4699,0.4692,0.4223,0.4001,0.4001,0.4008,0.4008,0.4008,0.4008,0.4008,0.4008,0.4008,0.4008,0.4045,0.4382,0.4491,0.4491,0.4491,0.4491,0.4491,0.4491,0.4491,0.4491,0.4491,0.4491,0.4491,0.4491,0.4491,0.4491,0.4491,0.4491,0.4491,0.4491,0.4491,0.4491,0.4491,0.4491,0.4491,0.4491,0.4491,0.4491,0.4491,0.4491,0.4491,0.4491,0.4487,0.446,0.446,0.4436,0.4436,0.4436,0.4436,0.4436,0.4436,0.4436,0.4125,0.34,0.3287,0.2954,0.2232,0.3624,0.407,0.3287,0.4042,0.4436,0.4436,0.4436,0.4436,0.4377,0.2871,0.2174,0.0,0.0,0.0,0.0,0.0,0.0,0.0,0.0,0.0,0.0,0.0,0.0,0.0,0.0,0.0,0.0,0.0,0.0,0.0,0.0,0.0,0.0,0.0,0.0,0.0,0.0,0.0,0.0,0.0,0.0,0.0,0.4408,0.4957,0.6157,0.6002,0.6173,0.6725,0.6528,0.6422,0.6422,0.5935,0.549,0.507,0.4661,0.4248,0.3873,0.395,0.4218,0.4586,0.4586,0.4829,0.5189,0.5189,0.4948,0.4552,0.4284,0.4233,0.4308,0.4457,0.4491,0.4491,0.4491,0.4491,0.4491,0.4491,0.4491,0.4491,0.4491,0.4491,0.4491,0.4491,0.4491,0.4491,0.4491,0.4491,0.4491,0.4491,0.4491,0.4491,0.4491,0.4491,0.4491,0.4491,0.4491,0.4491,0.4491,0.4491,0.4491,0.4491,0.4491,0.4491,0.4491,0.4491,0.4491,0.4491,0.4491,0.4405,0.4153,0.4098,0.3984,0.3735,0.4236,0.4377,0.4098,0.4349,0.4491,0.4491,0.4491,0.4491,0.4491,0.3959,0.3456,0.0,0.0,0.0,0.0,0.0,0.0,0.0,0.0,0.0,0.0,0.0,0.0,0.0,0.0,0.0,0.0,0.0,0.0,0.0,0.0,0.0,0.0,0.0,0.0,0.0,0.0,0.2934,0.3145,0.0,0.0,0.0,0.0,0.526,0.6456,0.6477,0.6641,0.7,0.7,0.7,0.7,0.6456,0.6007,0.5593,0.4897,0.4389,0.4012,0.4095,0.4352,0.4731,0.4944,0.5269,0.5611,0.5611,0.5382,0.4985,0.449,0.4267,0.4207,0.4355,0.4447,0.4491,0.4491,0.4491,0.4491,0.4491,0.4491,0.4491,0.4491,0.4491,0.4543,0.4787,0.4866,0.4924,0.5171,0.5254,0.5254,0.5254,0.5254,0.5254,0.5254,0.5254,0.5254,0.5254,0.5254,0.5089,0.457,0.4491,0.4491,0.4491,0.4491,0.4598,0.4842,0.4653,0.4598,0.4842,0.4625,0.4598,0.4842,0.4866,0.4866,0.4866,0.5117,0.5117,0.4869,0.4866,0.4732,0.4491,0.4491,0.4491,0.4491,0.4491,0.4236]}]]